[[{"header":{"parameterUnit":"m.s-1","parameterCategory":1,"la1":30.6,"la2":29.2853,"lo1":-89.7004,"lo2":-87.6739,"dy":0.0162,"dx":0.0183,"nx":112,"ny":82,"refTime":"2024-07-25T12:00:00:Z","depth":0,"parameterNumber":2,"parameterNumberName":"U-component_of_WINDS"},"data":[0.0,0.0,0.0,0.0,0.0,0.0,0.0,0.0,0.0,0.0,0.0,0.0,0.0,0.0,0.0,0.0,0.0,0.0,0.0,0.0,0.0,0.0,0.0,0.0,0.0,0.0,0.0,0.0,0.0,0.0,0.0,0.0,0.0,0.0,0.0,0.0,0.0,0.0,0.0,0.0,0.0,0.0,0.0,0.0,0.0,0.0,0.0,0.0,0.0,0.0,0.0,0.0,0.0,0.0,0.0,0.0,0.0,0.0,0.0,0.0,0.0,0.0,0.0,0.0,0.0,0.0,0.0,0.0,0.0,0.0,0.0,0.0,0.0,0.0,0.0,0.0,0.0,0.0,0.0,0.0,0.0,0.0,0.0,0.0,0.0,0.0,0.0,0.0,0.0,0.0,0.0,-2.4599,-2.4599,-2.4599,-2.4599,-2.4599,-2.4599,-2.4599,0.0,0.0,0.0,0.0,0.0,0.0,0.0,0.0,0.0,0.0,0.0,0.0,0.0,0.0,0.0,0.0,0.0,0.0,0.0,0.0,0.0,0.0,0.0,0.0,0.0,0.0,0.0,0.0,0.0,0.0,0.0,0.0,0.0,0.0,0.0,0.0,0.0,0.0,0.0,0.0,0.0,0.0,0.0,0.0,0.0,0.0,0.0,0.0,0.0,0.0,0.0,0.0,0.0,0.0,0.0,0.0,0.0,0.0,0.0,0.0,0.0,0.0,0.0,0.0,0.0,0.0,0.0,0.0,0.0,0.0,0.0,0.0,0.0,0.0,0.0,0.0,0.0,0.0,0.0,0.0,0.0,0.0,0.0,0.0,0.0,0.0,0.0,0.0,0.0,0.0,0.0,0.0,0.0,0.0,0.0,0.0,0.0,0.0,0.0,0.0,0.0,0.0,0.0,0.0,-2.4666,-2.4615,-2.4599,-2.4599,-2.4599,-2.4599,-2.4599,-2.4599,0.0,0.0,0.0,0.0,0.0,0.0,0.0,0.0,0.0,0.0,0.0,0.0,0.0,0.0,0.0,0.0,0.0,0.0,0.0,0.0,0.0,0.0,0.0,0.0,0.0,0.0,0.0,0.0,0.0,0.0,0.0,0.0,0.0,0.0,0.0,0.0,0.0,0.0,0.0,0.0,0.0,0.0,0.0,0.0,0.0,0.0,0.0,0.0,0.0,0.0,0.0,0.0,0.0,0.0,0.0,0.0,0.0,0.0,0.0,0.0,0.0,0.0,0.0,0.0,0.0,0.0,0.0,0.0,0.0,0.0,0.0,0.0,0.0,0.0,0.0,0.0,0.0,0.0,0.0,0.0,0.0,0.0,0.0,0.0,0.0,0.0,0.0,0.0,0.0,0.0,0.0,0.0,0.0,0.0,0.0,0.0,0.0,0.0,0.0,0.0,0.0,0.0,0.0,-2.4584,-2.4584,-2.4549,-2.4551,-2.4551,-2.4551,-2.4551,-2.4551,-2.4551,-2.3171,0.0,0.0,0.0,0.0,0.0,0.0,0.0,0.0,0.0,0.0,0.0,0.0,0.0,0.0,0.0,0.0,0.0,0.0,0.0,0.0,0.0,0.0,0.0,0.0,0.0,0.0,0.0,0.0,0.0,0.0,0.0,0.0,0.0,0.0,0.0,0.0,0.0,0.0,0.0,0.0,0.0,0.0,0.0,0.0,0.0,0.0,0.0,0.0,0.0,0.0,0.0,0.0,0.0,0.0,0.0,0.0,0.0,0.0,0.0,0.0,0.0,0.0,0.0,0.0,0.0,0.0,0.0,0.0,0.0,0.0,0.0,0.0,0.0,0.0,0.0,0.0,0.0,0.0,0.0,0.0,0.0,0.0,0.0,0.0,0.0,0.0,0.0,0.0,0.0,0.0,0.0,0.0,0.0,0.0,0.0,0.0,0.0,0.0,0.0,0.0,0.0,0.0,-2.45,-2.45,-2.45,-2.45,-2.45,-2.45,-2.45,-2.45,-2.45,-2.2734,0.0,0.0,0.0,0.0,0.0,0.0,0.0,0.0,0.0,0.0,0.0,0.0,0.0,0.0,0.0,0.0,0.0,0.0,0.0,0.0,0.0,0.0,0.0,0.0,0.0,0.0,0.0,0.0,0.0,0.0,0.0,0.0,0.0,0.0,0.0,0.0,0.0,0.0,0.0,0.0,0.0,0.0,0.0,0.0,0.0,0.0,0.0,0.0,0.0,0.0,0.0,0.0,0.0,0.0,0.0,0.0,0.0,0.0,0.0,0.0,0.0,0.0,0.0,0.0,0.0,0.0,0.0,0.0,0.0,0.0,0.0,0.0,0.0,0.0,0.0,0.0,0.0,0.0,0.0,0.0,0.0,0.0,0.0,0.0,0.0,0.0,0.0,0.0,0.0,0.0,0.0,0.0,0.0,0.0,0.0,0.0,0.0,0.0,0.0,0.0,0.0,0.0,-2.4498,-2.45,-2.45,-2.45,-2.45,-2.45,-2.45,-2.45,-2.45,-2.2736,0.0,0.0,0.0,0.0,0.0,0.0,0.0,0.0,0.0,0.0,0.0,0.0,0.0,0.0,0.0,0.0,0.0,0.0,0.0,0.0,0.0,0.0,0.0,0.0,0.0,0.0,0.0,0.0,0.0,0.0,0.0,0.0,0.0,0.0,0.0,0.0,0.0,0.0,0.0,0.0,0.0,0.0,0.0,0.0,0.0,0.0,0.0,0.0,0.0,0.0,0.0,0.0,0.0,0.0,0.0,0.0,0.0,0.0,0.0,0.0,0.0,0.0,0.0,0.0,0.0,0.0,0.0,0.0,0.0,0.0,0.0,0.0,0.0,0.0,0.0,0.0,0.0,0.0,0.0,0.0,0.0,0.0,0.0,0.0,0.0,0.0,0.0,0.0,0.0,0.0,0.0,0.0,0.0,0.0,0.0,0.0,0.0,0.0,0.0,0.0,0.0,0.0,-2.4517,-2.45,0.0,-2.45,-2.4482,-2.4447,-2.4447,-2.4447,-2.4447,0.0,0.0,0.0,0.0,0.0,0.0,0.0,0.0,0.0,0.0,0.0,0.0,0.0,0.0,0.0,0.0,0.0,0.0,0.0,0.0,0.0,0.0,0.0,0.0,0.0,0.0,0.0,0.0,0.0,0.0,0.0,0.0,0.0,0.0,0.0,0.0,0.0,0.0,0.0,0.0,0.0,0.0,0.0,0.0,0.0,0.0,0.0,0.0,0.0,0.0,0.0,0.0,0.0,0.0,0.0,0.0,0.0,0.0,0.0,0.0,0.0,0.0,0.0,0.0,0.0,0.0,0.0,0.0,0.0,0.0,0.0,0.0,0.0,0.0,0.0,0.0,0.0,0.0,0.0,0.0,0.0,0.0,0.0,0.0,0.0,0.0,0.0,0.0,0.0,0.0,0.0,0.0,0.0,0.0,0.0,0.0,0.0,0.0,0.0,0.0,0.0,0.0,-2.45,-2.45,-2.45,0.0,-2.4465,-2.4447,-2.4358,-2.4303,-2.4303,-2.4358,0.0,0.0,0.0,0.0,0.0,0.0,0.0,0.0,0.0,0.0,0.0,0.0,0.0,0.0,0.0,0.0,0.0,0.0,0.0,0.0,0.0,0.0,0.0,0.0,0.0,0.0,0.0,0.0,0.0,0.0,0.0,0.0,0.0,0.0,0.0,0.0,0.0,0.0,0.0,0.0,0.0,0.0,0.0,0.0,0.0,0.0,0.0,0.0,0.0,0.0,0.0,0.0,0.0,0.0,0.0,0.0,0.0,0.0,0.0,0.0,0.0,0.0,0.0,0.0,0.0,0.0,0.0,0.0,0.0,0.0,0.0,0.0,0.0,0.0,0.0,0.0,0.0,0.0,0.0,0.0,0.0,0.0,0.0,0.0,0.0,0.0,0.0,0.0,0.0,0.0,0.0,0.0,0.0,0.0,0.0,0.0,0.0,0.0,0.0,0.0,0.0,0.0,-2.45,-2.45,-2.4482,-2.4412,-2.4394,-2.4358,-2.4303,-2.4096,-2.4077,0.0,0.0,0.0,0.0,0.0,0.0,0.0,0.0,0.0,0.0,0.0,0.0,0.0,0.0,0.0,0.0,0.0,0.0,0.0,0.0,0.0,0.0,0.0,0.0,0.0,0.0,0.0,0.0,0.0,0.0,0.0,0.0,0.0,0.0,0.0,0.0,0.0,0.0,0.0,0.0,0.0,0.0,0.0,0.0,0.0,0.0,0.0,0.0,0.0,0.0,0.0,0.0,0.0,0.0,0.0,0.0,0.0,0.0,0.0,0.0,0.0,0.0,0.0,0.0,0.0,0.0,0.0,0.0,0.0,0.0,0.0,0.0,0.0,0.0,0.0,0.0,0.0,0.0,0.0,0.0,0.0,0.0,0.0,0.0,0.0,0.0,0.0,0.0,0.0,0.0,0.0,0.0,0.0,0.0,0.0,0.0,0.0,0.0,0.0,0.0,0.0,0.0,0.0,-2.45,-2.45,-2.4482,-2.4412,-2.4394,-2.4117,-2.3436,-2.3198,-2.2865,-2.2356,0.0,0.0,0.0,0.0,0.0,0.0,0.0,0.0,0.0,0.0,0.0,0.0,0.0,0.0,0.0,0.0,0.0,0.0,0.0,0.0,0.0,0.0,0.0,0.0,0.0,0.0,0.0,0.0,0.0,0.0,0.0,0.0,0.0,0.0,0.0,0.0,0.0,0.0,0.0,0.0,0.0,0.0,0.0,0.0,0.0,0.0,0.0,0.0,0.0,0.0,0.0,0.0,0.0,0.0,0.0,0.0,0.0,0.0,0.0,0.0,0.0,0.0,0.0,0.0,0.0,0.0,0.0,0.0,0.0,0.0,0.0,0.0,0.0,0.0,0.0,0.0,0.0,0.0,0.0,0.0,0.0,0.0,0.0,0.0,0.0,0.0,0.0,0.0,0.0,0.0,0.0,0.0,0.0,0.0,0.0,0.0,0.0,0.0,0.0,0.0,0.0,0.0,-2.45,-2.45,-2.4465,-2.4358,-2.4358,-2.3989,-2.3069,-2.2718,-2.2238,-2.1552,0.0,0.0,0.0,0.0,0.0,0.0,0.0,0.0,0.0,0.0,0.0,0.0,0.0,0.0,0.0,0.0,0.0,0.0,0.0,0.0,0.0,0.0,0.0,0.0,0.0,0.0,0.0,0.0,0.0,0.0,0.0,0.0,0.0,0.0,0.0,0.0,0.0,0.0,0.0,0.0,0.0,0.0,0.0,0.0,0.0,0.0,0.0,0.0,0.0,0.0,0.0,0.0,0.0,0.0,0.0,0.0,0.0,0.0,0.0,0.0,0.0,0.0,0.0,0.0,0.0,0.0,0.0,0.0,0.0,0.0,0.0,0.0,0.0,0.0,0.0,0.0,0.0,0.0,0.0,0.0,0.0,0.0,0.0,0.0,0.0,0.0,0.0,0.0,0.0,0.0,0.0,0.0,0.0,0.0,0.0,0.0,0.0,0.0,0.0,0.0,0.0,0.0,-2.4482,-2.4482,-2.4429,-2.4303,-2.4211,-2.3824,-2.296,-2.2397,-2.1878,-2.1296,0.0,0.0,0.0,0.0,0.0,0.0,0.0,0.0,0.0,0.0,0.0,0.0,0.0,0.0,0.0,0.0,0.0,0.0,0.0,0.0,0.0,0.0,0.0,0.0,0.0,0.0,0.0,0.0,0.0,0.0,0.0,0.0,0.0,0.0,0.0,0.0,0.0,0.0,0.0,0.0,0.0,0.0,0.0,0.0,0.0,0.0,0.0,0.0,0.0,0.0,0.0,0.0,0.0,0.0,0.0,0.0,0.0,0.0,0.0,0.0,-2.6752,0.0,0.0,0.0,0.0,0.0,0.0,0.0,0.0,0.0,0.0,0.0,0.0,0.0,0.0,0.0,0.0,0.0,0.0,0.0,0.0,0.0,0.0,0.0,0.0,0.0,0.0,0.0,0.0,0.0,0.0,0.0,0.0,0.0,0.0,0.0,0.0,0.0,0.0,0.0,0.0,0.0,-2.443,-2.4375,-2.4303,-2.4229,-2.3658,-2.294,-2.2133,-2.1225,-2.0336,-1.9435,-1.8937,0.0,0.0,0.0,0.0,0.0,0.0,0.0,0.0,0.0,0.0,0.0,0.0,0.0,0.0,0.0,0.0,0.0,0.0,0.0,0.0,0.0,0.0,0.0,0.0,0.0,0.0,0.0,0.0,0.0,0.0,0.0,0.0,0.0,0.0,0.0,0.0,0.0,0.0,0.0,0.0,0.0,0.0,0.0,0.0,0.0,0.0,0.0,0.0,0.0,0.0,0.0,0.0,0.0,0.0,0.0,0.0,0.0,0.0,0.0,0.0,-2.7328,0.0,0.0,0.0,0.0,0.0,0.0,0.0,0.0,0.0,0.0,0.0,0.0,0.0,0.0,0.0,0.0,0.0,0.0,0.0,0.0,0.0,0.0,0.0,0.0,0.0,0.0,0.0,0.0,0.0,0.0,0.0,0.0,0.0,0.0,0.0,0.0,0.0,0.0,0.0,0.0,-2.4394,-2.4339,-2.4266,-2.421,-2.3474,-2.2682,-2.1876,-2.0878,-1.9867,-1.886,-1.862,0.0,0.0,0.0,0.0,0.0,0.0,0.0,0.0,0.0,0.0,0.0,0.0,0.0,0.0,0.0,0.0,0.0,0.0,0.0,0.0,0.0,0.0,0.0,0.0,0.0,0.0,0.0,0.0,0.0,0.0,0.0,0.0,0.0,0.0,0.0,0.0,0.0,0.0,0.0,0.0,0.0,0.0,0.0,0.0,0.0,0.0,0.0,0.0,0.0,0.0,0.0,0.0,0.0,0.0,-3.0858,-3.0023,-2.9872,-2.9439,-2.8739,-2.8198,-2.8203,-2.8537,0.0,0.0,0.0,0.0,0.0,0.0,0.0,0.0,0.0,0.0,0.0,0.0,0.0,0.0,0.0,0.0,0.0,0.0,0.0,0.0,0.0,0.0,0.0,0.0,0.0,-2.6499,-2.6371,0.0,0.0,0.0,0.0,0.0,0.0,0.0,0.0,0.0,0.0,0.0,0.0,-2.4376,-2.4321,-2.4247,-2.421,-2.3363,-2.2518,-2.1858,-2.0768,-1.9757,-1.8896,-1.8658,-1.8828,0.0,0.0,0.0,0.0,0.0,0.0,0.0,0.0,0.0,0.0,0.0,0.0,0.0,0.0,0.0,0.0,0.0,0.0,0.0,0.0,0.0,0.0,0.0,0.0,0.0,0.0,0.0,0.0,0.0,0.0,0.0,0.0,-2.5503,-2.6431,0.0,0.0,0.0,0.0,0.0,0.0,0.0,0.0,0.0,0.0,0.0,0.0,0.0,0.0,-3.0817,-3.2349,-3.2823,-3.2218,-3.2218,-3.1781,-3.089,-3.0208,-2.9727,-2.9456,-2.9362,0.0,-2.9364,-2.8312,0.0,0.0,0.0,0.0,0.0,0.0,0.0,0.0,0.0,0.0,0.0,0.0,0.0,0.0,0.0,0.0,0.0,0.0,0.0,0.0,0.0,0.0,-2.639,-2.5799,-2.5669,-2.5835,0.0,-2.6708,-2.6763,-2.6593,0.0,0.0,0.0,0.0,0.0,0.0,0.0,0.0,-2.4229,-2.4228,-2.4209,-2.4209,-2.2868,-2.1913,-2.1821,-2.0338,-1.9305,-1.8981,-1.8789,-1.92,-2.0383,-1.9533,0.0,0.0,0.0,0.0,0.0,0.0,0.0,0.0,0.0,0.0,0.0,0.0,0.0,0.0,0.0,0.0,0.0,0.0,0.0,0.0,0.0,0.0,0.0,0.0,0.0,0.0,0.0,0.0,0.0,-2.5066,-2.6845,-2.6721,-2.7537,-2.7721,0.0,0.0,0.0,0.0,0.0,0.0,0.0,0.0,0.0,-2.8859,-3.0037,-3.0757,-3.0922,-3.2166,-3.2522,-3.2064,-3.2064,-3.1389,-3.0133,-2.9777,-2.9064,-2.811,-2.8558,-2.8745,-2.8763,-2.8775,-2.8727,-2.8645,0.0,0.0,0.0,0.0,0.0,-2.8257,-2.8184,0.0,0.0,0.0,0.0,0.0,0.0,0.0,0.0,0.0,0.0,0.0,0.0,0.0,0.0,-2.6217,-2.6123,-2.6215,-2.6565,-2.67,-2.6888,0.0,-2.7442,-2.7056,-2.5725,0.0,0.0,0.0,0.0,0.0,-2.4192,-2.4209,-2.419,-2.419,-2.2758,-2.1803,-2.1803,-2.026,-1.9212,-1.9017,-1.8825,-1.9061,-1.9878,-1.9733,-1.9974,0.0,0.0,0.0,0.0,0.0,0.0,0.0,0.0,0.0,0.0,0.0,0.0,0.0,0.0,0.0,0.0,0.0,0.0,0.0,0.0,0.0,0.0,0.0,0.0,0.0,0.0,0.0,0.0,-2.6862,-2.8109,-2.7445,-2.884,-2.9207,0.0,0.0,0.0,0.0,0.0,0.0,-2.8563,-2.9271,-2.9628,-2.9465,-3.0217,-3.0743,-3.1048,-3.1686,-3.1848,-3.1485,-3.1262,-3.0448,-2.9072,-2.8849,-2.8087,-2.6953,-2.7733,-2.8086,-2.816,-2.9033,-2.9304,-2.92,-2.9178,-2.8934,-2.8601,-2.8601,-2.8677,-2.8791,-2.8925,-2.8927,-2.8822,-2.8554,0.0,-2.7145,-2.6955,0.0,0.0,0.0,0.0,-2.6779,-2.694,0.0,-2.6348,-2.6303,-2.6135,-2.6043,-2.6245,-2.6323,-2.6677,0.0,-2.7972,-2.7511,-2.6036,0.0,0.0,0.0,0.0,-2.421,-2.421,-2.419,-2.419,-2.419,-2.2942,-2.2097,-2.2097,-2.0541,-1.9492,-1.9325,-1.8859,-1.8823,-1.9347,-1.9822,-2.0204,-2.0442,0.0,0.0,0.0,0.0,0.0,0.0,0.0,0.0,0.0,0.0,0.0,0.0,0.0,0.0,0.0,0.0,0.0,0.0,0.0,0.0,0.0,0.0,0.0,0.0,0.0,0.0,0.0,0.0,0.0,-2.9175,-3.0656,0.0,0.0,0.0,0.0,-2.9068,-2.9085,-2.9429,-3.0225,-3.0931,-3.1177,-3.0985,-3.1638,-3.1912,-3.1749,-3.1786,-3.1433,-3.0652,-2.989,-2.9054,-2.8123,-2.7381,-2.699,-2.6953,-2.7733,-2.8086,-2.816,-2.8971,-2.9262,-2.9178,-2.9112,-2.8887,-2.8601,-2.8601,-2.8873,-2.9147,-2.8405,-2.8665,-2.913,-2.8362,-2.7803,-2.7398,-2.7437,-2.6932,0.0,0.0,-2.6822,-2.6468,-2.749,-2.6615,-2.5458,-2.5458,-2.4869,-2.452,-2.5311,-2.5458,-2.5935,0.0,-2.7849,-2.7613,-2.6707,0.0,-2.6007,-2.4428,-2.419,-2.419,-2.419,-2.419,-2.419,-2.419,-2.3437,-2.2942,-2.2942,-2.1297,-2.0209,-2.0138,-1.8992,-1.8621,-1.9277,-1.975,-2.0382,-2.1136,-2.1187,0.0,0.0,0.0,0.0,0.0,0.0,0.0,0.0,0.0,0.0,0.0,0.0,0.0,0.0,0.0,0.0,0.0,0.0,0.0,0.0,0.0,0.0,0.0,0.0,0.0,0.0,0.0,0.0,-3.0907,-3.2396,0.0,-3.0298,-3.0518,-3.0359,-2.928,-3.0171,-3.066,-3.0398,-3.1033,-3.1062,-3.0357,-3.0432,-3.0411,-3.0262,-3.0262,-2.9834,-2.8998,-2.87,-2.7864,-2.6563,-2.6265,-2.5856,-2.541,-2.621,-2.6563,-2.6619,-2.7416,-2.832,-2.9178,-2.8943,-2.8597,-2.8255,-2.8065,-2.812,-2.8229,-2.7946,-2.8131,-2.8449,-2.7986,-2.7869,-2.7903,-2.7745,-2.7635,-2.7676,-2.8094,-2.7651,-2.7059,-2.7093,-2.627,-2.5332,-2.476,-2.441,-2.4281,-2.4557,-2.463,-2.4942,-2.6025,-2.6688,-2.6799,-2.597,-2.5823,-2.5456,-2.4355,-2.419,-2.419,-2.419,-2.419,-2.419,-2.419,-2.3492,-2.2997,-2.2997,-2.1771,-2.0969,-2.0856,-1.9694,-1.9083,-1.9228,-1.9726,-2.012,-2.0433,-2.1397,-2.1667,0.0,0.0,0.0,0.0,0.0,0.0,0.0,0.0,0.0,0.0,0.0,0.0,0.0,0.0,0.0,0.0,0.0,0.0,0.0,0.0,0.0,0.0,0.0,0.0,0.0,0.0,-3.1496,-3.1777,-3.3033,-3.3004,-3.0753,-3.1262,-3.1152,-2.9734,-3.0645,-3.1006,-3.0417,-3.0705,-3.0582,-2.9921,-2.9644,-2.9492,-2.9407,-2.9407,-2.9109,-2.8533,-2.7976,-2.7139,-2.6098,-2.554,-2.5001,-2.4537,-2.5355,-2.5708,-2.5764,-2.6487,-2.7389,-2.8261,-2.805,-2.7633,-2.7183,-2.7007,-2.69,-2.6784,-2.6784,-2.6951,-2.7156,-2.6979,-2.7146,-2.7415,-2.7399,-2.7359,-2.7406,-2.7857,-2.7272,-2.6467,-2.6216,-2.5605,-2.4927,-2.4356,-2.419,-2.419,-2.419,-2.419,-2.4355,-2.4887,-2.564,-2.6025,-2.5495,-2.5403,-2.5146,-2.4318,-2.419,-2.419,-2.419,-2.419,-2.419,-2.419,-2.3731,-2.34,-2.34,-2.2426,-2.1763,-2.1547,-2.0463,-1.9737,-1.959,-1.9879,-2.0171,-2.0425,-2.1651,-2.1938,-2.1204,0.0,0.0,0.0,0.0,0.0,0.0,0.0,0.0,0.0,0.0,0.0,0.0,0.0,0.0,0.0,0.0,0.0,0.0,0.0,0.0,0.0,0.0,0.0,-3.0607,-3.0649,-3.0967,-3.1748,-3.258,-3.2454,-3.0791,-3.1341,-3.1435,-3.0567,-3.0444,-3.041,-3.041,-3.009,-2.9902,-2.9902,-2.957,-2.9407,-2.9407,-2.9407,-2.9388,-2.9351,-2.7697,-2.6897,-2.6823,-2.5224,-2.45,-2.4537,-2.5336,-2.5652,-2.569,-2.6274,-2.6463,-2.642,-2.6457,-2.6033,-2.542,-2.5473,-2.5292,-2.5005,-2.5005,-2.5153,-2.5393,-2.5393,-2.5622,-2.5961,-2.6408,-2.6026,-2.5551,-2.6342,-2.5614,-2.467,-2.4924,-2.4598,-2.419,-2.419,-2.419,-2.419,-2.419,-2.419,-2.419,-2.419,-2.4814,-2.5366,-2.5366,-2.5366,-2.5109,-2.4318,-2.419,0.0,-2.419,-2.419,-2.419,-2.419,-2.419,-2.419,-2.419,-2.3303,-2.2594,-2.2264,-2.1211,-2.0553,-2.0335,-2.0228,-2.0518,-2.1326,-2.1966,-2.1955,-2.1237,0.0,0.0,0.0,0.0,0.0,0.0,0.0,0.0,0.0,0.0,0.0,0.0,0.0,0.0,0.0,0.0,0.0,0.0,0.0,0.0,0.0,0.0,-2.9952,-3.0574,-3.1681,-3.2493,-3.2725,-3.2947,-3.2657,-3.1584,-3.167,-3.1437,-3.0568,-3.0439,-3.0406,-3.0406,-3.0163,-2.9992,-2.9902,-2.9662,-2.9492,-2.9407,-2.9407,-2.9091,-2.8459,-2.7399,-2.66,-2.6005,-2.4964,-2.45,-2.45,-2.4524,-2.4523,-2.4542,-2.4545,-2.4426,-2.4351,-2.544,-2.5689,-2.5447,-2.5265,-2.516,-2.5063,-2.5005,-2.5046,-2.5114,-2.5114,-2.5171,-2.5279,-2.5403,-2.5288,-2.5195,-2.562,-2.5189,-2.467,-2.4924,-2.4598,-2.419,-2.419,-2.419,-2.419,-2.419,-2.419,-2.419,-2.419,-2.4373,-2.452,-2.452,-2.452,-2.4447,-2.4226,0.0,0.0,-2.419,-2.419,-2.419,-2.419,-2.419,-2.419,-2.419,-2.3775,-2.3346,-2.3025,-2.2083,-2.1416,-2.113,-2.1063,-2.1369,-2.2082,-2.2237,-2.2209,0.0,0.0,0.0,0.0,0.0,0.0,0.0,0.0,0.0,0.0,0.0,0.0,0.0,0.0,0.0,0.0,0.0,0.0,0.0,0.0,0.0,0.0,-2.9946,-3.0117,-3.0628,-3.1173,-3.1507,-3.1507,-3.1197,-3.0752,-3.0269,-3.0211,-2.9999,-2.9497,-2.9727,-2.9908,-2.9897,-3.0043,-3.0066,-2.9902,-2.9697,-2.9532,-2.9407,-2.9054,-2.8608,-2.8086,-2.6953,-2.6154,-2.5671,-2.4871,-2.4429,0.0,-2.4173,-2.404,-2.3959,-2.3753,-2.3598,0.0,0.0,0.0,0.0,0.0,-2.4123,-2.4123,-2.4095,-2.4067,-2.404,-2.4067,-2.4067,-2.4091,-2.4419,-2.4281,-2.4119,-2.459,-2.4356,-2.4022,-2.4284,-2.4179,-2.4074,-2.417,-2.419,-2.419,-2.419,-2.4113,-2.4016,-2.4016,0.0,0.0,-2.4016,-2.4132,-2.419,-2.419,-2.419,-2.419,0.0,-2.419,-2.419,-2.419,-2.419,-2.419,-2.419,-2.4054,0.0,0.0,0.0,-2.2335,-2.1589,-2.1892,0.0,0.0,0.0,0.0,0.0,0.0,0.0,0.0,-2.1651,-2.1915,0.0,0.0,0.0,0.0,0.0,0.0,0.0,0.0,0.0,0.0,0.0,0.0,0.0,0.0,0.0,0.0,-3.0477,-3.0414,-3.0427,-2.9602,-2.904,-2.9128,-2.847,-2.7995,-2.7995,-2.8008,-2.799,-2.799,-2.8743,-2.9206,-2.9214,0.0,0.0,0.0,0.0,-2.9514,-2.9258,-2.8496,-2.8049,-2.7937,-2.6433,-2.569,-2.5634,-2.4836,-2.4321,-2.4059,-2.404,-2.3939,-2.3753,-2.3531,-2.3458,-2.3458,-2.3458,-2.3223,-2.2902,-2.2842,-2.2816,0.0,0.0,0.0,0.0,-2.279,-2.2764,-2.2832,-2.346,-2.3202,-2.285,-2.3478,-2.3398,-2.3151,-2.3318,-2.3566,-2.3837,-2.4074,-2.4113,-2.4151,-2.4132,-2.3917,-2.3735,-2.3735,-2.3588,-2.3522,-2.3774,-2.3996,-2.417,-2.4208,-2.419,0.0,-2.419,-2.419,-2.419,-2.419,0.0,0.0,-2.419,-2.419,-2.4094,-2.3816,-2.3714,-2.3133,-2.1984,-2.2618,-2.253,-2.1541,-2.2109,-2.2366,-2.231,-2.231,-2.231,-2.231,-2.231,-2.231,0.0,0.0,0.0,0.0,0.0,0.0,0.0,0.0,0.0,0.0,0.0,0.0,0.0,0.0,0.0,-2.9559,-2.9129,-2.8684,-2.8689,-2.7878,-2.7516,-2.8169,-2.8111,-2.7995,-2.7995,-2.8006,-2.8006,-2.8006,-2.881,-2.9274,-2.9284,-2.9974,0.0,-2.9912,-2.9851,-2.9361,-2.8366,-2.8179,-2.7751,-2.712,0.0,0.0,-2.5425,-2.456,-2.4058,-2.3858,-2.3707,-2.3598,-2.3531,-2.3295,-2.3193,-2.3175,-2.3102,-2.3052,-2.2952,-2.2919,-2.2902,-2.2952,-2.2893,-2.2868,-2.285,-2.2816,-2.279,-2.2781,-2.2884,-2.2815,0.0,-2.2884,-2.2998,-2.3102,-2.3151,-2.3468,-2.3774,-2.3588,-2.3714,-2.3816,-2.3588,-2.3522,-2.3477,-2.3477,-2.361,-2.3735,-2.3795,-2.3837,-2.3937,-2.417,-2.419,-2.419,-2.419,-2.419,-2.419,-2.419,-2.419,-2.419,-2.419,-2.419,-2.4094,-2.3816,-2.3588,-2.327,-2.2874,-2.2958,-2.2773,-2.231,-2.2364,-2.2366,-2.231,-2.231,-2.231,-2.231,-2.231,-2.231,0.0,0.0,0.0,0.0,0.0,0.0,0.0,0.0,0.0,0.0,0.0,-2.625,-2.6709,0.0,-2.7975,-2.9291,-2.8426,-2.7747,-2.8131,-2.7055,-2.6337,-2.6701,-2.6753,-2.6749,-2.6749,-2.6749,-2.6749,-2.6749,-2.7525,-2.8192,-2.8627,-2.9289,-2.9717,-2.9893,-2.942,-2.8799,-2.8124,-2.7306,-2.6712,-2.6303,-2.5485,-2.5041,-2.4912,-2.4357,-2.3999,-2.3795,-2.3576,-2.3435,-2.3295,-2.3168,-2.3095,-2.3095,-2.3052,-2.3045,-2.3045,-2.2952,-2.297,-2.2995,-2.297,-2.2919,-2.2868,-2.2868,-2.2816,-2.2738,-2.2712,-2.2712,-2.2712,-2.2712,-2.279,-2.2944,-2.307,-2.3277,-2.3445,-2.341,-2.35,-2.3566,-2.3414,-2.3318,-2.3289,-2.3369,-2.3427,-2.3513,-2.3753,-2.3795,-2.3896,-2.417,-2.419,-2.419,-2.419,-2.419,-2.419,-2.419,-2.419,-2.419,-2.419,-2.419,-2.4094,-2.3816,-2.3671,-2.345,-2.3102,-2.307,-2.2893,-2.2515,-2.246,-2.2405,-2.231,-2.231,-2.231,-2.231,-2.231,-2.231,0.0,0.0,0.0,0.0,0.0,0.0,0.0,0.0,-2.5505,-2.5507,-2.5635,-2.5975,-2.667,-2.6841,-2.7358,-2.8767,-2.773,-2.6972,-2.7629,-2.6356,-2.5344,-2.5274,-2.5395,-2.5511,-2.5511,-2.5511,-2.5511,-2.5511,-2.6238,-2.7003,-2.77,-2.8341,-2.8931,-2.9414,-2.86,-2.7997,-2.7641,-2.6358,-2.5615,-2.5466,-2.4762,-2.4411,-2.4358,-2.4097,-2.3878,-2.3646,-2.3486,-2.3295,-2.3095,-2.3095,-2.3095,-2.3095,-2.3095,-2.3095,-2.3077,-2.3045,-2.302,-2.2995,-2.2995,-2.2919,-2.2842,-2.2868,-2.2816,-2.2712,-2.2712,-2.2712,-2.2712,-2.2712,-2.2712,-2.2764,-2.297,-2.307,-2.3126,-2.3242,-2.3323,-2.3392,-2.3341,-2.3259,-2.3206,-2.3387,-2.3312,-2.3348,-2.3732,-2.3837,-2.3937,-2.417,-2.419,-2.419,-2.419,-2.419,-2.419,-2.419,-2.419,-2.417,-2.4132,-2.4113,-2.4016,-2.3735,-2.3714,-2.3535,-2.3119,-2.3095,-2.2919,-2.2542,-2.2515,-2.2432,-2.231,-2.231,-2.231,-2.231,-2.231,-2.231,-2.5479,-2.554,-2.5585,-2.5589,-2.5598,-2.5589,0.0,0.0,-2.5505,-2.5507,-2.6125,-2.667,-2.6773,-2.6844,-2.6966,-2.7164,-2.6422,-2.5879,-2.5976,-2.5149,-2.4503,-2.4436,-2.5072,-2.5511,-2.5511,-2.5511,-2.5511,-2.5511,-2.6238,-2.6741,-2.6837,-2.7536,-2.7872,-2.778,-2.7478,-2.6889,-2.5987,-2.5801,-2.5336,-2.463,-2.4284,-2.4058,-2.3878,-2.3664,-2.3417,-2.3175,-2.3151,-2.3144,-2.3095,-2.3095,-2.3095,-2.3095,-2.3095,-2.3095,-2.3095,-2.3095,-2.3045,-2.2995,-2.2995,-2.2944,-2.2893,-2.2842,-2.2816,-2.279,-2.2712,-2.2712,-2.2712,-2.2712,-2.2712,-2.2712,-2.2738,-2.2919,-2.3045,-2.2825,-2.3098,-2.3341,-2.3182,-2.3259,-2.3369,-2.3392,-2.3566,-2.3732,-2.3795,-2.3996,-2.417,-2.4208,-2.419,-2.419,-2.419,-2.419,-2.419,-2.419,-2.419,-2.4094,-2.3858,-2.3837,-2.3714,-2.3459,-2.3437,-2.3335,-2.3102,-2.3095,-2.2944,-2.2596,-2.2542,-2.246,-2.2377,-2.2338,-2.231,-2.231,-2.231,-2.231,-2.4521,-2.4856,-2.5026,-2.554,-2.5664,-2.5648,-2.5619,-2.5609,-2.5617,-2.5571,-2.5848,-2.6101,-2.6147,-2.6178,-2.6197,0.0,-2.5917,-2.5703,-2.5703,-2.4955,-2.4395,-2.4366,-2.4598,-2.4735,-2.4737,-2.4737,-2.495,-2.5453,-2.582,-2.6199,-2.6663,-2.6872,-2.7132,-2.7483,-2.6847,-2.6263,-2.576,-2.5259,-2.4779,-2.4321,-2.4173,-2.3981,-2.3795,-2.3598,-2.3365,-2.3095,-2.3095,-2.3095,-2.3095,-2.3095,-2.3095,-2.3095,-2.3095,-2.3095,-2.3045,-2.3045,-2.3003,-2.2977,-2.297,-2.2893,-2.2842,-2.2816,-2.2764,-2.2738,-2.2712,-2.2712,-2.2712,-2.2712,-2.2712,-2.2738,-2.2893,-2.302,-2.3102,-2.3116,-2.3271,-2.3387,-2.3289,-2.3341,-2.3455,-2.3588,-2.3714,-2.3795,-2.3795,-2.3896,-2.3976,-2.3976,-2.4094,-2.419,-2.419,-2.419,-2.4151,-2.3996,-2.3816,-2.3735,-2.3795,-2.3671,-2.3522,-2.3414,-2.3289,-2.3133,-2.2893,-2.2868,-2.2764,-2.2542,-2.2515,-2.246,-2.2338,-2.231,-2.231,-2.231,-2.231,-2.231,-2.389,-2.4348,-2.4609,-2.5483,-2.5701,-2.5703,-2.5691,-2.5707,-2.5681,-2.5609,-2.5609,-2.5645,-2.5685,-2.5693,-2.5699,-2.5703,-2.5703,-2.5703,-2.5703,-2.4743,-2.4131,-2.436,-2.3891,-2.3713,-2.4187,-2.4438,-2.4815,-2.5453,-2.5511,-2.5762,-2.6334,-2.6159,-2.6285,-2.6791,-2.6052,-2.559,-2.5476,-2.4827,-2.4409,-2.4192,-2.4078,-2.3919,-2.371,-2.3486,-2.3271,-2.3095,-2.3095,-2.3095,-2.3095,-2.3095,-2.3095,-2.3095,-2.3095,-2.307,-2.3003,-2.2995,-2.297,-2.2944,-2.2893,-2.2842,-2.2764,-2.2764,-2.2738,-2.2712,-2.2712,-2.2712,-2.2712,-2.2712,-2.2764,-2.2842,-2.297,-2.3028,-2.3126,-2.3194,-2.3248,-2.3335,-2.3335,-2.3364,-2.3477,-2.3649,-2.3692,-2.3692,-2.3692,-2.3692,-2.3692,-2.3692,-2.3837,-2.3996,-2.4074,-2.4034,-2.3896,-2.3714,-2.3522,-2.3477,-2.3671,-2.3522,-2.3392,-2.3392,-2.3265,-2.3109,-2.291,-2.285,-2.2764,-2.2632,-2.2542,-2.2432,-2.2338,-2.231,-2.231,-2.231,-2.231,-2.231,-2.4062,-2.4354,-2.4602,-2.5488,-2.5703,-2.5703,-2.5691,-2.5707,-2.5681,-2.5609,-2.5648,-2.5707,-2.5707,-2.5701,-2.5703,-2.5703,-2.5703,-2.5703,-2.5703,-2.4219,-2.3456,-2.4308,-2.2898,-2.2518,0.0,-2.4994,-2.5472,-2.5511,-2.5511,-2.5511,-2.555,-2.5273,-2.5122,-2.5087,-2.4865,-2.4703,-2.4636,-2.4547,-2.4409,-2.4192,-2.3939,-2.3689,-2.3504,-2.3223,-2.3119,-2.3095,-2.3095,-2.3095,-2.3095,-2.3095,-2.3095,-2.3095,-2.3095,-2.3095,-2.3095,-2.2944,-2.2868,-2.2816,-2.2816,-2.2764,-2.2712,-2.2712,-2.2712,-2.2712,-2.2712,-2.2712,-2.2712,-2.2712,-2.2893,-2.3045,-2.279,-2.2919,-2.3045,-2.279,-2.2902,-2.3102,-2.3102,-2.3265,-2.3392,-2.3414,-2.3414,-2.3414,-2.3414,-2.3414,-2.3414,-2.3414,-2.3414,-2.3522,-2.3774,-2.3588,-2.3414,-2.3414,-2.3392,-2.3392,-2.3414,-2.3392,-2.3392,-2.3392,-2.3392,-2.3392,-2.3369,-2.3188,-2.307,-2.2995,-2.2659,-2.246,-2.2394,-2.2338,-2.231,-2.231,-2.231,-2.231,-2.2381,-2.2654,-2.2862,-2.3691,-2.3932,-2.3979,-2.3962,-2.4414,-2.4823,-2.4801,-2.5271,-2.5703,-2.5703,-2.5703,-2.5701,-2.5701,-2.5702,-2.5702,-2.5702,-2.4707,-2.4062,-2.4374,-2.388,0.0,0.0,0.0,0.0,-2.5467,-2.5503,-2.5511,-2.5511,-2.5415,-2.5284,-2.5065,-2.5006,-2.4879,-2.466,-2.4596,-2.4462,-2.4266,-2.3795,-2.3463,-2.3223,-2.3126,-2.3095,-2.3095,-2.3095,-2.3095,-2.3095,-2.3095,-2.3095,-2.3095,-2.2952,-2.285,-2.2816,-2.2632,-2.2542,-2.2487,-2.2659,-2.2712,-2.2712,-2.2712,-2.2712,-2.2712,-2.2712,-2.2712,-2.2712,-2.2712,-2.2764,-2.285,-2.2927,-2.3045,-2.3126,-2.3146,-2.3224,-2.3312,-2.3312,-2.3364,-2.3392,-2.3392,-2.3392,-2.3364,-2.3212,-2.3206,-2.314,-2.2968,-2.3359,-2.3631,-2.3544,-2.361,-2.354,-2.3236,-2.3318,-2.3392,-2.3392,-2.3392,-2.3477,-2.3649,-2.35,-2.3392,-2.3392,-2.3206,-2.307,-2.2995,-2.2712,-2.2525,-2.246,-2.2432,-2.2432,-2.2432,-2.2432,-2.2405,-2.1508,-2.1753,-2.1967,-2.2783,-2.3026,-2.3054,-2.3054,-2.3753,-2.4408,-2.4408,-2.5072,-2.5657,-2.5657,-2.5654,-2.5668,-2.562,-2.5648,-2.5654,-2.5654,-2.4916,-2.449,-2.4824,-2.4588,-2.4524,0.0,0.0,0.0,-2.5465,-2.5498,-2.5476,-2.5423,-2.5378,-2.5264,-2.5043,-2.4975,-2.4874,-2.4707,-2.4663,-2.4462,-2.4153,-2.3707,-2.3365,-2.3095,-2.3045,-2.2977,-2.2995,-2.2919,-2.2893,-2.2893,-2.2893,-2.2893,-2.285,-2.2738,-2.2659,-2.2605,-2.246,-2.2377,-2.2366,-2.2426,-2.2535,-2.2605,-2.2544,-2.2588,-2.2712,-2.2712,-2.2712,-2.2712,-2.2712,-2.2764,-2.2868,-2.2944,-2.3045,-2.3102,-2.3146,-2.317,-2.317,-2.317,-2.317,-2.317,-2.317,-2.317,-2.3098,-2.2977,-2.3045,-2.302,-2.2738,-2.3242,-2.3584,-2.3335,-2.3518,-2.3518,-2.3126,-2.3289,-2.3387,-2.3312,-2.3364,-2.3522,-2.3795,-2.3544,-2.3437,-2.3544,-2.3253,-2.307,-2.2995,-2.2738,-2.2569,-2.2515,-2.2515,-2.2515,-2.2515,-2.2515,-2.2487,-2.1313,-2.1527,-2.1707,-2.2528,-2.2765,-2.2816,-2.2855,-2.3624,-2.4347,-2.4386,-2.5027,-2.559,-2.559,-2.56,-2.5582,-2.5517,-2.555,-2.5616,-2.5616,-2.489,-2.4692,0.0,0.0,0.0,0.0,0.0,0.0,-2.5515,0.0,-2.544,-2.5322,-2.5182,-2.5037,-2.4915,-2.4779,-2.4707,-2.4707,-2.4698,-2.441,-2.3896,-2.362,-2.3365,-2.3077,-2.2893,-2.2816,-2.279,-2.2596,-2.2515,-2.2515,-2.2515,-2.2515,-2.2515,-2.247,-2.2487,-2.247,-2.2405,-2.2377,-2.2349,-2.2101,-2.2215,-2.247,-2.2265,-2.2446,-2.2712,-2.2712,-2.2712,-2.2712,-2.2712,-2.2893,-2.302,-2.2764,-2.2893,-2.302,-2.2764,-2.2712,-2.2712,-2.2712,-2.2712,-2.2712,-2.2712,-2.2712,-2.2712,-2.2712,-2.2919,-2.2977,-2.2738,-2.3098,-2.3294,-2.3102,-2.3265,-2.3318,-2.3102,-2.3265,-2.3318,-2.3102,-2.3289,-2.3522,-2.3756,-2.3544,-2.3522,-2.3774,-2.3348,-2.307,-2.302,-2.2738,-2.2579,-2.2515,-2.2515,-2.2515,-2.2515,-2.2515,-2.2515,-1.967,-1.9287,-1.8861,-1.907,-1.9609,-2.0254,-2.0914,-2.2256,-2.3532,-2.4131,-2.4929,-2.5532,-2.5532,-2.557,0.0,-2.5589,-2.5626,0.0,-2.5666,-2.5478,0.0,-2.5663,0.0,-2.5468,-2.5684,-2.5697,0.0,0.0,-2.5535,-2.5485,-2.544,-2.5322,-2.5182,-2.5049,-2.4929,-2.4808,-2.4707,-2.4561,-2.4284,-2.3896,-2.3689,-2.3399,-2.3077,-2.2893,-2.2816,-2.279,-2.2596,-2.2515,-2.2515,-2.2515,-2.2515,-2.247,-2.2271,-2.2198,-2.2198,-2.2169,-2.2169,-2.2169,-2.2153,-2.2354,-2.2569,-2.2508,-2.2668,-2.2868,-2.2868,-2.2816,-2.2764,-2.2764,-2.279,-2.279,-2.2712,-2.2764,-2.279,-2.2712,-2.2712,-2.2712,-2.2712,-2.2712,-2.2712,-2.2712,-2.2712,-2.2712,-2.2712,-2.2764,-2.279,-2.2712,-2.296,-2.3102,-2.2825,-2.3146,-2.3248,-2.285,-2.317,-2.3318,-2.3102,-2.3289,-2.3414,-2.35,-2.3437,-2.3414,-2.35,-2.3236,-2.3095,-2.3052,-2.2816,-2.2659,-2.2659,-2.2659,-2.2659,-2.2659,-2.2659,-2.2605,-1.859,-1.8152,-1.7761,-1.7785,-1.8428,-1.9278,-2.016,-2.1688,-2.319,-2.4038,-2.4826,-2.5394,-2.5447,-2.5434,-2.5434,0.0,0.0,0.0,-2.557,-2.5593,-2.5618,0.0,-2.568,0.0,-2.5703,-2.5702,-2.567,0.0,-2.5537,-2.5479,-2.5415,-2.5303,-2.5149,-2.5031,-2.4888,-2.4749,-2.461,-2.4476,-2.4211,-2.3816,-2.3671,-2.3405,-2.3077,-2.2893,-2.2764,-2.2659,0.0,-2.2287,-2.2175,-2.2175,-2.2175,-2.2175,-2.2044,-2.1969,-2.1969,-2.1969,-2.1969,-2.1998,-2.2124,-2.2326,-2.2552,-2.2517,-2.2651,-2.2868,-2.2868,-2.2816,-2.2764,-2.2764,-2.2738,-2.2712,-2.2712,-2.2712,-2.2712,-2.2712,-2.2712,-2.2712,-2.2712,-2.2712,-2.2712,-2.2712,-2.2712,-2.2712,-2.2712,-2.2816,-2.2842,-2.2712,-2.2944,-2.3003,-2.2738,-2.3122,-2.3271,-2.2902,-2.3194,-2.3271,-2.2952,-2.314,-2.3265,-2.3265,-2.3146,-2.3146,-2.3265,-2.3035,-2.2902,-2.2902,-2.279,-2.2712,-2.2712,-2.2712,-2.2712,-2.2712,-2.2712,-2.2659,-1.7798,-1.751,-1.7407,-1.7587,-1.823,-1.9107,-2.0215,-2.1729,-2.3164,-2.4127,-2.4782,-2.5226,-2.5329,-2.5245,-2.5207,-2.5264,0.0,-2.5395,-2.5403,-2.5454,-2.5517,-2.5582,-2.5646,-2.5681,-2.5681,-2.5683,-2.568,-2.5616,-2.5547,-2.5453,-2.5341,-2.5182,-2.5024,-2.4874,-2.4764,-2.4645,-2.4495,-2.4425,-2.4155,-2.3732,-2.3628,-2.3422,-2.3119,-2.2868,-2.2659,-2.247,0.0,0.0,-2.1797,-2.1797,-2.1797,-2.1797,-2.1797,-2.1797,-2.1781,-2.184,-2.184,-2.1869,-2.2039,-2.2271,-2.247,-2.2456,-2.2607,-2.2816,-2.2816,-2.2764,-2.2712,-2.2712,-2.2712,-2.2712,-2.2712,-2.2712,-2.2712,-2.2712,-2.2712,-2.2712,-2.2712,-2.2712,-2.2712,-2.2712,-2.2712,-2.2712,-2.2712,-2.2876,-2.297,-2.2738,-2.2893,-2.2952,-2.2738,-2.3049,-2.3242,-2.3052,-2.3194,-2.3129,-2.2721,-2.2902,-2.3045,-2.3045,-2.2842,-2.2816,-2.3045,-2.2816,-2.2712,-2.2712,-2.2712,-2.2712,-2.2712,-2.2712,-2.2685,-2.2685,-2.2685,-2.2659,-1.6794,-1.6237,-1.5805,-1.6546,-1.7337,-1.8523,-2.0773,-2.2079,0.0,-2.4656,-2.5045,-2.5096,-2.5012,-2.5003,-2.5075,-2.5207,-2.528,-2.5352,-2.548,-2.5498,-2.5496,0.0,-2.5586,-2.5615,-2.5627,-2.568,0.0,0.0,0.0,-2.5546,-2.5476,-2.5224,-2.4994,-2.4734,-2.4723,-2.4645,-2.4495,-2.4374,-2.4173,-2.3858,-2.3638,-2.343,-2.3241,-2.2764,-2.2525,-2.2487,0.0,0.0,-2.1797,-2.1797,-2.1797,-2.1797,-2.1797,-2.1797,-2.1811,-2.1998,-2.2039,-2.2068,-2.2136,-2.2192,-2.2292,-2.2571,-2.2799,-2.2952,-2.2893,-2.2842,-2.279,-2.279,-2.2738,-2.2712,-2.2712,-2.2712,-2.2712,-2.2712,-2.2712,-2.2712,-2.2712,-2.2712,-2.2712,-2.2712,-2.2712,-2.2712,-2.2712,-2.2738,-2.2764,-2.2712,-2.2738,-2.2764,-2.2712,-2.2773,-2.2799,-2.2764,-2.2799,-2.2799,-2.2712,-2.2738,-2.2764,-2.2764,-2.2738,-2.2712,-2.2764,-2.2712,-2.2712,-2.2712,-2.2712,-2.2712,-2.2712,-2.2712,-2.2659,-2.2623,-2.2623,-2.2579,-1.6003,-1.5459,-1.5311,-1.6215,-1.7414,-1.8927,-2.1023,0.0,0.0,-2.4889,-2.5037,-2.4981,-2.4915,-2.4883,-2.4885,-2.5022,-2.5116,-2.538,-2.5909,-2.5666,-2.5628,-2.6074,-2.5774,-2.5559,0.0,-2.5629,0.0,0.0,0.0,0.0,-2.5499,-2.5245,-2.5,-2.4804,-2.4753,-2.4594,-2.441,-2.4339,-2.4134,-2.3789,-2.3589,-2.3448,-2.3289,-2.297,-2.2712,-2.2487,-2.226,0.0,-2.1797,-2.1797,-2.1797,-2.1797,-2.1797,-2.1797,-2.1811,-2.1911,-2.1899,-2.1869,-2.1998,-2.1982,-2.1936,-2.2215,-2.2354,-2.2446,-2.2554,-2.2554,-2.2527,-2.2694,-2.2712,-2.2712,-2.2712,-2.2712,-2.2712,-2.2712,-2.2712,-2.2712,-2.2712,-2.2738,-2.2764,-2.2764,-2.279,-2.279,-2.2764,-2.2764,-2.2764,-2.2764,-2.2712,-2.2712,-2.2764,-2.2712,-2.2712,-2.2712,-2.2712,-2.2712,-2.2712,-2.2712,-2.2712,-2.2712,-2.2712,-2.2712,-2.2712,-2.2712,-2.2712,-2.2712,-2.2712,-2.2712,-2.2712,-2.2712,-2.2659,-2.2605,-2.2605,-2.2542,-1.5754,-1.5297,-1.5472,-1.6444,-1.7848,-1.9454,-2.1317,-2.2939,-2.4225,-2.4884,-2.4942,-2.4847,-2.4818,-2.4719,-2.4707,0.0,-2.4955,-2.5329,-2.6269,-2.5946,-2.5878,0.0,-2.6125,0.0,-2.5593,0.0,0.0,0.0,0.0,0.0,-2.546,-2.5226,-2.5037,-2.4902,-2.461,-2.4409,-2.4339,-2.4137,-2.3949,-2.3725,-2.3567,-2.3448,-2.3289,-2.307,-2.2816,-2.2487,-2.2388,0.0,0.0,-2.1797,-2.1797,-2.1797,-2.1797,-2.1797,-2.1781,-2.1738,-2.1648,-2.1603,-2.1675,-2.1628,-2.1568,-2.1675,-2.1811,-2.194,-2.2192,-2.2248,-2.2265,-2.2615,-2.2712,-2.2712,-2.2712,-2.2712,-2.2712,-2.2712,-2.2712,-2.2738,-2.2738,-2.279,-2.2816,-2.2816,-2.285,-2.2876,-2.2842,-2.2816,-2.2816,-2.2816,-2.2764,-2.2738,-2.2764,-2.2738,-2.2712,-2.2712,-2.2712,-2.2712,-2.2712,-2.2712,-2.2712,-2.2712,-2.2712,-2.2712,-2.2712,-2.2712,-2.2712,-2.2712,-2.2712,-2.2712,-2.2712,-2.2712,-2.2659,-2.2605,-2.2605,-2.247,-1.6589,-1.6103,-1.627,-1.7399,-1.8294,-1.9532,-2.1951,0.0,-2.3995,-2.4605,-2.4738,-2.4676,-2.4566,-2.4534,-2.4566,-2.4707,-2.4738,-2.5139,-2.6244,-2.635,-2.6389,-2.6582,0.0,0.0,-2.5585,0.0,0.0,0.0,0.0,0.0,0.0,-2.5182,-2.5037,-2.4902,-2.4063,-2.3896,-2.4478,-2.3635,-2.3437,-2.3876,-2.3634,-2.3448,-2.3289,-2.279,-2.2525,-2.2487,0.0,0.0,0.0,-2.1797,-2.1797,-2.1797,-2.1797,-2.1797,-2.1751,-2.1464,-2.145,-2.1542,-2.1214,-2.1182,-2.1309,-2.1214,-2.1509,-2.194,-2.2153,-2.2192,-2.2265,-2.2615,-2.2712,-2.2712,-2.2712,-2.2712,-2.2712,-2.279,-2.279,-2.2816,-2.2868,-2.2893,-2.2893,-2.2893,-2.2893,-2.2893,-2.2893,-2.2893,-2.2868,-2.2816,-2.279,-2.2764,-2.2712,-2.2712,-2.2712,-2.2712,-2.2712,-2.2712,-2.2712,-2.2712,-2.2712,-2.2712,-2.2712,-2.2712,-2.2712,-2.2712,-2.2712,-2.2712,-2.2712,-2.2712,-2.2712,-2.2712,-2.2659,-2.2605,-2.2605,-2.2371,-1.7861,-1.7202,-1.7175,-1.864,-1.962,-2.075,-2.2752,-2.3866,-2.4511,-2.4678,-2.4707,-2.466,-2.4515,-2.45,-2.4517,-2.4566,-2.4645,-2.5035,-2.5977,-2.6162,-2.6288,-2.6462,-2.6469,0.0,0.0,0.0,0.0,0.0,0.0,0.0,0.0,-2.5103,-2.4968,-2.4902,-2.3988,-2.3771,-2.4374,-2.3063,-2.285,-2.3768,-2.3106,-2.2962,-2.3289,-2.2868,-2.2605,-2.2487,0.0,0.0,0.0,-2.1797,-2.1797,-2.1797,-2.1797,-2.1797,-2.1751,-2.1433,-2.1261,-2.1214,-2.1071,-2.0991,-2.1023,-2.1151,-2.1309,-2.1448,-2.1615,-2.1675,-2.1735,-2.2073,-2.2158,-2.2158,-2.2158,-2.2298,-2.2419,-2.2483,-2.2651,-2.2816,-2.2893,-2.2944,-2.297,-2.297,-2.297,-2.2944,-2.2919,-2.2868,-2.2842,-2.2816,-2.2764,-2.2738,-2.2764,-2.2712,-2.2712,-2.2712,-2.2712,-2.2712,-2.2712,-2.2712,-2.2712,-2.2712,-2.2712,-2.2712,-2.2712,-2.2712,-2.2712,-2.2712,-2.2712,-2.2712,-2.2712,-2.2712,-2.2561,-2.2281,-2.2281,-2.2084,-1.9438,-1.8759,-1.8645,-1.9903,-2.0814,-2.1803,-2.3218,-2.4214,-2.479,-2.4676,-2.4629,-2.4615,-2.4517,-2.45,-2.45,-2.45,-2.4582,-2.5035,-2.6132,-2.6378,-2.6593,0.0,0.0,0.0,0.0,0.0,0.0,0.0,0.0,0.0,0.0,-2.5012,-2.4902,-2.4902,-2.3959,-2.3612,-2.4004,-2.2771,-2.2557,-2.3343,-2.2887,-2.2828,-2.3144,-2.2842,-2.2605,-2.2371,0.0,0.0,0.0,-2.1797,-2.1721,-2.1648,-2.1648,-2.1601,-2.1448,-2.1103,-2.0926,-2.0845,-2.0764,-2.0795,-2.0827,-2.1087,-2.1119,-2.1103,-2.1151,-2.1214,-2.1371,-2.1708,-2.184,-2.1869,-2.1869,-2.2027,-2.2254,-2.2292,-2.2544,-2.279,-2.2842,-2.2902,-2.2977,-2.2952,-2.297,-2.297,-2.2919,-2.2868,-2.2816,-2.2816,-2.2764,-2.2738,-2.2764,-2.2738,-2.2712,-2.2712,-2.2712,-2.2712,-2.2712,-2.2712,-2.2712,-2.2712,-2.2712,-2.2712,-2.2712,-2.2712,-2.2712,-2.2712,-2.2712,-2.2712,-2.2712,-2.2588,-2.2409,-2.2124,-2.1994,-2.1748,-2.1365,-2.0872,-2.0821,-2.1107,-2.1683,-2.2412,-2.3218,-2.4076,-2.466,-2.4534,-2.45,-2.45,-2.45,-2.45,-2.45,-2.45,-2.45,-2.5127,-2.6923,-2.7201,-2.7533,0.0,0.0,0.0,0.0,0.0,0.0,0.0,0.0,0.0,0.0,-2.4962,-2.4902,-2.4902,-2.387,-2.3303,-2.3297,-2.2958,-2.2699,-2.252,-2.3173,-2.3247,-2.2816,-2.2596,-2.2371,0.0,0.0,0.0,0.0,-2.1797,-2.1601,-2.1325,-2.1325,-2.1087,-2.0761,-2.0361,-2.0326,-2.0494,-2.0292,-2.0462,-2.0794,-2.0794,-2.0925,-2.1055,-2.086,-2.1023,-2.1371,-2.1708,-2.1899,-2.1998,-2.1998,-2.2147,-2.231,-2.2377,-2.2552,-2.2712,-2.2712,-2.2868,-2.2995,-2.2902,-2.2893,-2.2893,-2.2893,-2.2893,-2.2893,-2.2816,-2.2816,-2.279,-2.2712,-2.2712,-2.2712,-2.2712,-2.2712,-2.2712,-2.2712,-2.2712,-2.2712,-2.2712,-2.2712,-2.2712,-2.2712,-2.2712,-2.2712,-2.2712,-2.2712,-2.2712,-2.2712,-2.2364,-2.2192,-2.2192,-2.179,-2.1354,-2.2853,-2.2234,-2.1878,-2.2424,-2.2824,-2.3299,-2.411,-2.4504,-2.4692,-2.4663,-2.4566,-2.45,-2.45,-2.45,-2.4685,-2.5224,-2.5317,0.0,-2.6841,0.0,0.0,-2.7805,-2.7532,0.0,0.0,0.0,0.0,0.0,0.0,0.0,0.0,-2.5049,-2.4936,-2.4764,-2.3811,-2.3254,-2.3151,-2.239,-2.2152,-2.2512,-2.2482,-2.2641,-2.2902,-2.2446,0.0,0.0,0.0,0.0,0.0,-2.1198,-2.1039,-2.0958,-2.0958,-2.0893,-2.0761,-2.0361,-2.0243,-2.0292,-2.0208,-2.0277,-2.0429,-2.0712,-2.0728,-2.0613,-2.0545,-2.0613,-2.0745,-2.0926,-2.1182,-2.1417,-2.1509,-2.1631,-2.1781,-2.1853,-2.2153,-2.2429,-2.2483,-2.2712,-2.2944,-2.2902,-2.285,-2.2842,-2.2842,-2.279,-2.2764,-2.2738,-2.2738,-2.2712,-2.2712,-2.2712,-2.2712,-2.2712,-2.2712,-2.2712,-2.2712,-2.2712,-2.2712,-2.2712,-2.2712,-2.2712,-2.2712,-2.2712,-2.2712,-2.2712,-2.249,-2.2364,-2.2364,-2.1965,-2.1642,-2.1383,-2.1007,-2.0745,-2.4117,-2.3652,-2.3323,-2.3769,-2.3963,-2.4143,-2.461,-2.4707,-2.4692,-2.4629,-2.4549,-2.45,-2.45,-2.45,-2.4667,-2.5169,-2.5503,0.0,0.0,0.0,0.0,-2.79,0.0,0.0,0.0,0.0,0.0,0.0,0.0,0.0,0.0,0.0,-2.5,-2.4779,-2.4108,-2.3535,-2.3101,-2.274,-2.2533,-2.2506,-2.2536,-2.2676,-2.2841,-2.2419,0.0,0.0,0.0,0.0,0.0,-2.0925,-2.0712,-2.0563,-2.0563,-2.0512,-2.0342,-2.0085,-2.0015,-2.0015,-2.0015,-2.005,-2.017,-2.0361,-2.0342,-2.022,-2.01,-2.0135,-2.0289,-2.0462,-2.0712,-2.0942,-2.1151,-2.1324,-2.1448,-2.1462,-2.1761,-2.2034,-2.2062,-2.2292,-2.2544,-2.2607,-2.2517,-2.2436,-2.2571,-2.248,-2.2381,-2.249,-2.2426,-2.2453,-2.2659,-2.2588,-2.2561,-2.2685,-2.2712,-2.2712,-2.2712,-2.2712,-2.2712,-2.2712,-2.2712,-2.2712,-2.2712,-2.2712,-2.2642,-2.2517,-2.232,-2.2136,-2.2039,-2.1658,-2.1229,-2.0763,-2.0561,-2.0441,0.0,-2.4975,-2.493,-2.4994,-2.4955,-2.4874,-2.4734,-2.4704,0.0,-2.4532,-2.4517,-2.4518,-2.4574,-2.4537,-2.4537,-2.4648,-2.5299,0.0,0.0,-2.7935,0.0,0.0,0.0,0.0,0.0,0.0,0.0,0.0,0.0,0.0,0.0,0.0,-2.4965,-2.4915,-2.4654,-2.4053,-2.3101,-2.3749,-2.3573,-2.2527,-2.3169,-2.3188,-2.2617,-2.2517,0.0,0.0,0.0,0.0,0.0,-2.086,-2.0512,-2.0174,-2.0174,-1.998,-1.969,-1.969,-1.969,-1.969,-1.969,-1.9797,-1.9955,-1.9854,-1.9854,-1.9884,-1.9566,-1.9726,-2.0061,-2.0273,-2.0462,-2.0663,-2.099,-2.1199,-2.1294,-2.1294,-2.1432,-2.1568,-2.1493,-2.1705,-2.194,-2.2153,-2.1969,-2.1899,-2.2124,-2.1969,-2.1882,-2.2136,-2.1969,-2.1986,-2.2561,-2.2364,-2.2292,-2.2588,-2.2642,-2.2659,-2.2632,-2.2685,-2.2712,-2.2712,-2.2712,-2.2712,-2.2712,-2.2685,-2.2517,-2.222,-2.2164,-2.1982,-2.1691,-2.1324,-2.0893,-2.0388,-2.0388,-2.0354,-2.5341,0.0,-2.5022,-2.4955,-2.4994,-2.5031,0.0,-2.4847,-2.4804,-2.4676,-2.4566,-2.4685,-2.5299,-2.4908,-2.4908,-2.6135,0.0,0.0,-2.7773,0.0,0.0,0.0,0.0,0.0,0.0,0.0,0.0,0.0,0.0,0.0,0.0,0.0,-2.435,-2.4883,-2.4749,-2.4153,-2.3101,-2.3749,-2.3593,-2.2648,-2.3115,-2.3135,-2.2746,-2.2466,0.0,0.0,0.0,0.0,-2.086,-2.0239,-1.9889,-1.9818,-1.9818,-1.9782,-1.969,-1.969,-1.969,-1.969,-1.969,-1.9726,-1.9762,-1.9669,-1.956,-1.945,-1.9362,-1.9669,-1.999,-1.9945,-2.0243,-2.0663,-2.0909,-2.1055,-2.1167,-2.1167,-2.1277,-2.1371,-2.134,-2.1601,-2.184,-2.1882,-2.184,-2.1811,-2.1882,-2.184,-2.1811,-2.1882,-2.184,-2.184,-2.1986,-2.1957,-2.1928,-2.1986,-2.2198,-2.2237,-2.2015,-2.2426,-2.2712,-2.2712,-2.2712,-2.2712,-2.2712,-2.2446,-2.2292,-2.2192,-2.1688,-2.1245,-2.0811,-2.0712,-2.0561,-2.0304,-2.0388,-2.0354,-2.5425,-2.5313,-2.5194,-2.5024,-2.5056,-2.5037,-2.4847,-2.4823,-2.4779,-2.4629,-2.4549,-2.463,-2.5076,-2.5094,-2.5336,0.0,-2.6972,0.0,0.0,0.0,0.0,0.0,0.0,0.0,0.0,0.0,0.0,0.0,0.0,0.0,0.0,0.0,-2.3594,-2.4378,-2.4242,-2.3982,-2.3638,-2.4026,-2.3815,-2.3088,-2.3244,-2.3098,-2.2704,-2.2429,0.0,0.0,0.0,0.0,-2.0761,-1.9995,-1.969,-1.969,-1.969,-1.969,-1.969,-1.969,-1.969,-1.969,-1.969,-1.969,-1.9632,-1.9538,-1.9413,-1.9302,-1.9228,-1.9413,-1.9581,-1.966,-1.998,-2.0376,-2.0613,-2.0811,-2.0958,-2.0958,-2.1023,-2.1055,-2.1055,-2.1198,-2.1386,-2.1556,-2.1448,-2.1417,-2.1631,-2.157,-2.1509,-2.1631,-2.154,-2.1556,-2.1751,-2.1678,-2.1648,-2.1781,-2.194,-2.1969,-2.1811,-2.2101,-2.2287,-2.2287,-2.2409,-2.2409,-2.2287,-2.2237,-2.2079,-2.1777,-2.1276,-2.0893,-2.061,-2.061,-2.0509,-2.0392,-2.0388,-2.0388,-2.5385,-2.5395,-2.536,-2.5171,-2.5138,-2.508,-2.4823,-2.4764,-2.4723,-2.4566,-2.4534,-2.4571,-2.4648,-2.5243,0.0,0.0,0.0,0.0,0.0,0.0,0.0,0.0,0.0,0.0,0.0,0.0,0.0,0.0,0.0,0.0,0.0,0.0,0.0,-2.3596,-2.3528,-2.3702,-2.4118,-2.4229,-2.4057,-2.3594,-2.3412,-2.3084,-2.2634,-2.2409,0.0,0.0,0.0,0.0,-2.0761,-1.9995,-1.969,-1.969,-1.969,-1.969,-1.969,-1.969,-1.969,-1.969,-1.969,-1.9632,-1.9538,-1.9465,-1.9339,-1.9139,-1.9064,-1.9026,-1.9064,-1.9258,-1.9654,-1.999,-2.0204,-2.0478,-2.0662,-2.0662,-2.0662,-2.0695,-2.0761,-2.0745,-2.086,-2.1214,-2.1055,-2.0974,-2.137,-2.123,-2.1183,-2.137,-2.1198,-2.1183,-2.1601,-2.1402,-2.134,-2.1601,-2.1691,-2.1691,-2.1661,-2.1691,-2.1691,-2.1661,-2.201,-2.2068,-2.1811,-2.1953,-2.1807,-2.1214,-2.0925,-2.0744,-2.0693,-2.0693,-2.061,-2.0494,-2.0423,-2.0354,-2.5228,-2.5404,-2.5378,-2.5284,-2.5264,-2.5233,-2.5061,-2.5037,-2.4981,-2.4719,-2.466,-2.4834,-2.541,-2.5615,-2.5931,0.0,0.0,0.0,0.0,0.0,0.0,0.0,0.0,0.0,0.0,0.0,0.0,0.0,0.0,0.0,0.0,0.0,0.0,-2.2756,-2.3181,-2.3375,-2.3288,-2.3952,-2.4191,-2.3996,-2.3638,-2.3242,-2.2848,-2.2529,-2.2192,0.0,0.0,-2.0794,-2.0761,-1.9995,-1.969,-1.969,-1.969,-1.969,-1.969,-1.969,-1.969,-1.969,-1.969,-1.9581,-1.9465,-1.9538,-1.9139,-1.863,-1.8669,-1.863,-1.8592,-1.8655,-1.9109,-1.9603,-1.9639,-1.9869,-2.0131,-2.0131,-2.0131,-2.0235,-2.0579,-2.053,-2.0646,-2.1183,-2.1167,-2.1071,-2.1151,-2.1119,-2.1055,-2.0925,-2.086,-2.086,-2.0942,-2.0925,-2.0893,-2.0958,-2.1214,-2.1277,-2.099,-2.1214,-2.1246,-2.0974,-2.1731,-2.2068,-2.1811,-2.157,-2.1261,-2.0893,-2.0777,-2.0726,-2.0693,-2.061,-2.0509,-2.0423,-2.0388,-2.02,-2.5181,-2.5395,-2.5378,-2.5322,-2.5243,-2.516,-2.5012,-2.4987,-2.4968,-2.4832,-2.4749,-2.482,0.0,0.0,-2.6948,-2.831,0.0,0.0,0.0,0.0,0.0,0.0,0.0,0.0,0.0,0.0,0.0,0.0,0.0,0.0,0.0,0.0,0.0,0.0,-2.2538,-2.2999,-2.327,-2.395,-2.4134,-2.3768,-2.344,-2.3116,-2.279,-2.2446,-2.2073,-2.1645,0.0,-2.0712,-2.0429,-1.9925,-1.969,-1.969,-1.969,-1.969,-1.969,-1.969,-1.969,-1.969,-1.9669,-1.9611,-1.9465,-1.9139,-1.8822,-1.8553,-1.8553,-1.85,-1.8553,-1.8745,-1.9147,-1.9479,-1.9479,-1.9762,-2.0005,-2.0005,-2.0025,-2.015,-2.053,-2.0512,-2.0579,-2.1087,-2.1055,-2.0958,-2.1087,-2.1103,-2.1071,-2.0974,-2.0958,-2.0925,-2.0827,-2.0794,-2.0794,-2.0794,-2.0925,-2.0958,-2.0827,-2.0958,-2.1055,-2.1055,-2.1308,-2.1477,-2.1526,-2.1214,-2.0925,-2.0744,-2.0726,-2.0644,-2.061,-2.0527,-2.0376,-2.012,-2.01,-1.9788,-2.52,-2.5415,-2.5378,-2.5341,-2.5224,-2.5164,-2.5279,-2.5311,-2.5279,-2.5272,-2.5163,0.0,0.0,-2.5966,0.0,-2.899,0.0,0.0,0.0,0.0,0.0,0.0,0.0,0.0,0.0,0.0,0.0,0.0,0.0,0.0,0.0,0.0,0.0,0.0,-2.1945,-2.2582,-2.3048,-2.3857,-2.4018,-2.3531,-2.3236,-2.296,-2.2685,-2.2349,-2.1932,-2.1493,-2.1087,-2.0614,-2.0174,-1.9854,-1.969,-1.969,-1.969,-1.969,-1.969,-1.969,-1.9705,-1.9654,-1.9574,-1.9465,-1.9302,-1.8784,-1.8461,-1.8266,-1.8305,-1.8344,-1.8422,-1.8822,-1.9161,-1.942,-1.942,-1.9617,-1.9827,-1.9812,-1.9833,-2.003,-2.0429,-2.0444,-2.0527,-2.1055,-2.099,-2.0925,-2.1071,-2.1103,-2.1087,-2.1023,-2.1023,-2.0958,-2.0827,-2.0794,-2.0794,-2.0794,-2.0794,-2.0794,-2.0794,-2.0794,-2.0893,-2.1151,-2.0925,-2.0925,-2.1294,-2.0925,-2.0711,-2.0693,-2.066,-2.061,-2.0494,-2.0494,-2.0258,-1.9864,-1.9823,-1.9449,-2.5252,-2.5459,-2.5406,-2.5387,-2.5341,-2.5485,-2.6311,-2.6484,-2.6433,-2.6319,-2.6282,0.0,0.0,-2.5421,-2.6287,0.0,0.0,0.0,0.0,0.0,0.0,0.0,0.0,0.0,0.0,0.0,0.0,0.0,0.0,0.0,0.0,0.0,0.0,0.0,0.0,-2.22,-2.2017,-2.3401,-2.3976,-2.3671,-2.3283,-2.296,-2.2685,-2.2349,-2.1932,-2.1493,-2.1087,-2.0614,-2.0174,-1.9854,-1.969,-1.969,-1.969,-1.969,-1.969,-1.9647,-1.9611,-1.9574,-1.9465,-1.9101,-1.8669,-1.863,-1.7988,-1.7352,-1.776,-1.7828,-1.7948,-1.8422,-1.8822,-1.9139,-1.9139,-1.925,-1.9339,-1.9176,-1.925,-1.9508,-2.0104,-2.015,-2.027,-2.1119,-2.1151,-2.1087,-2.1103,-2.1103,-2.1023,-2.086,-2.0827,-2.0827,-2.0794,-2.0794,-2.0794,-2.0794,-2.0794,-2.0794,-2.0794,-2.0794,-2.0794,-2.0827,-2.0744,-2.0876,-2.1277,-2.0794,-2.0577,-2.0693,-2.0577,-2.0527,-2.0494,-2.0441,-2.0185,-1.9823,-1.9747,-1.9295,-2.5073,-2.5809,-2.6081,-2.5485,-2.5726,-2.6063,-2.5851,-2.5723,-2.568,-2.5702,-2.5658,0.0,0.0,0.0,-2.6568,0.0,0.0,0.0,0.0,0.0,0.0,0.0,0.0,0.0,0.0,0.0,0.0,0.0,0.0,0.0,0.0,0.0,0.0,0.0,0.0,-2.2398,-2.2088,-2.3557,-2.402,-2.3437,-2.3218,-2.296,-2.2685,-2.2394,-2.202,-2.1538,-2.1134,-2.0698,-2.0227,-1.9839,-1.969,-1.969,-1.969,-1.969,-1.969,-1.9654,-1.9472,-1.9147,-1.9064,-1.8669,-1.8187,-1.7828,-1.7475,-1.7282,-1.7679,-1.7787,-1.7948,-1.8669,-1.8988,-1.9101,-1.9176,-1.9176,-1.9176,-1.9213,-1.9265,-1.9472,-2.007,-1.9995,-2.008,-2.099,-2.0893,-2.0646,-2.0646,-2.0794,-2.0761,-2.0357,-2.046,-2.0545,-2.0545,-2.0392,-2.0357,-2.0512,-2.0545,-2.0628,-2.0794,-2.0794,-2.0794,-2.0794,-2.0777,-2.0827,-2.099,-2.0512,-2.0357,-2.0577,-1.998,-1.9803,-1.9995,-1.9726,-1.9384,-1.8983,-1.8959,-1.863,-2.5054,-2.5848,-2.613,-2.5495,-2.5726,-2.5983,-2.5437,-2.5444,-2.5603,-2.5696,-2.5384,-2.5251,-2.5767,0.0,0.0,0.0,0.0,0.0,0.0,0.0,0.0,0.0,0.0,0.0,0.0,0.0,0.0,0.0,0.0,0.0,0.0,0.0,0.0,0.0,0.0,0.0,-2.2149,-2.3331,-2.3727,-2.3364,-2.317,-2.291,-2.2552,-2.2248,-2.1869,-2.143,-2.1023,-2.0614,-2.0124,-1.9854,-1.9726,-1.969,-1.969,-1.9617,-1.9508,-1.9442,-1.9132,-1.8664,-1.8577,-1.8187,-1.7679,-1.7323,-1.7199,-1.7282,-1.7679,-1.7908,-1.8187,-1.8898,-1.9101,-1.9139,-1.9265,-1.9228,-1.9176,-1.9228,-1.9265,-1.9435,-1.9874,-1.9803,-1.9854,-2.0628,-2.0494,-2.0289,-2.0289,-2.0426,-2.0426,-2.0076,-2.0166,-2.0289,-2.0289,-2.0131,-2.0061,-2.0254,-2.0289,-2.0357,-2.0527,-2.0561,-2.0561,-2.0561,-2.0561,-2.0595,-2.0679,-2.017,-1.9995,-2.017,-1.9515,-1.9258,-1.9508,-1.925,-1.8898,-1.85,-1.85,-1.8254,-2.526,-2.5459,-2.5406,-2.5406,-2.5253,-2.5138,-2.5264,-2.5956,-2.6582,-2.6601,-2.5787,-2.5096,-2.5096,-2.5096,0.0,0.0,0.0,0.0,0.0,0.0,0.0,0.0,0.0,0.0,0.0,0.0,0.0,0.0,0.0,0.0,0.0,0.0,0.0,0.0,0.0,0.0,-2.2002,-2.2609,-2.3115,-2.3504,-2.323,-2.2807,-2.2282,-2.1945,-2.1554,-2.1102,-2.0747,-2.0292,-1.9797,-1.9797,-1.9762,-1.969,-1.969,-1.9472,-1.9101,-1.8945,-1.8574,-1.8106,-1.8028,-1.7639,-1.7199,-1.7199,-1.7199,-1.7282,-1.7679,-1.8108,-1.8592,-1.8988,-1.9101,-1.9101,-1.9265,-1.9302,-1.9265,-1.9139,-1.9176,-1.9339,-1.9457,-1.9479,-1.9603,-1.9919,-2.0005,-2.0005,-2.0005,-2.0005,-2.0005,-2.0005,-2.0005,-2.0005,-2.0005,-2.0005,-2.0005,-2.0005,-2.0005,-2.0005,-2.0005,-2.0005,-2.0005,-2.0005,-2.0005,-2.0131,-2.0376,-1.9767,-1.9442,-1.9479,-1.9236,-1.9101,-1.9101,-1.9101,-1.886,-1.85,-1.85,-1.8293,-2.5208,-2.5857,-2.6148,-2.5485,-2.5755,-2.6004,-2.5437,-2.534,-2.5437,0.0,-2.5384,-2.5203,-2.5126,0.0,0.0,0.0,0.0,0.0,0.0,0.0,0.0,0.0,0.0,0.0,0.0,0.0,0.0,0.0,0.0,0.0,0.0,0.0,0.0,0.0,0.0,0.0,-2.221,-2.3412,-2.3916,-2.371,-2.3486,-2.3109,-2.2552,-2.2061,-2.1721,-2.1554,-2.0878,-2.0481,-2.0258,-1.9889,-1.9545,-1.9288,-1.9288,-1.9011,-1.8655,-1.8655,-1.8291,-1.7814,-1.7679,-1.7323,-1.6833,-1.6735,-1.6735,-1.6778,-1.7227,-1.7475,-1.7679,-1.8068,-1.8422,-1.863,-1.8305,-1.85,-1.8822,-1.9139,-1.9176,-1.9213,-1.9457,-1.9347,-1.9347,-1.9884,-1.9797,-1.9639,-1.9639,-1.9848,-1.9848,-1.9435,-1.9545,-1.9581,-1.9398,-1.9545,-1.9639,-1.9639,-1.9639,-1.9726,-1.997,-2.0005,-2.0005,-2.0005,-1.9762,-1.9797,-2.0096,-1.9551,-1.9332,-1.9479,-1.895,-1.8697,-1.8669,-1.8305,-1.8082,-1.8069,-1.7841,-1.7733,-2.5208,-2.5807,-2.6041,-2.5466,-2.5726,-2.5967,-2.5358,0.0,0.0,0.0,-2.5243,-2.5293,-2.5192,0.0,0.0,0.0,0.0,0.0,0.0,0.0,0.0,0.0,0.0,0.0,0.0,0.0,0.0,0.0,0.0,0.0,0.0,0.0,0.0,0.0,0.0,0.0,-2.2224,-2.3002,-2.3493,-2.3671,-2.3445,-2.3042,-2.249,-2.2113,-2.1823,-2.157,-2.073,-2.0342,-2.0273,-1.9854,-1.9472,-1.9101,-1.9288,-1.8898,-1.8226,-1.8422,-1.8028,-1.7393,-1.7323,-1.7002,-1.6675,-1.6522,-1.665,-1.682,-1.7115,-1.7323,-1.7475,-1.772,-1.7988,-1.8147,-1.7868,-1.7988,-1.8305,-1.863,-1.863,-1.8693,-1.9035,-1.8974,-1.9011,-1.9545,-1.9472,-1.9347,-1.9347,-1.9508,-1.956,-1.9228,-1.9325,-1.9347,-1.9139,-1.9236,-1.9347,-1.9347,-1.9347,-1.9347,-1.9384,-1.9384,-1.931,-1.9147,-1.8907,-1.8869,-1.9072,-1.8884,-1.8846,-1.8907,-1.8266,-1.7882,-1.7868,-1.7557,-1.7365,-1.7323,-1.7144,-1.706,-2.5271,-2.5456,-2.5421,-2.5395,-2.5407,-2.5341,-2.516,-2.5203,-2.5303,-2.5274,0.0,-2.5303,0.0,0.0,0.0,0.0,0.0,0.0,0.0,0.0,0.0,0.0,0.0,0.0,0.0,0.0,0.0,0.0,0.0,0.0,0.0,0.0,0.0,0.0,0.0,0.0,-2.2243,-2.206,-2.2502,0.0,-2.3283,-2.2849,-2.2275,-2.2164,-2.179,-2.1166,-2.0357,-2.0005,-1.997,-1.9762,-1.9472,-1.9139,-1.9493,-1.8921,-1.7908,-1.8305,-1.7868,-1.7115,-1.696,-1.6846,-1.6761,-1.6565,-1.6778,-1.7157,-1.7157,-1.7393,-1.7666,-1.7666,-1.7707,-1.776,-1.7707,-1.7707,-1.7747,-1.7707,-1.7747,-1.7908,-1.8383,-1.85,-1.863,-1.9026,-1.9101,-1.9101,-1.9101,-1.9101,-1.9139,-1.9302,-1.9302,-1.9265,-1.9139,-1.9101,-1.9101,-1.9101,-1.9064,-1.8898,-1.8539,-1.8461,-1.8266,-1.7828,-1.772,-1.7707,-1.7666,-1.7975,-1.8055,-1.7908,-1.7366,-1.7018,-1.6876,-1.6876,-1.6735,-1.6509,-1.6423,-1.6281,-2.5371,-2.5456,-2.5468,-2.5416,-2.5361,-2.5313,-2.5264,-2.5274,-2.5264,-2.516,-2.5233,-2.5303,0.0,0.0,0.0,0.0,0.0,0.0,0.0,0.0,0.0,0.0,0.0,0.0,0.0,0.0,0.0,0.0,0.0,0.0,0.0,0.0,0.0,0.0,0.0,-2.2554,-2.3429,-2.3739,-2.3985,0.0,-2.3646,-2.3236,-2.2875,-2.1919,-2.1134,-2.0494,-2.0166,-2.0005,-1.997,-1.9762,-1.9472,-1.9101,-1.9213,-1.886,-1.8305,-1.8028,-1.8028,-1.8028,-1.7199,-1.7073,-1.7227,-1.668,-1.6565,-1.665,-1.665,-1.6723,-1.6765,-1.6765,-1.706,-1.7227,-1.6892,-1.706,-1.7227,-1.685,-1.7297,-1.7908,-1.8383,-1.85,-1.863,-1.9026,-1.9101,-1.9139,-1.9228,-1.9265,-1.9302,-1.9376,-1.9376,-1.9339,-1.9265,-1.9265,-1.9213,-1.9101,-1.8822,-1.8592,-1.85,-1.8147,-1.7854,-1.7639,-1.7707,-1.7666,-1.7558,-1.7598,-1.7571,-1.7393,-1.7407,-1.7242,-1.6876,-1.6595,-1.6441,-1.6484,-1.602,-1.58,-2.5453,-2.5464,-2.5476,-2.5425,0.0,-2.5351,-2.5313,-2.5303,-2.5274,-2.5222,-2.4946,0.0,0.0,0.0,0.0,0.0,0.0,0.0,0.0,0.0,0.0,0.0,0.0,0.0,0.0,0.0,0.0,0.0,0.0,0.0,0.0,0.0,0.0,0.0,-2.1787,-2.2499,-2.3176,-2.3585,-2.384,-2.3905,-2.3236,-2.2686,-2.2231,-2.1582,-2.1023,-2.0527,-2.0185,-2.0025,-2.0005,-1.9797,-1.9508,-1.9101,-1.9325,-1.9011,-1.8461,-1.8226,-1.8108,-1.7988,-1.7199,-1.7002,-1.7031,-1.665,-1.6522,-1.6522,-1.6522,-1.6522,-1.6522,-1.6522,-1.6693,-1.682,-1.6565,-1.668,-1.682,-1.6565,-1.685,-1.7297,-1.7787,-1.7868,-1.8028,-1.8461,-1.8592,-1.863,-1.876,-1.8798,-1.8936,-1.9339,-1.9228,-1.9139,-1.9302,-1.9064,-1.8898,-1.8822,-1.863,-1.8344,-1.7908,-1.7787,-1.7544,-1.7076,-1.6951,-1.6866,-1.6769,-1.6727,-1.6782,-1.6976,-1.6824,-1.6667,-1.6362,-1.6163,-1.5932,-1.5732,-1.5389,-1.5028,-2.5498,-2.5499,-2.5476,-2.5404,-2.5397,0.0,-2.5322,-2.5313,-2.5303,-2.5303,0.0,0.0,0.0,0.0,0.0,0.0,0.0,0.0,0.0,0.0,0.0,0.0,0.0,0.0,0.0,0.0,0.0,0.0,0.0,0.0,0.0,0.0,-2.0543,-2.0636,-2.1281,-2.2002,-2.2762,-2.297,-2.318,-2.3407,-2.2521,-2.1802,-2.1308,-2.1245,-2.1055,-2.0761,-2.0308,-2.0045,-1.997,-1.9762,-1.9472,-1.9139,-1.9384,-1.9087,-1.85,-1.8422,-1.8147,-1.776,-1.7115,-1.6876,-1.6791,-1.6565,-1.6522,-1.6522,-1.6522,-1.6423,-1.638,-1.6479,-1.6423,-1.638,-1.6479,-1.6522,-1.6522,-1.6522,-1.6522,-1.665,-1.7115,-1.7199,-1.7393,-1.7908,-1.8028,-1.8082,-1.8189,-1.8279,-1.8539,-1.9101,-1.8936,-1.8784,-1.9026,-1.8707,-1.8383,-1.8383,-1.8305,-1.7988,-1.7282,-1.7352,-1.7144,-1.6392,-1.6132,-1.5988,-1.5957,-1.5881,-1.6044,-1.6552,-1.6163,-1.5913,-1.5792,-1.5703,-1.5424,-1.4915,-1.472,-1.4107,-2.551,-2.5452,-2.5401,0.0,-2.5406,-2.5398,0.0,0.0,-2.5303,0.0,0.0,0.0,0.0,0.0,0.0,0.0,0.0,0.0,0.0,0.0,0.0,0.0,0.0,0.0,0.0,0.0,0.0,0.0,0.0,0.0,0.0,-2.0508,-2.0831,-2.1601,-2.1653,-2.2391,-2.3878,-2.3531,-2.3254,-2.3049,-2.1849,-2.1278,-2.1308,-2.1007,-2.086,-2.0761,-2.0308,-2.0045,-1.9955,-1.9479,-1.9221,-1.9064,-1.8784,-1.8577,-1.8461,-1.8028,-1.8108,-1.8266,-1.724,-1.7115,-1.731,-1.668,-1.6522,-1.6522,-1.6522,-1.6194,-1.5976,-1.638,-1.6207,-1.5976,-1.638,-1.6522,-1.6522,-1.6522,-1.6522,-1.665,-1.7115,-1.7256,-1.7449,-1.7908,-1.8147,-1.8279,-1.8279,-1.8397,-1.8461,-1.8461,-1.8383,-1.8305,-1.8187,-1.8108,-1.8028,-1.7908,-1.7598,-1.7323,-1.7199,-1.682,-1.6479,-1.6231,-1.6088,-1.5957,-1.5836,-1.5792,-1.5836,-1.5913,-1.5881,-1.5836,-1.5792,-1.5379,-1.5153,-1.5062,-1.4071,-1.3457,-2.5532,-2.5473,-2.5452,0.0,-2.5404,-2.5406,-2.5398,0.0,-2.5351,0.0,0.0,0.0,0.0,0.0,0.0,0.0,0.0,0.0,0.0,0.0,0.0,0.0,0.0,0.0,0.0,0.0,0.0,0.0,0.0,0.0,-2.0542,-2.0527,-2.0681,-2.1067,-2.1484,-2.1991,-2.2592,-2.3025,-2.3048,-2.266,-2.1558,-2.1144,-2.1291,-2.056,-2.0333,-2.0494,-2.0065,-1.9797,-1.9639,-1.9184,-1.8884,-1.8745,-1.8592,-1.85,-1.8422,-1.7948,-1.7908,-1.7948,-1.7157,-1.696,-1.6989,-1.6607,-1.6522,-1.6436,-1.6194,-1.5964,-1.5832,-1.6064,-1.5976,-1.592,-1.638,-1.6522,-1.6522,-1.6522,-1.6565,-1.6663,-1.6876,-1.6947,-1.706,-1.7393,-1.776,-1.7988,-1.7948,-1.7988,-1.8054,-1.8159,-1.7921,-1.7814,-1.7988,-1.776,-1.7516,-1.7475,-1.7323,-1.7073,-1.682,-1.668,-1.6522,-1.6244,-1.6013,-1.5881,-1.5792,-1.5792,-1.5792,-1.5792,-1.5792,-1.5748,-1.5647,-1.5424,-1.5051,-1.449,-1.3826,-1.3112,-2.5574,0.0,-2.5568,-2.5744,-2.5607,-2.5488,0.0,0.0,0.0,0.0,0.0,0.0,0.0,0.0,0.0,0.0,0.0,0.0,0.0,0.0,0.0,0.0,0.0,0.0,0.0,0.0,0.0,0.0,0.0,0.0,-2.0591,-2.0544,-2.0527,-2.0497,-2.1084,-2.1407,-2.1387,-2.2276,-2.2589,-2.2272,-2.1437,-2.1139,-2.1275,-2.0432,-2.0048,-2.0008,-1.9535,-1.9235,-1.9118,-1.8677,-1.8436,-1.8305,-1.8226,-1.8187,-1.8108,-1.7787,-1.7639,-1.7516,-1.7086,-1.6846,-1.6718,-1.6436,-1.638,-1.638,-1.58,-1.5611,-1.5668,-1.5788,-1.57,-1.5756,-1.6337,-1.6522,-1.6466,-1.6337,-1.6392,-1.6491,-1.6577,-1.662,-1.662,-1.6637,-1.6951,-1.7229,-1.7105,-1.7105,-1.7229,-1.7544,-1.7216,-1.7105,-1.7571,-1.7269,-1.7031,-1.7031,-1.7031,-1.6892,-1.6522,-1.6637,-1.6509,-1.61,-1.5969,-1.5792,-1.5468,-1.5603,-1.5603,-1.5379,-1.5379,-1.5379,-1.5367,-1.5175,-1.4617,-1.3779,-1.3341,-1.2521,-2.5685,-2.5645,0.0,-2.6611,-2.6193,-2.58,0.0,0.0,0.0,0.0,0.0,0.0,0.0,0.0,0.0,0.0,0.0,0.0,0.0,0.0,0.0,0.0,0.0,0.0,0.0,0.0,0.0,0.0,0.0,0.0,-2.0591,-2.0594,-2.0565,-2.0497,-2.0533,-2.0834,-2.1396,-2.1577,-2.1786,-2.2018,-2.1393,-2.1178,-2.1308,-2.091,-2.0236,-1.9317,-1.8591,-1.8329,-1.842,-1.7964,-1.78,-1.7787,-1.7434,-1.7282,-1.7282,-1.724,-1.724,-1.7199,-1.696,-1.6876,-1.6778,-1.6064,-1.6151,-1.6337,-1.5412,-1.5153,-1.5232,-1.5656,-1.549,-1.5367,-1.625,-1.6522,-1.638,-1.592,-1.5832,-1.592,-1.6269,-1.6312,-1.6182,-1.5764,-1.572,-1.5676,-1.5555,-1.5511,-1.5656,-1.6076,-1.6076,-1.6207,-1.6509,-1.6552,-1.6522,-1.6522,-1.6522,-1.6522,-1.6522,-1.6436,-1.6163,-1.568,-1.5969,-1.5691,-1.4593,-1.504,-1.4994,-1.4316,-1.4269,-1.4501,-1.4949,-1.4247,-1.3684,-1.3218,-1.2286,-1.1534,-2.5696,0.0,0.0,-2.5999,-2.5831,-2.5658,-2.5906,0.0,0.0,0.0,0.0,0.0,0.0,0.0,0.0,0.0,0.0,0.0,0.0,0.0,0.0,0.0,0.0,0.0,0.0,0.0,0.0,0.0,0.0,0.0,-2.0533,-2.0588,-2.0562,-2.0507,-2.0501,-2.0788,-2.1383,-2.0672,-2.077,-2.1675,-2.0643,-2.0233,-2.0351,-1.9471,-1.8731,-1.8171,-1.7281,-1.7227,-1.7753,-1.7438,-1.7232,-1.7154,-1.7206,-1.7199,-1.7199,-1.7199,-1.7199,-1.7115,-1.6582,-1.6595,-1.6748,-1.568,-1.5844,-1.625,-1.5051,-1.5051,-1.5534,-1.5412,-1.5445,-1.5712,-1.6337,-1.6522,-1.638,-1.6032,-1.5988,-1.5944,-1.5478,-1.57,-1.5908,-1.5632,-1.5828,-1.5872,-1.5433,-1.5543,-1.5632,-1.5457,-1.5412,-1.5457,-1.5591,-1.5591,-1.5591,-1.5591,-1.5591,-1.5591,-1.5591,-1.5501,-1.5355,-1.5175,-1.522,-1.5028,-1.4674,-1.4674,-1.4525,-1.4258,-1.3789,-1.3742,-1.4071,-1.3637,-1.3006,-1.2159,-1.1475,-1.0661,-2.5683,0.0,0.0,0.0,0.0,-2.5684,-2.5926,0.0,0.0,0.0,0.0,0.0,0.0,0.0,0.0,0.0,0.0,0.0,0.0,0.0,0.0,0.0,0.0,0.0,0.0,0.0,0.0,0.0,0.0,0.0,-2.0531,-2.0588,-2.056,-2.0508,-2.043,-2.0584,-2.0993,-2.0339,-2.0363,-2.109,-2.036,-1.998,-1.9875,-1.897,-1.8216,-1.7578,-1.6927,-1.6832,-1.7045,-1.6923,-1.6849,-1.6831,-1.701,-1.7139,-1.7199,-1.7199,-1.7199,-1.7102,-1.6373,-1.6441,-1.6705,-1.5322,-1.5501,-1.5976,-1.4593,-1.4812,-1.549,-1.5187,-1.5445,-1.592,-1.638,-1.638,-1.6163,-1.5768,-1.5691,-1.5501,-1.4777,-1.5085,-1.549,-1.5107,-1.5386,-1.5508,-1.4835,-1.5096,-1.5287,-1.4915,-1.488,-1.4926,-1.5062,-1.5108,-1.5108,-1.5108,-1.5108,-1.5108,-1.5108,-1.5006,-1.4915,-1.4731,-1.4755,-1.4571,-1.4154,-1.3909,-1.3663,-1.3437,-1.2657,-1.2365,-1.2511,-1.2511,-1.2061,-1.1116,-1.0618,-0.9791,0.0,0.0,0.0,0.0,0.0,0.0,0.0,0.0,0.0,0.0,0.0,0.0,0.0,0.0,0.0,0.0,0.0,0.0,0.0,0.0,0.0,0.0,0.0,0.0,0.0,0.0,0.0,0.0,0.0,-2.0457,-2.059,-2.0593,-2.056,-2.0508,-2.0321,-2.0222,-2.0216,-2.0592,-2.0615,-2.0296,-2.0596,-2.0425,-1.985,-1.9574,-1.8752,-1.759,-1.7562,-1.7116,-1.6388,-1.6402,-1.6553,-1.6775,-1.6777,-1.697,-1.7173,-1.7199,-1.7199,-1.7102,-1.6343,-1.6441,-1.6607,-1.4915,-1.4994,-1.5522,-1.4025,-1.4316,-1.5108,-1.5108,-1.5445,-1.592,-1.638,-1.6151,-1.5656,-1.5187,-1.4903,-1.4571,-1.4104,-1.4569,-1.488,-1.415,-1.4408,-1.4479,-1.3752,-1.4046,-1.4373,-1.4373,-1.4373,-1.4558,-1.5017,-1.5062,-1.5062,-1.5062,-1.5062,-1.5062,-1.5062,-1.5062,-1.4834,-1.4373,-1.4628,-1.4247,-1.3007,-1.2851,-1.2404,-1.1728,-1.083,-1.0415,-1.0364,-1.0914,-1.0813,-1.0167,-0.971,-0.8876,-2.555,0.0,0.0,0.0,0.0,0.0,0.0,0.0,0.0,0.0,0.0,0.0,0.0,0.0,0.0,0.0,0.0,0.0,0.0,0.0,0.0,0.0,0.0,0.0,0.0,0.0,0.0,0.0,-2.0374,-2.0413,-2.0453,-2.0558,-2.056,-2.0508,-2.0443,-2.0421,-2.0414,-2.0332,-2.0164,-1.9945,-1.9675,-1.9324,-1.887,-1.8404,-1.7814,-1.7155,-1.6945,-1.6608,-1.6142,-1.6304,-1.6351,-1.6338,-1.6678,-1.6859,-1.6943,-1.7111,-1.7157,-1.6905,-1.5908,-1.5888,-1.5988,-1.4351,-1.4501,-1.5096,-1.3941,-1.4525,-1.5534,-1.5198,-1.568,-1.625,-1.6064,-1.5876,-1.5611,-1.4789,-1.4628,-1.4571,-1.4104,-1.4291,-1.4605,-1.4536,-1.4536,-1.4501,-1.4233,-1.428,-1.428,-1.3905,-1.38,-1.3858,-1.3988,-1.4035,-1.4035,-1.4035,-1.4035,-1.4035,-1.4035,-1.3684,-1.3389,-1.3256,-1.289,-1.2492,-1.2169,-1.1832,-1.1543,-1.136,-1.0728,-1.0312,-1.0115,-1.0064,-0.9806,-0.9287,-0.8296,-0.7343,-2.5593,-2.5537,-2.5551,0.0,0.0,0.0,0.0,-2.5703,0.0,0.0,0.0,0.0,0.0,0.0,0.0,0.0,0.0,0.0,0.0,0.0,0.0,0.0,0.0,0.0,0.0,0.0,0.0,0.0,-2.034,-2.0376,-2.04,-2.05,-2.0549,-2.05,-2.0507,-2.0506,-2.0492,-2.0231,-2.0041,-1.9925,-1.9354,-1.8939,-1.8607,-1.8097,-1.7614,-1.7167,-1.6892,-1.6528,-1.6166,-1.6203,-1.6184,-1.6139,-1.6534,-1.6739,-1.6819,-1.71,-1.7115,-1.6863,-1.5788,-1.5656,-1.5712,-1.4118,-1.4129,-1.4651,-1.3847,-1.4351,-1.522,-1.5096,-1.5635,-1.6151,-1.5876,-1.5656,-1.5311,-1.4605,-1.4536,-1.4571,-1.4104,-1.4104,-1.4291,-1.4408,-1.4674,-1.4823,-1.4466,-1.4558,-1.4512,-1.3999,-1.3752,-1.3621,-1.3621,-1.3621,-1.3621,-1.3621,-1.3621,-1.3621,-1.3621,-1.3112,-1.2812,-1.2812,-1.2129,-1.1683,-1.1692,-1.1091,-1.0795,-1.0804,-1.002,-0.9332,-0.8698,-0.9131,-0.8922,-0.8072,-0.6907,-0.61,-2.5693,-2.5543,-2.5618,-2.5586,0.0,0.0,-2.5598,-2.5625,0.0,0.0,0.0,0.0,0.0,0.0,0.0,0.0,0.0,0.0,0.0,0.0,0.0,0.0,0.0,0.0,0.0,0.0,-2.1178,-2.0366,-2.0296,-2.0332,-2.0395,-2.0457,-2.0494,-2.0494,-2.0497,-2.0487,-2.0508,-2.0266,-2.0113,-2.0083,-1.9481,-1.906,-1.8836,-1.8383,-1.7924,-1.7486,-1.7175,-1.6799,-1.6409,-1.6108,-1.6025,-1.6105,-1.6422,-1.6656,-1.6815,-1.7155,-1.7157,-1.682,-1.5832,-1.5656,-1.568,-1.4165,-1.3999,-1.428,-1.3763,-1.4035,-1.4651,-1.5096,-1.5534,-1.5788,-1.5756,-1.5355,-1.488,-1.4419,-1.4455,-1.4536,-1.4104,-1.402,-1.402,-1.402,-1.4743,-1.5153,-1.4512,-1.4697,-1.4777,-1.4373,-1.38,-1.342,-1.3515,-1.3467,-1.342,-1.342,-1.342,-1.342,-1.342,-1.2919,-1.2618,-1.2618,-1.1841,-1.141,-1.1318,-1.0533,-1.0123,-1.0146,-0.904,-0.7978,-0.6853,-0.8125,-0.8072,-0.6691,-0.5714,-0.5222,-2.5581,-2.5882,-2.6292,-2.5615,0.0,0.0,-2.5036,-2.5114,0.0,0.0,0.0,0.0,0.0,0.0,0.0,0.0,0.0,0.0,0.0,0.0,0.0,0.0,0.0,0.0,0.0,0.0,-2.1229,-2.0354,-2.0308,-2.0332,-2.0395,-2.0409,-2.0413,-2.0413,-2.041,-2.0444,-2.05,-2.0387,-2.025,-2.0109,-1.9869,-1.9551,-1.9188,-1.8873,-1.8498,-1.8007,-1.7478,-1.702,-1.6606,-1.6188,-1.593,-1.5921,-1.6688,-1.6831,-1.6656,-1.7395,-1.7352,-1.6833,-1.617,-1.5656,-1.5142,-1.4466,-1.4326,-1.428,-1.3763,-1.4479,-1.5611,-1.6076,-1.602,-1.57,-1.5322,-1.488,-1.4419,-1.3894,-1.3952,-1.4104,-1.402,-1.4104,-1.414,-1.402,-1.4337,-1.4558,-1.4419,-1.4118,-1.3862,-1.3752,-1.2929,-1.2491,-1.2919,-1.2589,-1.2295,-1.2295,-1.2295,-1.2295,-1.2295,-1.1859,-1.151,-1.1342,-1.0702,-1.0249,-1.0154,-0.988,-0.9718,-0.9718,-0.8495,-0.7433,-0.6524,-0.7063,-0.674,-0.5605,-0.516,-0.467,-2.5534,-2.564,-2.5906,-2.5498,0.0,0.0,0.0,0.0,-2.5313,0.0,0.0,0.0,0.0,0.0,0.0,0.0,0.0,0.0,0.0,0.0,0.0,0.0,0.0,0.0,0.0,0.0,-2.2531,-2.1609,-2.1132,-2.0906,-2.0946,-2.0571,-2.0355,-2.0355,-2.0386,-2.0434,-2.0499,-2.0464,-2.0402,-2.0303,-2.0099,-1.982,-1.9436,-1.9206,-1.8838,-1.8366,-1.7927,-1.7422,-1.688,-1.6502,-1.6133,-1.583,-1.6378,-1.6479,-1.638,-1.7022,-1.7037,-1.663,-1.6213,-1.58,-1.5355,-1.4915,-1.4743,-1.4651,-1.414,-1.4674,-1.5534,-1.602,-1.5976,-1.57,-1.5232,-1.4743,-1.428,-1.3716,-1.3821,-1.402,-1.402,-1.4057,-1.3999,-1.3668,-1.38,-1.3988,-1.3978,-1.4025,-1.3826,-1.3283,-1.2716,-1.2384,-1.2384,-1.2147,-1.2008,-1.2008,-1.2008,-1.2008,-1.2008,-1.146,-1.1108,-1.1006,-1.03,-0.9732,-0.9413,-0.9249,-0.8988,-0.8567,-0.77,-0.6789,-0.5873,-0.5819,-0.5546,-0.5003,-0.434,-0.3788,0.0,0.0,0.0,0.0,0.0,-2.5717,0.0,0.0,0.0,-2.5057,0.0,0.0,0.0,0.0,0.0,0.0,0.0,0.0,0.0,0.0,0.0,0.0,0.0,0.0,0.0,0.0,-2.3632,-2.2893,-2.2147,-2.1754,-2.1754,-2.0981,-2.0534,-2.0534,-2.0435,-2.0415,-2.0457,-2.0477,-2.0486,-2.0471,-2.0245,-1.9972,-1.9684,-1.95,-1.9179,-1.8771,-1.8425,-1.7851,-1.7164,-1.6888,-1.6385,-1.583,-1.6122,-1.6166,-1.6149,-1.6597,-1.6646,-1.6468,-1.6183,-1.5978,-1.5744,-1.5367,-1.5153,-1.5062,-1.4777,-1.4915,-1.5322,-1.5788,-1.5876,-1.57,-1.5232,-1.4743,-1.428,-1.3716,-1.3773,-1.3973,-1.3973,-1.401,-1.3962,-1.3552,-1.3552,-1.3552,-1.3341,-1.3637,-1.3637,-1.2783,-1.2463,-1.2236,-1.1909,-1.176,-1.171,-1.171,-1.171,-1.171,-1.166,-1.1049,-1.0694,-1.0753,-0.9932,-0.9309,-0.8981,-0.8771,-0.8196,-0.7354,-0.6848,-0.614,-0.5171,-0.4732,-0.4453,-0.4343,-0.335,-0.2852,0.0,0.0,0.0,0.0,-2.6247,0.0,0.0,0.0,-2.4772,-2.3458,0.0,0.0,0.0,0.0,0.0,0.0,0.0,0.0,0.0,0.0,0.0,0.0,0.0,0.0,0.0,0.0,0.0,-2.29,-2.2728,-2.2639,-2.2639,-2.1839,-2.1358,-2.1358,-2.0681,-2.0313,-2.0326,-2.0375,-2.041,-2.0409,-2.0313,-2.0192,-2.0044,-1.9828,-1.9656,-1.9452,-1.8751,-1.8104,-1.7518,-1.7188,-1.6554,-1.5858,-1.6412,-1.6402,-1.6157,-1.6755,-1.6766,-1.6507,-1.6402,-1.6124,-1.5788,-1.5744,-1.5445,-1.5153,-1.5534,-1.5656,-1.5844,-1.6293,-1.6107,-1.57,-1.5232,-1.4743,-1.428,-1.3716,-1.3716,-1.3821,-1.3821,-1.414,-1.4408,-1.4351,-1.3967,-1.3294,-1.2344,-1.2246,-1.2246,-1.2098,-1.1309,-1.0913,-1.1318,-1.0964,-1.0667,-1.0667,-1.0667,-1.0616,-1.0514,-0.994,-0.9681,-0.9895,-0.8876,-0.8448,-0.8823,-0.8296,-0.7605,-0.6696,-0.6195,-0.5487,-0.457,-0.4024,-0.358,-0.3241,-0.246,-0.2014,0.0,0.0,0.0,0.0,0.0,0.0,-2.4839,0.0,-2.4809,0.0,0.0,0.0,0.0,0.0,0.0,0.0,0.0,0.0,0.0,0.0,0.0,0.0,0.0,0.0,0.0,0.0,0.0,0.0,0.0,-2.3609,-2.3609,-2.275,-2.2023,-2.1523,-2.1177,-2.0766,-2.0302,-2.0381,-2.0392,-2.0406,-2.0416,-2.0357,-2.0204,-2.005,-1.9881,-1.9701,-1.9213,-1.8646,-1.798,-1.763,-1.7077,-1.6436,-1.6414,-1.6203,-1.5933,-1.5981,-1.6137,-1.6257,-1.6048,-1.6086,-1.6207,-1.6207,-1.5712,-1.5187,-1.5656,-1.5788,-1.5832,-1.6064,-1.5964,-1.57,-1.5232,-1.4743,-1.428,-1.3716,-1.3716,-1.3821,-1.3821,-1.3952,-1.3988,-1.3684,-1.3341,-1.2812,-1.176,-1.181,-1.181,-1.1217,-1.1015,-1.0922,-1.0871,-1.0624,-1.0522,-1.0522,-1.0522,-1.0308,-0.9836,-0.9472,-0.9152,-0.8823,-0.7978,-0.761,-0.7824,-0.7079,-0.649,-0.6168,-0.5504,-0.4728,-0.379,-0.3294,-0.2627,-0.1843,-0.1733,-0.151,-2.5303,0.0,0.0,0.0,0.0,0.0,0.0,0.0,0.0,0.0,0.0,0.0,0.0,0.0,0.0,0.0,0.0,0.0,0.0,0.0,0.0,0.0,0.0,0.0,0.0,0.0,0.0,0.0,0.0,0.0,-2.4525,-2.3678,-2.278,-2.1889,-2.162,-2.1105,-2.0314,-2.0371,-2.0406,-2.0396,-2.0479,-2.0434,-2.0299,-2.0156,-2.0,-1.9804,-1.9518,-1.9008,-1.8332,-1.8066,-1.7518,-1.6876,-1.6459,-1.6136,-1.5844,-1.5372,-1.5503,-1.5825,-1.5685,-1.6014,-1.6479,-1.6337,-1.5856,-1.5367,-1.5712,-1.5788,-1.5832,-1.5976,-1.5964,-1.5844,-1.5232,-1.4834,-1.4419,-1.3763,-1.3668,-1.3773,-1.3773,-1.3763,-1.361,-1.3246,-1.2851,-1.2365,-1.1642,-1.166,-1.156,-1.0718,-1.0922,-1.1074,-1.0769,-1.0718,-1.0667,-1.0624,-1.0522,-1.0154,-0.9413,-0.9047,-0.8461,-0.7658,-0.7289,-0.6977,-0.6761,-0.6119,-0.5626,-0.5289,-0.4853,-0.4073,-0.2956,-0.2399,-0.1619,-0.0726,-0.0894,-0.0782,0.0,0.0,0.0,-2.4981,0.0,0.0,0.0,0.0,-2.4734,0.0,0.0,0.0,0.0,0.0,0.0,0.0,0.0,0.0,0.0,0.0,0.0,0.0,0.0,0.0,0.0,0.0,0.0,0.0,0.0,0.0,-2.5356,-2.4602,-2.3732,-2.2802,-2.1947,-2.1119,-2.0312,-2.0369,-2.0398,-2.0395,-2.0466,-2.0425,-2.0294,-2.0161,-2.003,-1.9885,-1.9545,-1.9057,-1.8483,-1.8338,-1.7726,-1.6876,-1.6659,-1.6382,-1.6011,-1.5269,-1.5109,-1.525,-1.5375,-1.5875,-1.6423,-1.5976,-1.5788,-1.5788,-1.5788,-1.5788,-1.5876,-1.6337,-1.6479,-1.625,-1.5322,-1.5108,-1.4823,-1.3847,-1.3621,-1.3621,-1.3621,-1.36,-1.3616,-1.3569,-1.2715,-1.2024,-1.1975,-1.1633,-1.1226,-1.0922,-1.0922,-1.1023,-1.1226,-1.1267,-1.1175,-1.0922,-1.0608,-1.0087,-0.9263,-0.8408,-0.745,-0.6337,-0.6761,-0.6712,-0.5905,-0.5795,-0.5234,-0.4064,-0.4346,-0.3683,-0.2014,-0.1118,-0.0503,-0.0223,0.0168,0.0503,0.0,0.0,-2.5149,-2.5068,0.0,0.0,0.0,0.0,0.0,0.0,0.0,0.0,0.0,0.0,0.0,0.0,0.0,0.0,0.0,0.0,0.0,0.0,0.0,0.0,0.0,0.0,0.0,0.0,0.0,0.0,0.0,-2.5182,-2.43,-2.2777,-2.2485,-2.165,-2.0188,-2.032,-2.0409,-2.0402,-2.0429,-2.0124,-1.9581,-1.9985,-1.9809,-1.9154,-1.8857,-1.8808,-1.8819,-1.7891,-1.7555,-1.7566,-1.6866,-1.6501,-1.6231,-1.5106,-1.4874,-1.5242,-1.5505,-1.5799,-1.6064,-1.6194,-1.5844,-1.5322,-1.5322,-1.5322,-1.5277,-1.504,-1.4994,-1.4892,-1.4593,-1.4258,-1.3931,-1.3658,-1.3621,-1.3621,-1.3621,-1.3304,-1.3054,-1.3054,-1.2218,-1.1543,-1.1543,-1.1108,-1.0718,-1.0675,-1.0769,-1.0761,-1.0336,-1.0549,-1.0454,-0.9829,-0.9614,-0.9138,-0.8302,-0.7348,-0.6603,-0.6232,-0.6228,-0.6119,-0.5795,-0.5011,-0.4625,-0.4746,-0.3569,-0.2736,-0.224,-0.1062,0.0056,0.1006,0.1398,0.151,-2.4447,-2.4271,0.0,0.0,-2.3944,0.0,-2.4105,0.0,0.0,0.0,0.0,0.0,0.0,0.0,0.0,0.0,0.0,0.0,0.0,0.0,0.0,0.0,0.0,0.0,0.0,0.0,-2.5443,-2.5646,0.0,0.0,0.0,0.0,-2.4643,-2.2833,-2.2819,-2.1991,-2.0195,-2.0319,-2.0398,-2.0409,-2.0117,-1.9706,-1.9191,-1.9289,-1.8974,-1.8352,-1.8049,-1.8072,-1.8185,-1.7471,-1.7319,-1.7526,-1.6929,-1.6607,-1.6309,-1.5,-1.4626,-1.4871,-1.5273,-1.5591,-1.585,-1.6361,-1.5856,-1.5153,-1.5277,-1.5096,-1.4789,-1.4501,-1.4582,-1.4674,-1.4316,-1.4118,-1.3941,-1.3658,-1.3621,-1.3621,-1.3621,-1.317,-1.2716,-1.257,-1.185,-1.1226,-1.1074,-1.0726,-1.0522,-1.0624,-1.0769,-1.071,-1.0174,-1.0328,-1.0131,-0.9302,-0.904,-0.8508,-0.7509,-0.6657,-0.6123,-0.6009,-0.5673,-0.5344,-0.5124,-0.4174,-0.3677,-0.3741,-0.2679,-0.19,-0.14,-0.0559,0.0503,0.1621,0.2181,0.2293]},{"header":{"parameterUnit":"m.s-1","parameterCategory":1,"la1":30.6,"la2":29.2853,"lo1":-89.7004,"lo2":-87.6739,"dy":0.0162,"dx":0.0183,"nx":112,"ny":82,"refTime":"2024-07-25T12:00:00:Z","depth":0,"parameterNumber":3,"parameterNumberName":"V-component_of_WINDS"},"data":[0.0,0.0,0.0,0.0,0.0,0.0,0.0,0.0,0.0,0.0,0.0,0.0,0.0,0.0,0.0,0.0,0.0,0.0,0.0,0.0,0.0,0.0,0.0,0.0,0.0,0.0,0.0,0.0,0.0,0.0,0.0,0.0,0.0,0.0,0.0,0.0,0.0,0.0,0.0,0.0,0.0,0.0,0.0,0.0,0.0,0.0,0.0,0.0,0.0,0.0,0.0,0.0,0.0,0.0,0.0,0.0,0.0,0.0,0.0,0.0,0.0,0.0,0.0,0.0,0.0,0.0,0.0,0.0,0.0,0.0,0.0,0.0,0.0,0.0,0.0,0.0,0.0,0.0,0.0,0.0,0.0,0.0,0.0,0.0,0.0,0.0,0.0,0.0,0.0,0.0,0.0,-0.7521,-0.7521,-0.7521,-0.7521,-0.7521,-0.7521,-0.7521,0.0,0.0,0.0,0.0,0.0,0.0,0.0,0.0,0.0,0.0,0.0,0.0,0.0,0.0,0.0,0.0,0.0,0.0,0.0,0.0,0.0,0.0,0.0,0.0,0.0,0.0,0.0,0.0,0.0,0.0,0.0,0.0,0.0,0.0,0.0,0.0,0.0,0.0,0.0,0.0,0.0,0.0,0.0,0.0,0.0,0.0,0.0,0.0,0.0,0.0,0.0,0.0,0.0,0.0,0.0,0.0,0.0,0.0,0.0,0.0,0.0,0.0,0.0,0.0,0.0,0.0,0.0,0.0,0.0,0.0,0.0,0.0,0.0,0.0,0.0,0.0,0.0,0.0,0.0,0.0,0.0,0.0,0.0,0.0,0.0,0.0,0.0,0.0,0.0,0.0,0.0,0.0,0.0,0.0,0.0,0.0,0.0,0.0,0.0,0.0,0.0,0.0,0.0,0.0,-0.7365,-0.7467,-0.7521,-0.7521,-0.7521,-0.7521,-0.7521,-0.7521,0.0,0.0,0.0,0.0,0.0,0.0,0.0,0.0,0.0,0.0,0.0,0.0,0.0,0.0,0.0,0.0,0.0,0.0,0.0,0.0,0.0,0.0,0.0,0.0,0.0,0.0,0.0,0.0,0.0,0.0,0.0,0.0,0.0,0.0,0.0,0.0,0.0,0.0,0.0,0.0,0.0,0.0,0.0,0.0,0.0,0.0,0.0,0.0,0.0,0.0,0.0,0.0,0.0,0.0,0.0,0.0,0.0,0.0,0.0,0.0,0.0,0.0,0.0,0.0,0.0,0.0,0.0,0.0,0.0,0.0,0.0,0.0,0.0,0.0,0.0,0.0,0.0,0.0,0.0,0.0,0.0,0.0,0.0,0.0,0.0,0.0,0.0,0.0,0.0,0.0,0.0,0.0,0.0,0.0,0.0,0.0,0.0,0.0,0.0,0.0,0.0,0.0,0.0,-0.7634,-0.7634,-0.7681,-0.7741,-0.7741,-0.7741,-0.7741,-0.7741,-0.7741,-0.7753,0.0,0.0,0.0,0.0,0.0,0.0,0.0,0.0,0.0,0.0,0.0,0.0,0.0,0.0,0.0,0.0,0.0,0.0,0.0,0.0,0.0,0.0,0.0,0.0,0.0,0.0,0.0,0.0,0.0,0.0,0.0,0.0,0.0,0.0,0.0,0.0,0.0,0.0,0.0,0.0,0.0,0.0,0.0,0.0,0.0,0.0,0.0,0.0,0.0,0.0,0.0,0.0,0.0,0.0,0.0,0.0,0.0,0.0,0.0,0.0,0.0,0.0,0.0,0.0,0.0,0.0,0.0,0.0,0.0,0.0,0.0,0.0,0.0,0.0,0.0,0.0,0.0,0.0,0.0,0.0,0.0,0.0,0.0,0.0,0.0,0.0,0.0,0.0,0.0,0.0,0.0,0.0,0.0,0.0,0.0,0.0,0.0,0.0,0.0,0.0,0.0,0.0,-0.7901,-0.7901,-0.7901,-0.7901,-0.7901,-0.7901,-0.7901,-0.7901,-0.7901,-0.7884,0.0,0.0,0.0,0.0,0.0,0.0,0.0,0.0,0.0,0.0,0.0,0.0,0.0,0.0,0.0,0.0,0.0,0.0,0.0,0.0,0.0,0.0,0.0,0.0,0.0,0.0,0.0,0.0,0.0,0.0,0.0,0.0,0.0,0.0,0.0,0.0,0.0,0.0,0.0,0.0,0.0,0.0,0.0,0.0,0.0,0.0,0.0,0.0,0.0,0.0,0.0,0.0,0.0,0.0,0.0,0.0,0.0,0.0,0.0,0.0,0.0,0.0,0.0,0.0,0.0,0.0,0.0,0.0,0.0,0.0,0.0,0.0,0.0,0.0,0.0,0.0,0.0,0.0,0.0,0.0,0.0,0.0,0.0,0.0,0.0,0.0,0.0,0.0,0.0,0.0,0.0,0.0,0.0,0.0,0.0,0.0,0.0,0.0,0.0,0.0,0.0,0.0,-0.7842,-0.7901,-0.7901,-0.7901,-0.7901,-0.7901,-0.7901,-0.7901,-0.7901,-0.794,0.0,0.0,0.0,0.0,0.0,0.0,0.0,0.0,0.0,0.0,0.0,0.0,0.0,0.0,0.0,0.0,0.0,0.0,0.0,0.0,0.0,0.0,0.0,0.0,0.0,0.0,0.0,0.0,0.0,0.0,0.0,0.0,0.0,0.0,0.0,0.0,0.0,0.0,0.0,0.0,0.0,0.0,0.0,0.0,0.0,0.0,0.0,0.0,0.0,0.0,0.0,0.0,0.0,0.0,0.0,0.0,0.0,0.0,0.0,0.0,0.0,0.0,0.0,0.0,0.0,0.0,0.0,0.0,0.0,0.0,0.0,0.0,0.0,0.0,0.0,0.0,0.0,0.0,0.0,0.0,0.0,0.0,0.0,0.0,0.0,0.0,0.0,0.0,0.0,0.0,0.0,0.0,0.0,0.0,0.0,0.0,0.0,0.0,0.0,0.0,0.0,0.0,-0.7848,-0.7901,0.0,-0.7901,-0.7955,-0.8062,-0.8062,-0.8062,-0.8062,0.0,0.0,0.0,0.0,0.0,0.0,0.0,0.0,0.0,0.0,0.0,0.0,0.0,0.0,0.0,0.0,0.0,0.0,0.0,0.0,0.0,0.0,0.0,0.0,0.0,0.0,0.0,0.0,0.0,0.0,0.0,0.0,0.0,0.0,0.0,0.0,0.0,0.0,0.0,0.0,0.0,0.0,0.0,0.0,0.0,0.0,0.0,0.0,0.0,0.0,0.0,0.0,0.0,0.0,0.0,0.0,0.0,0.0,0.0,0.0,0.0,0.0,0.0,0.0,0.0,0.0,0.0,0.0,0.0,0.0,0.0,0.0,0.0,0.0,0.0,0.0,0.0,0.0,0.0,0.0,0.0,0.0,0.0,0.0,0.0,0.0,0.0,0.0,0.0,0.0,0.0,0.0,0.0,0.0,0.0,0.0,0.0,0.0,0.0,0.0,0.0,0.0,-0.7901,-0.7901,-0.7901,0.0,-0.8008,-0.8062,-0.8268,-0.8427,-0.8427,-0.8268,0.0,0.0,0.0,0.0,0.0,0.0,0.0,0.0,0.0,0.0,0.0,0.0,0.0,0.0,0.0,0.0,0.0,0.0,0.0,0.0,0.0,0.0,0.0,0.0,0.0,0.0,0.0,0.0,0.0,0.0,0.0,0.0,0.0,0.0,0.0,0.0,0.0,0.0,0.0,0.0,0.0,0.0,0.0,0.0,0.0,0.0,0.0,0.0,0.0,0.0,0.0,0.0,0.0,0.0,0.0,0.0,0.0,0.0,0.0,0.0,0.0,0.0,0.0,0.0,0.0,0.0,0.0,0.0,0.0,0.0,0.0,0.0,0.0,0.0,0.0,0.0,0.0,0.0,0.0,0.0,0.0,0.0,0.0,0.0,0.0,0.0,0.0,0.0,0.0,0.0,0.0,0.0,0.0,0.0,0.0,0.0,0.0,0.0,0.0,0.0,0.0,0.0,-0.7901,-0.7901,-0.7955,-0.8168,-0.8221,-0.8268,-0.8368,-0.889,-0.8942,0.0,0.0,0.0,0.0,0.0,0.0,0.0,0.0,0.0,0.0,0.0,0.0,0.0,0.0,0.0,0.0,0.0,0.0,0.0,0.0,0.0,0.0,0.0,0.0,0.0,0.0,0.0,0.0,0.0,0.0,0.0,0.0,0.0,0.0,0.0,0.0,0.0,0.0,0.0,0.0,0.0,0.0,0.0,0.0,0.0,0.0,0.0,0.0,0.0,0.0,0.0,0.0,0.0,0.0,0.0,0.0,0.0,0.0,0.0,0.0,0.0,0.0,0.0,0.0,0.0,0.0,0.0,0.0,0.0,0.0,0.0,0.0,0.0,0.0,0.0,0.0,0.0,0.0,0.0,0.0,0.0,0.0,0.0,0.0,0.0,0.0,0.0,0.0,0.0,0.0,0.0,0.0,0.0,0.0,0.0,0.0,0.0,0.0,0.0,0.0,0.0,0.0,0.0,-0.7901,-0.7901,-0.7955,-0.8168,-0.8221,-0.8187,-0.8184,-0.8616,-0.8777,-0.8414,0.0,0.0,0.0,0.0,0.0,0.0,0.0,0.0,0.0,0.0,0.0,0.0,0.0,0.0,0.0,0.0,0.0,0.0,0.0,0.0,0.0,0.0,0.0,0.0,0.0,0.0,0.0,0.0,0.0,0.0,0.0,0.0,0.0,0.0,0.0,0.0,0.0,0.0,0.0,0.0,0.0,0.0,0.0,0.0,0.0,0.0,0.0,0.0,0.0,0.0,0.0,0.0,0.0,0.0,0.0,0.0,0.0,0.0,0.0,0.0,0.0,0.0,0.0,0.0,0.0,0.0,0.0,0.0,0.0,0.0,0.0,0.0,0.0,0.0,0.0,0.0,0.0,0.0,0.0,0.0,0.0,0.0,0.0,0.0,0.0,0.0,0.0,0.0,0.0,0.0,0.0,0.0,0.0,0.0,0.0,0.0,0.0,0.0,0.0,0.0,0.0,0.0,-0.7901,-0.7901,-0.8008,-0.8268,-0.8268,-0.826,-0.8226,-0.8834,-0.8985,-0.849,0.0,0.0,0.0,0.0,0.0,0.0,0.0,0.0,0.0,0.0,0.0,0.0,0.0,0.0,0.0,0.0,0.0,0.0,0.0,0.0,0.0,0.0,0.0,0.0,0.0,0.0,0.0,0.0,0.0,0.0,0.0,0.0,0.0,0.0,0.0,0.0,0.0,0.0,0.0,0.0,0.0,0.0,0.0,0.0,0.0,0.0,0.0,0.0,0.0,0.0,0.0,0.0,0.0,0.0,0.0,0.0,0.0,0.0,0.0,0.0,0.0,0.0,0.0,0.0,0.0,0.0,0.0,0.0,0.0,0.0,0.0,0.0,0.0,0.0,0.0,0.0,0.0,0.0,0.0,0.0,0.0,0.0,0.0,0.0,0.0,0.0,0.0,0.0,0.0,0.0,0.0,0.0,0.0,0.0,0.0,0.0,0.0,0.0,0.0,0.0,0.0,0.0,-0.7955,-0.7955,-0.8055,-0.8368,-0.8396,-0.8378,-0.8357,-0.9163,-0.9343,-0.8604,0.0,0.0,0.0,0.0,0.0,0.0,0.0,0.0,0.0,0.0,0.0,0.0,0.0,0.0,0.0,0.0,0.0,0.0,0.0,0.0,0.0,0.0,0.0,0.0,0.0,0.0,0.0,0.0,0.0,0.0,0.0,0.0,0.0,0.0,0.0,0.0,0.0,0.0,0.0,0.0,0.0,0.0,0.0,0.0,0.0,0.0,0.0,0.0,0.0,0.0,0.0,0.0,0.0,0.0,0.0,0.0,0.0,0.0,0.0,0.0,-0.5564,0.0,0.0,0.0,0.0,0.0,0.0,0.0,0.0,0.0,0.0,0.0,0.0,0.0,0.0,0.0,0.0,0.0,0.0,0.0,0.0,0.0,0.0,0.0,0.0,0.0,0.0,0.0,0.0,0.0,0.0,0.0,0.0,0.0,0.0,0.0,0.0,0.0,0.0,0.0,0.0,0.0,-0.8115,-0.8215,-0.8368,-0.8521,-0.832,-0.8123,-0.8001,-0.8307,-0.8424,-0.835,-0.8931,0.0,0.0,0.0,0.0,0.0,0.0,0.0,0.0,0.0,0.0,0.0,0.0,0.0,0.0,0.0,0.0,0.0,0.0,0.0,0.0,0.0,0.0,0.0,0.0,0.0,0.0,0.0,0.0,0.0,0.0,0.0,0.0,0.0,0.0,0.0,0.0,0.0,0.0,0.0,0.0,0.0,0.0,0.0,0.0,0.0,0.0,0.0,0.0,0.0,0.0,0.0,0.0,0.0,0.0,0.0,0.0,0.0,0.0,0.0,0.0,-0.6309,0.0,0.0,0.0,0.0,0.0,0.0,0.0,0.0,0.0,0.0,0.0,0.0,0.0,0.0,0.0,0.0,0.0,0.0,0.0,0.0,0.0,0.0,0.0,0.0,0.0,0.0,0.0,0.0,0.0,0.0,0.0,0.0,0.0,0.0,0.0,0.0,0.0,0.0,0.0,0.0,-0.8221,-0.8321,-0.8474,-0.8573,-0.8313,-0.8032,-0.7908,-0.8014,-0.8178,-0.8299,-0.8732,0.0,0.0,0.0,0.0,0.0,0.0,0.0,0.0,0.0,0.0,0.0,0.0,0.0,0.0,0.0,0.0,0.0,0.0,0.0,0.0,0.0,0.0,0.0,0.0,0.0,0.0,0.0,0.0,0.0,0.0,0.0,0.0,0.0,0.0,0.0,0.0,0.0,0.0,0.0,0.0,0.0,0.0,0.0,0.0,0.0,0.0,0.0,0.0,0.0,0.0,0.0,0.0,0.0,0.0,-0.7909,-0.7625,-0.7587,-0.7545,-0.7366,-0.6705,-0.7097,-0.8183,0.0,0.0,0.0,0.0,0.0,0.0,0.0,0.0,0.0,0.0,0.0,0.0,0.0,0.0,0.0,0.0,0.0,0.0,0.0,0.0,0.0,0.0,0.0,0.0,0.0,-0.9189,-0.908,0.0,0.0,0.0,0.0,0.0,0.0,0.0,0.0,0.0,0.0,0.0,0.0,-0.8275,-0.8374,-0.8527,-0.8633,-0.8273,-0.8029,-0.7902,-0.792,-0.7982,-0.8167,-0.8651,-0.9336,0.0,0.0,0.0,0.0,0.0,0.0,0.0,0.0,0.0,0.0,0.0,0.0,0.0,0.0,0.0,0.0,0.0,0.0,0.0,0.0,0.0,0.0,0.0,0.0,0.0,0.0,0.0,0.0,0.0,0.0,0.0,0.0,-0.3641,-0.3773,0.0,0.0,0.0,0.0,0.0,0.0,0.0,0.0,0.0,0.0,0.0,0.0,0.0,0.0,-0.7755,-0.8066,-0.8184,-0.8108,-0.8108,-0.7924,-0.7702,-0.7532,-0.7757,-0.8308,-0.8212,0.0,-0.8489,-0.8995,0.0,0.0,0.0,0.0,0.0,0.0,0.0,0.0,0.0,0.0,0.0,0.0,0.0,0.0,0.0,0.0,0.0,0.0,0.0,0.0,0.0,0.0,-0.9087,-0.8883,-0.8839,-0.8896,0.0,-0.9001,-0.902,-0.9157,0.0,0.0,0.0,0.0,0.0,0.0,0.0,0.0,-0.8521,-0.8639,-0.8752,-0.8752,-0.8267,-0.7922,-0.7888,-0.7453,-0.7314,-0.7765,-0.8267,-0.9106,-1.033,-1.0606,0.0,0.0,0.0,0.0,0.0,0.0,0.0,0.0,0.0,0.0,0.0,0.0,0.0,0.0,0.0,0.0,0.0,0.0,0.0,0.0,0.0,0.0,0.0,0.0,0.0,0.0,0.0,0.0,0.0,-0.3523,-0.3773,-0.3815,-0.4177,-0.4391,0.0,0.0,0.0,0.0,0.0,0.0,0.0,0.0,0.0,-0.6266,-0.6453,-0.7172,-0.8503,-0.8694,-0.9019,-0.9346,-0.9346,-0.9149,-0.8712,-0.8609,-0.8609,-0.8594,-0.8799,-0.8857,-0.8862,-0.928,-0.9612,-0.9794,0.0,0.0,0.0,0.0,0.0,-1.0918,-1.1316,0.0,0.0,0.0,0.0,0.0,0.0,0.0,0.0,0.0,0.0,0.0,0.0,0.0,0.0,-0.9284,-0.9315,-0.9348,-0.9472,-0.9324,-0.9258,0.0,-0.9449,-0.925,-0.8858,0.0,0.0,0.0,0.0,0.0,-0.8626,-0.8692,-0.8804,-0.8804,-0.8283,-0.7882,-0.7882,-0.7324,-0.7231,-0.778,-0.8234,-0.899,-1.0074,-1.077,-1.1301,0.0,0.0,0.0,0.0,0.0,0.0,0.0,0.0,0.0,0.0,0.0,0.0,0.0,0.0,0.0,0.0,0.0,0.0,0.0,0.0,0.0,0.0,0.0,0.0,0.0,0.0,0.0,0.0,-0.3656,-0.3763,-0.3857,-0.431,-0.4495,0.0,0.0,0.0,0.0,0.0,0.0,-0.5036,-0.5293,-0.5826,-0.66,-0.6907,-0.7808,-0.927,-0.9386,-0.9661,-1.023,-1.0158,-0.982,-0.9376,-0.9304,-0.9058,-0.8693,-0.9011,-0.9126,-0.915,-0.9433,-0.9734,-0.9983,-1.0047,-1.0674,-1.1483,-1.1483,-1.1659,-1.1999,-1.2727,-1.2428,-1.1718,-1.1755,0.0,-1.1175,-0.9944,0.0,0.0,0.0,0.0,-0.9155,-0.9408,0.0,-0.9266,-0.9508,-0.9512,-0.9479,-0.9552,-0.9451,-0.9447,0.0,-0.9768,-0.9607,-0.9092,0.0,0.0,0.0,0.0,-0.8633,-0.8633,-0.8745,-0.8804,-0.8804,-0.835,-0.8043,-0.8043,-0.7578,-0.7482,-0.7955,-0.8446,-0.9079,-0.9911,-1.0931,-1.1489,-1.1624,0.0,0.0,0.0,0.0,0.0,0.0,0.0,0.0,0.0,0.0,0.0,0.0,0.0,0.0,0.0,0.0,0.0,0.0,0.0,0.0,0.0,0.0,0.0,0.0,0.0,0.0,0.0,0.0,0.0,-0.4035,-0.4445,0.0,0.0,0.0,0.0,-0.4864,-0.4998,-0.5189,-0.5397,-0.6082,-0.6912,-0.7725,-0.8551,-0.9377,-1.0239,-1.0251,-1.0137,-0.9886,-0.964,-0.937,-0.9138,-0.8831,-0.8705,-0.8693,-0.9011,-0.9126,-0.915,-0.9623,-0.9862,-1.0047,-1.0238,-1.08,-1.1483,-1.1483,-1.2107,-1.2901,-1.2647,-1.2688,-1.2893,-1.2553,-1.173,-1.0862,-1.0601,-1.0338,0.0,0.0,-1.0566,-1.0293,-1.0073,-0.9621,-0.9203,-0.9203,-0.9051,-0.8925,-0.915,-0.9203,-0.9376,0.0,-0.9999,-0.9846,-0.9655,0.0,-0.9466,-0.8891,-0.8804,-0.8804,-0.8804,-0.8804,-0.8804,-0.8804,-0.853,-0.835,-0.835,-0.8175,-0.8114,-0.829,-0.8907,-0.9488,-1.0089,-1.1061,-1.1768,-1.2141,-1.2171,0.0,0.0,0.0,0.0,0.0,0.0,0.0,0.0,0.0,0.0,0.0,0.0,0.0,0.0,0.0,0.0,0.0,0.0,0.0,0.0,0.0,0.0,0.0,0.0,0.0,0.0,0.0,0.0,-0.4344,-0.4697,0.0,-0.4461,-0.4834,-0.508,-0.49,-0.5252,-0.5406,-0.5428,-0.6173,-0.6886,-0.7499,-0.8297,-0.9081,-0.976,-0.976,-0.9622,-0.9352,-0.9256,-0.8986,-0.8567,-0.8471,-0.8339,-0.8195,-0.8453,-0.8567,-0.8585,-0.8974,-0.9476,-1.0047,-1.0534,-1.1337,-1.2212,-1.2642,-1.3038,-1.3314,-1.318,-1.2969,-1.2741,-1.305,-1.2554,-1.1844,-1.2208,-1.1873,-1.1322,-1.1067,-1.0753,-1.0387,-0.9794,-0.9367,-0.9033,-0.8951,-0.8884,-0.8838,-0.8938,-0.8965,-0.9078,-0.9472,-0.9648,-0.9688,-0.9452,-0.9399,-0.9265,-0.8864,-0.8804,-0.8804,-0.8804,-0.8804,-0.8804,-0.8804,-0.855,-0.8427,-0.8427,-0.8466,-0.8579,-0.8799,-0.9341,-0.9828,-1.0224,-1.1104,-1.1675,-1.1797,-1.2353,-1.251,0.0,0.0,0.0,0.0,0.0,0.0,0.0,0.0,0.0,0.0,0.0,0.0,0.0,0.0,0.0,0.0,0.0,0.0,0.0,0.0,0.0,0.0,0.0,0.0,0.0,0.0,-0.4216,-0.4466,-0.479,-0.4859,-0.4459,-0.4881,-0.5073,-0.4909,-0.5266,-0.5467,-0.5432,-0.6317,-0.706,-0.7391,-0.8361,-0.9017,-0.9484,-0.9484,-0.9388,-0.9202,-0.9022,-0.8753,-0.8417,-0.8237,-0.8063,-0.7913,-0.8177,-0.8291,-0.8309,-0.8798,-0.9364,-1.0008,-1.0418,-1.1375,-1.246,-1.2882,-1.3193,-1.3427,-1.3427,-1.2999,-1.2519,-1.2941,-1.2586,-1.2134,-1.2922,-1.2685,-1.2059,-1.1753,-1.1227,-1.0559,-0.9802,-0.9256,-0.8889,-0.8805,-0.8804,-0.8804,-0.8804,-0.8804,-0.8864,-0.9058,-0.9332,-0.9472,-0.9216,-0.9183,-0.909,-0.8851,-0.8804,-0.8804,-0.8804,-0.8804,-0.8804,-0.8804,-0.8637,-0.8517,-0.8517,-0.8721,-0.8959,-0.9369,-0.9815,-1.022,-1.0581,-1.119,-1.1587,-1.1733,-1.25,-1.2666,-1.218,0.0,0.0,0.0,0.0,0.0,0.0,0.0,0.0,0.0,0.0,0.0,0.0,0.0,0.0,0.0,0.0,0.0,0.0,0.0,0.0,0.0,0.0,0.0,-0.4233,-0.3763,-0.3734,-0.4391,-0.4651,-0.4561,-0.4327,-0.4754,-0.4909,-0.4773,-0.5163,-0.5362,-0.5362,-0.6671,-0.7386,-0.7386,-0.8759,-0.9484,-0.9484,-0.9484,-0.9478,-0.9466,-0.8932,-0.8675,-0.8651,-0.8135,-0.7901,-0.7913,-0.8171,-0.8335,-0.8409,-0.924,-0.9697,-0.9812,-0.9826,-1.085,-1.2261,-1.215,-1.261,-1.3296,-1.3296,-1.2885,-1.2317,-1.2317,-1.188,-1.1559,-1.2596,-1.2623,-1.2393,-1.2777,-1.1944,-1.0855,-1.026,-0.9442,-0.8804,-0.8804,-0.8804,-0.8804,-0.8804,-0.8804,-0.8804,-0.8804,-0.9031,-0.917,-0.917,-0.917,-0.9077,-0.8851,-0.8804,0.0,-0.8804,-0.8804,-0.8804,-0.8804,-0.8804,-0.8804,-0.8804,-0.8945,-0.9301,-0.9971,-1.0288,-1.0642,-1.1214,-1.1328,-1.1608,-1.2004,-1.2618,-1.2676,-1.22,0.0,0.0,0.0,0.0,0.0,0.0,0.0,0.0,0.0,0.0,0.0,0.0,0.0,0.0,0.0,0.0,0.0,0.0,0.0,0.0,0.0,0.0,-0.2752,-0.2809,-0.368,-0.4422,-0.4599,-0.4704,-0.4662,-0.4439,-0.4663,-0.4768,-0.4637,-0.4957,-0.5156,-0.5156,-0.6137,-0.6924,-0.7386,-0.8296,-0.9017,-0.9484,-0.9484,-0.9382,-0.9178,-0.8837,-0.8579,-0.8387,-0.8051,-0.7901,-0.7901,-0.8444,-0.8684,-0.8691,-0.9361,-0.9931,-1.0462,-1.0996,-1.164,-1.2206,-1.2665,-1.2958,-1.3186,-1.3296,-1.3177,-1.3004,-1.3004,-1.2894,-1.2811,-1.3083,-1.3094,-1.2976,-1.2565,-1.1746,-1.0855,-1.026,-0.9442,-0.8804,-0.8804,-0.8804,-0.8804,-0.8804,-0.8804,-0.8804,-0.8804,-0.8871,-0.8925,-0.8925,-0.8925,-0.8898,-0.8818,0.0,0.0,-0.8804,-0.8804,-0.8804,-0.8804,-0.8804,-0.8804,-0.8804,-0.9186,-0.973,-1.0372,-1.0592,-1.0971,-1.1593,-1.1675,-1.1967,-1.2493,-1.2774,-1.2822,0.0,0.0,0.0,0.0,0.0,0.0,0.0,0.0,0.0,0.0,0.0,0.0,0.0,0.0,0.0,0.0,0.0,0.0,0.0,0.0,0.0,0.0,-0.2094,-0.2172,-0.2142,-0.3483,-0.4428,-0.4428,-0.4384,-0.4322,-0.4254,-0.438,-0.4483,-0.4408,-0.4708,-0.4938,-0.5003,-0.584,-0.6597,-0.7386,-0.8096,-0.8818,-0.9484,-0.937,-0.9226,-0.9126,-0.8693,-0.8435,-0.8279,-0.8021,-0.8055,0.0,-0.862,-0.8928,-0.9197,-0.9718,-1.0138,0.0,0.0,0.0,0.0,0.0,-1.2624,-1.2624,-1.2677,-1.273,-1.2782,-1.273,-1.273,-1.281,-1.2984,-1.291,-1.2757,-1.2529,-1.1814,-1.1011,-1.0371,-0.9708,-0.9061,-0.8857,-0.8804,-0.8804,-0.8804,-0.8956,-0.9159,-0.9159,0.0,0.0,-0.9159,-0.8962,-0.8804,-0.8804,-0.8804,-0.8804,0.0,-0.8804,-0.8804,-0.8804,-0.8804,-0.8804,-0.8804,-0.9113,0.0,0.0,0.0,-1.0653,-1.1358,-1.1579,0.0,0.0,0.0,0.0,0.0,0.0,0.0,0.0,-1.25,-1.2589,0.0,0.0,0.0,0.0,0.0,0.0,0.0,0.0,0.0,0.0,0.0,0.0,0.0,0.0,0.0,0.0,-0.2064,-0.2127,-0.1928,-0.3111,-0.4017,-0.4094,-0.4001,-0.3872,-0.3872,-0.4061,-0.4183,-0.4183,-0.4424,-0.4626,-0.4823,0.0,0.0,0.0,0.0,-0.8742,-0.9436,-0.919,-0.9114,-0.9077,-0.8525,-0.8347,-0.8391,-0.813,-0.8315,-0.8876,-0.8928,-0.9249,-0.9718,-1.0293,-1.0506,-1.0506,-1.0506,-1.1015,-1.1669,-1.1828,-1.1877,0.0,0.0,0.0,0.0,-1.1927,-1.1977,-1.214,-1.254,-1.2402,-1.2149,-1.2549,-1.1986,-1.1167,-1.0626,-1.0064,-0.951,-0.9061,-0.8956,-0.891,-0.8962,-0.9361,-0.971,-0.971,-1.0012,-1.0167,-0.9666,-0.9211,-0.8857,-0.8811,-0.8804,0.0,-0.8804,-0.8804,-0.8804,-0.8804,0.0,0.0,-0.8804,-0.8804,-0.9008,-0.9562,-0.9762,-1.0179,-1.0841,-1.1277,-1.1666,-1.194,-1.2445,-1.2783,-1.2881,-1.2881,-1.2881,-1.2881,-1.2881,-1.2881,0.0,0.0,0.0,0.0,0.0,0.0,0.0,0.0,0.0,0.0,0.0,0.0,0.0,0.0,0.0,-0.1355,-0.1335,-0.1252,-0.1127,-0.2255,-0.3318,-0.3896,-0.3888,-0.3872,-0.3872,-0.3936,-0.3936,-0.3936,-0.4242,-0.444,-0.4507,-0.5016,0.0,-0.7181,-0.7512,-0.8142,-0.9148,-0.9156,-0.9017,-0.8747,0.0,0.0,-0.9004,-0.8757,-0.8935,-0.9458,-0.988,-1.0138,-1.0293,-1.0863,-1.1124,-1.1116,-1.1267,-1.1368,-1.1569,-1.1678,-1.1669,-1.1569,-1.1728,-1.1778,-1.1769,-1.1877,-1.1927,-1.1986,-1.2168,-1.2131,0.0,-1.2168,-1.1781,-1.1267,-1.1167,-1.0387,-0.9666,-1.0012,-0.9762,-0.9562,-1.0012,-1.0167,-1.0269,-1.0269,-0.9961,-0.971,-0.9614,-0.951,-0.9309,-0.8857,-0.8804,-0.8804,-0.8804,-0.8804,-0.8804,-0.8804,-0.8804,-0.8804,-0.8804,-0.8804,-0.9008,-0.9562,-1.0012,-1.0543,-1.1156,-1.1384,-1.1792,-1.2366,-1.2589,-1.2783,-1.2881,-1.2881,-1.2881,-1.2881,-1.2881,-1.2881,0.0,0.0,0.0,0.0,0.0,0.0,0.0,0.0,0.0,0.0,0.0,-0.3514,-0.2984,0.0,-0.1711,-0.1215,-0.0806,-0.0605,-0.0859,-0.1714,-0.2594,-0.3219,-0.3582,-0.3759,-0.3759,-0.3759,-0.3759,-0.3759,-0.3991,-0.415,-0.4278,-0.4967,-0.5979,-0.7177,-0.754,-0.819,-0.907,-0.8807,-0.8615,-0.8483,-0.8219,-0.8257,-0.8578,-0.8745,-0.9093,-0.9614,-1.019,-1.0557,-1.0863,-1.1175,-1.1326,-1.1326,-1.1368,-1.1427,-1.1427,-1.1569,-1.1578,-1.1528,-1.1578,-1.1678,-1.1778,-1.1778,-1.1877,-1.2026,-1.2076,-1.2076,-1.2076,-1.2076,-1.1927,-1.1628,-1.1377,-1.0854,-1.0438,-1.0423,-1.0218,-1.0064,-1.0364,-1.0626,-1.0736,-1.0466,-1.0431,-1.0285,-0.9718,-0.9614,-0.9413,-0.8857,-0.8804,-0.8804,-0.8804,-0.8804,-0.8804,-0.8804,-0.8804,-0.8804,-0.8804,-0.8804,-0.9008,-0.9562,-0.9865,-1.0379,-1.1267,-1.1377,-1.1728,-1.248,-1.2578,-1.2676,-1.2881,-1.2881,-1.2881,-1.2881,-1.2881,-1.2881,0.0,0.0,0.0,0.0,0.0,0.0,0.0,0.0,-0.285,-0.3471,-0.3546,-0.3362,-0.298,-0.223,-0.1554,-0.113,-0.0484,-0.0177,-0.0663,-0.1266,-0.1828,-0.2434,-0.3118,-0.3585,-0.3585,-0.3585,-0.3585,-0.3585,-0.3746,-0.3915,-0.414,-0.5061,-0.6018,-0.6994,-0.7663,-0.8293,-0.8914,-0.8501,-0.8261,-0.8213,-0.8105,-0.8109,-0.8268,-0.883,-0.9406,-0.9976,-1.0395,-1.0863,-1.1326,-1.1326,-1.1326,-1.1326,-1.1326,-1.1326,-1.1318,-1.1427,-1.1477,-1.1528,-1.1528,-1.1678,-1.1828,-1.1778,-1.1877,-1.2076,-1.2076,-1.2076,-1.2076,-1.2076,-1.2076,-1.1977,-1.1578,-1.1377,-1.1217,-1.0838,-1.0568,-1.0415,-1.0576,-1.0846,-1.1006,-1.0474,-1.0685,-1.0702,-0.9769,-0.951,-0.9309,-0.8857,-0.8804,-0.8804,-0.8804,-0.8804,-0.8804,-0.8804,-0.8804,-0.8857,-0.8962,-0.8956,-0.9159,-0.971,-0.9762,-1.0233,-1.1276,-1.1326,-1.1678,-1.2431,-1.248,-1.2627,-1.2881,-1.2881,-1.2881,-1.2881,-1.2881,-1.2881,-0.3072,-0.2516,-0.2014,-0.1958,-0.1846,-0.1958,0.0,0.0,-0.285,-0.3471,-0.3266,-0.298,-0.2932,-0.1936,-0.1177,-0.1127,-0.0461,0.0,-0.0113,-0.0604,-0.1177,-0.1655,-0.2857,-0.3585,-0.3585,-0.3585,-0.3585,-0.3585,-0.3746,-0.3818,-0.3831,-0.467,-0.5544,-0.635,-0.717,-0.7837,-0.8381,-0.8321,-0.8171,-0.7943,-0.848,-0.8935,-0.9406,-0.9984,-1.0549,-1.1116,-1.1167,-1.1226,-1.1326,-1.1326,-1.1326,-1.1326,-1.1326,-1.1326,-1.1326,-1.1326,-1.1427,-1.1528,-1.1528,-1.1628,-1.1728,-1.1828,-1.1877,-1.1927,-1.2076,-1.2076,-1.2076,-1.2076,-1.2076,-1.2076,-1.2026,-1.1678,-1.1427,-1.1819,-1.1141,-1.0576,-1.1057,-1.0846,-1.0466,-1.0415,-1.0064,-0.9769,-0.9614,-0.9211,-0.8857,-0.8811,-0.8804,-0.8804,-0.8804,-0.8804,-0.8804,-0.8804,-0.8804,-0.9008,-0.9458,-0.951,-0.9762,-1.0261,-1.0312,-1.0635,-1.1267,-1.1326,-1.1628,-1.2332,-1.2431,-1.2578,-1.2725,-1.2832,-1.2881,-1.2881,-1.2881,-1.2881,-0.2307,-0.152,-0.0819,-0.1171,-0.1008,-0.0896,-0.1511,-0.1679,-0.1847,-0.2406,-0.2375,-0.2169,-0.1828,-0.1315,-0.0858,0.0,-0.0226,0.0,0.0,-0.0545,-0.0958,-0.117,-0.2314,-0.3202,-0.3477,-0.3477,-0.3507,-0.3577,-0.3629,-0.374,-0.3807,-0.4617,-0.5458,-0.6156,-0.6881,-0.7469,-0.8061,-0.7964,-0.8051,-0.8315,-0.862,-0.9086,-0.9614,-1.0138,-1.071,-1.1326,-1.1326,-1.1326,-1.1326,-1.1326,-1.1326,-1.1326,-1.1326,-1.1326,-1.1427,-1.1427,-1.1469,-1.1519,-1.1578,-1.1728,-1.1828,-1.1877,-1.1977,-1.2026,-1.2076,-1.2076,-1.2076,-1.2076,-1.2076,-1.2026,-1.1728,-1.1477,-1.1267,-1.115,-1.0728,-1.0474,-1.0736,-1.0576,-1.032,-1.0012,-0.9762,-0.9614,-0.9614,-0.9413,-0.9263,-0.9263,-0.9008,-0.8804,-0.8804,-0.8804,-0.891,-0.9211,-0.9562,-0.971,-0.9614,-0.9865,-1.0167,-1.0364,-1.0736,-1.1158,-1.1728,-1.1778,-1.1977,-1.2431,-1.248,-1.2578,-1.2832,-1.2881,-1.2881,-1.2881,-1.2881,-1.2881,-0.1304,-0.0584,0.0054,-0.05,-0.0336,-0.0168,-0.0785,-0.0898,-0.1065,-0.1679,-0.1679,-0.14,-0.0953,-0.0729,-0.0449,0.0,0.0056,0.0056,0.0056,-0.0378,-0.0685,-0.0851,-0.1618,-0.2336,-0.2863,-0.3217,-0.3487,-0.3577,-0.3585,-0.3621,-0.376,-0.4613,-0.5408,-0.5939,-0.6677,-0.7338,-0.7789,-0.7709,-0.799,-0.8626,-0.8883,-0.9302,-0.9821,-1.0395,-1.0913,-1.1326,-1.1326,-1.1326,-1.1326,-1.1326,-1.1326,-1.1326,-1.1326,-1.1377,-1.1469,-1.1528,-1.1578,-1.1628,-1.1728,-1.1828,-1.1977,-1.1977,-1.2026,-1.2076,-1.2076,-1.2076,-1.2076,-1.2076,-1.1977,-1.1828,-1.1578,-1.1418,-1.1217,-1.0939,-1.0779,-1.0635,-1.0635,-1.0525,-1.0269,-0.9917,-0.9814,-0.9814,-0.9814,-0.9814,-0.9814,-0.9814,-0.951,-0.9211,-0.9061,-0.9166,-0.9413,-0.9762,-1.0167,-1.0269,-0.9865,-1.0167,-1.0415,-1.0415,-1.0787,-1.1209,-1.161,-1.1769,-1.1977,-1.2224,-1.2431,-1.2627,-1.2832,-1.2881,-1.2881,-1.2881,-1.2881,-1.2881,-0.0105,0.0213,0.0591,0.0111,0.0,-0.0168,-0.0785,-0.0898,-0.1065,-0.1679,-0.1344,-0.0898,-0.0898,-0.0336,0.0168,0.0168,0.0168,0.0168,0.0168,0.0053,-0.0205,-0.0637,-0.075,-0.0983,0.0,-0.2848,-0.358,-0.3585,-0.3585,-0.3585,-0.3591,-0.4684,-0.534,-0.5504,-0.6663,-0.7376,-0.7532,-0.7622,-0.799,-0.8626,-0.9249,-0.9873,-1.0403,-1.1015,-1.1276,-1.1326,-1.1326,-1.1326,-1.1326,-1.1326,-1.1326,-1.1326,-1.1326,-1.1326,-1.1326,-1.1628,-1.1778,-1.1877,-1.1877,-1.1977,-1.2076,-1.2076,-1.2076,-1.2076,-1.2076,-1.2076,-1.2076,-1.2076,-1.1728,-1.1427,-1.1927,-1.1678,-1.1427,-1.1927,-1.1669,-1.1267,-1.1267,-1.0787,-1.0415,-1.0364,-1.0364,-1.0364,-1.0364,-1.0364,-1.0364,-1.0364,-1.0364,-1.0167,-0.9666,-1.0012,-1.0364,-1.0364,-1.0415,-1.0415,-1.0364,-1.0415,-1.0415,-1.0415,-1.0415,-1.0415,-1.0466,-1.0998,-1.1377,-1.1528,-1.2175,-1.2578,-1.2735,-1.2832,-1.2881,-1.2881,-1.2881,-1.2881,0.0977,0.0989,0.1148,0.0983,0.0783,0.0523,0.0366,0.0053,-0.0217,-0.0433,-0.0331,-0.0168,-0.0168,0.0112,0.0336,0.0336,0.028,0.0224,0.0224,0.0108,-0.0052,-0.0213,-0.0573,0.0,0.0,0.0,0.0,-0.3014,-0.3357,-0.3585,-0.3585,-0.3968,-0.4515,-0.5328,-0.5773,-0.6376,-0.7246,-0.7461,-0.7889,-0.8474,-0.9614,-1.0446,-1.1015,-1.1217,-1.1326,-1.1326,-1.1326,-1.1326,-1.1326,-1.1326,-1.1326,-1.1326,-1.1569,-1.1769,-1.1877,-1.2224,-1.2431,-1.2529,-1.2175,-1.2076,-1.2076,-1.2076,-1.2076,-1.2076,-1.2076,-1.2076,-1.2076,-1.2076,-1.1977,-1.1769,-1.1619,-1.1427,-1.1217,-1.104,-1.083,-1.0685,-1.0685,-1.0525,-1.0415,-1.0415,-1.0415,-1.0525,-1.0947,-1.1006,-1.1099,-1.1451,-1.0584,-0.9909,-1.0115,-0.9961,-1.0174,-1.0897,-1.0626,-1.0415,-1.0415,-1.0415,-1.0269,-0.9917,-1.0218,-1.0415,-1.0415,-1.1006,-1.1377,-1.1528,-1.2076,-1.2421,-1.2578,-1.2627,-1.2627,-1.2627,-1.2627,-1.2676,0.1787,0.1664,0.1681,0.1493,0.1358,0.1208,0.1208,0.0881,0.0533,0.0533,0.0547,0.0616,0.0616,0.0728,0.0896,0.1119,0.0896,0.0728,0.0728,0.0544,0.0321,0.0108,-0.0322,-0.0589,0.0,0.0,0.0,-0.2676,-0.3244,-0.3694,-0.3913,-0.4076,-0.4625,-0.5609,-0.5823,-0.6317,-0.7085,-0.7306,-0.7889,-0.8791,-0.988,-1.071,-1.1326,-1.1427,-1.1519,-1.1528,-1.1678,-1.1728,-1.1728,-1.1728,-1.1728,-1.1769,-1.2026,-1.2175,-1.2274,-1.2578,-1.2725,-1.2783,-1.2559,-1.2363,-1.2274,-1.2304,-1.2264,-1.2076,-1.2076,-1.2076,-1.2076,-1.2076,-1.1977,-1.1778,-1.1628,-1.1427,-1.1267,-1.104,-1.099,-1.099,-1.099,-1.099,-1.099,-1.099,-1.099,-1.1141,-1.1519,-1.1427,-1.1477,-1.2026,-1.0838,-1.0072,-1.0635,-1.0226,-1.0226,-1.1217,-1.0736,-1.0474,-1.0685,-1.0525,-1.0167,-0.9614,-1.0115,-1.0312,-1.0115,-1.0905,-1.1377,-1.1528,-1.2026,-1.2382,-1.248,-1.248,-1.248,-1.248,-1.248,-1.2529,0.2381,0.2215,0.2186,0.1773,0.1742,0.1846,0.1849,0.1497,0.1169,0.1171,0.1257,0.1341,0.1341,0.151,0.1789,0.2345,0.1955,0.1567,0.1567,0.125,0.0862,0.0,0.0,0.0,0.0,0.0,0.0,-0.2569,0.0,-0.3802,-0.4408,-0.4952,-0.555,-0.6154,-0.6756,-0.7085,-0.7085,-0.7257,-0.8049,-0.9413,-1.0087,-1.071,-1.1318,-1.1728,-1.1877,-1.1927,-1.2332,-1.248,-1.248,-1.248,-1.248,-1.248,-1.252,-1.2529,-1.252,-1.2676,-1.2725,-1.2774,-1.3084,-1.289,-1.252,-1.2725,-1.2442,-1.2076,-1.2076,-1.2076,-1.2076,-1.2076,-1.1728,-1.1477,-1.1977,-1.1728,-1.1477,-1.1977,-1.2076,-1.2076,-1.2076,-1.2076,-1.2076,-1.2076,-1.2076,-1.2076,-1.2076,-1.1678,-1.1519,-1.2026,-1.1141,-1.0677,-1.1267,-1.0787,-1.0626,-1.1267,-1.0787,-1.0626,-1.1267,-1.0736,-1.0167,-0.9658,-1.0115,-1.0167,-0.9666,-1.0702,-1.1377,-1.1477,-1.2026,-1.2323,-1.248,-1.248,-1.248,-1.248,-1.248,-1.248,0.2764,0.2539,0.2483,0.2384,0.2321,0.2352,0.2429,0.2192,0.1955,0.2058,0.2126,0.2178,0.2178,0.1956,0.0,0.1958,0.1399,0.0,0.0952,0.0723,0.0,0.0224,0.0,0.0111,0.0,-0.0561,0.0,0.0,-0.2571,-0.3186,-0.3802,-0.4408,-0.4952,-0.5496,-0.61,-0.6647,-0.7085,-0.7509,-0.8302,-0.9413,-0.9873,-1.0541,-1.1318,-1.1728,-1.1877,-1.1927,-1.2332,-1.248,-1.248,-1.248,-1.248,-1.252,-1.2793,-1.288,-1.288,-1.2929,-1.2929,-1.2929,-1.2919,-1.2647,-1.2382,-1.2412,-1.2116,-1.1778,-1.1778,-1.1877,-1.1977,-1.1977,-1.1927,-1.1927,-1.2076,-1.1977,-1.1927,-1.2076,-1.2076,-1.2076,-1.2076,-1.2076,-1.2076,-1.2076,-1.2076,-1.2076,-1.2076,-1.1977,-1.1927,-1.2076,-1.151,-1.1267,-1.1819,-1.104,-1.0779,-1.1769,-1.099,-1.0626,-1.1267,-1.0736,-1.0364,-1.0218,-1.0312,-1.0364,-1.0218,-1.0897,-1.1326,-1.1368,-1.1877,-1.2175,-1.2175,-1.2175,-1.2175,-1.2175,-1.2175,-1.2274,0.2861,0.2753,0.2853,0.2698,0.2754,0.2881,0.3058,0.2855,0.2642,0.2792,0.3103,0.3287,0.3012,0.2954,0.2954,0.0,0.0,0.0,0.1956,0.1621,0.1174,0.0,0.0448,0.0,0.0112,-0.028,-0.084,0.0,-0.2347,-0.3072,-0.3968,-0.4519,-0.5117,-0.5664,-0.6263,-0.6864,-0.7348,-0.7717,-0.8455,-0.9562,-0.9865,-1.0482,-1.1318,-1.1728,-1.1977,-1.2175,0.0,-1.2803,-1.2997,-1.2997,-1.2997,-1.2997,-1.318,-1.3266,-1.3266,-1.3266,-1.3266,-1.3218,-1.2967,-1.2696,-1.2372,-1.2353,-1.2107,-1.1778,-1.1778,-1.1877,-1.1977,-1.1977,-1.2026,-1.2076,-1.2076,-1.2076,-1.2076,-1.2076,-1.2076,-1.2076,-1.2076,-1.2076,-1.2076,-1.2076,-1.2076,-1.2076,-1.2076,-1.1877,-1.1828,-1.2076,-1.1628,-1.1469,-1.2026,-1.1091,-1.0728,-1.1669,-1.0939,-1.0728,-1.1569,-1.1099,-1.0787,-1.0787,-1.104,-1.104,-1.0787,-1.136,-1.1669,-1.1669,-1.1927,-1.2076,-1.2076,-1.2076,-1.2076,-1.2076,-1.2076,-1.2175,0.2739,0.2812,0.3069,0.2825,0.301,0.3326,0.3565,0.3393,0.3307,0.3606,0.4091,0.4391,0.4012,0.4281,0.4501,0.4512,0.0,0.3569,0.3514,0.2956,0.2345,0.1789,0.0952,0.0392,0.0336,0.0168,-0.0448,-0.1567,-0.2235,-0.3125,-0.4298,-0.4952,-0.5605,-0.6317,-0.681,-0.73,-0.7723,-0.7877,-0.8554,-0.9769,-0.9969,-1.049,-1.1276,-1.1778,-1.2175,-1.252,0.0,0.0,-1.3621,-1.3621,-1.3621,-1.3621,-1.3621,-1.3621,-1.361,-1.3515,-1.3515,-1.3467,-1.3112,-1.2793,-1.252,-1.2384,-1.2147,-1.1877,-1.1877,-1.1977,-1.2076,-1.2076,-1.2076,-1.2076,-1.2076,-1.2076,-1.2076,-1.2076,-1.2076,-1.2076,-1.2076,-1.2076,-1.2076,-1.2076,-1.2076,-1.2076,-1.2076,-1.1719,-1.1578,-1.2026,-1.1728,-1.1569,-1.2026,-1.1242,-1.0838,-1.1368,-1.0939,-1.1032,-1.2017,-1.1669,-1.1427,-1.1427,-1.1828,-1.1877,-1.1427,-1.1877,-1.2076,-1.2076,-1.2076,-1.2076,-1.2076,-1.2076,-1.2126,-1.2126,-1.2126,-1.2175,0.2585,0.2608,0.2822,0.2658,0.2901,0.3266,0.3663,0.3794,0.0,0.4793,0.5039,0.5277,0.566,0.5429,0.4988,0.4501,0.3947,0.345,0.2903,0.2736,0.2567,0.0,0.1733,0.123,0.0951,0.0448,0.0,0.0,0.0,-0.246,-0.3694,-0.4732,-0.5828,-0.6918,-0.7031,-0.73,-0.7723,-0.8096,-0.8679,-0.9458,-1.0095,-1.0616,-1.1023,-1.1977,-1.2421,-1.2529,0.0,0.0,-1.3621,-1.3621,-1.3621,-1.3621,-1.3621,-1.3621,-1.3563,-1.3218,-1.3112,-1.3064,-1.2909,-1.2812,-1.2677,-1.2255,-1.1868,-1.1569,-1.1728,-1.1828,-1.1927,-1.1927,-1.2026,-1.2076,-1.2076,-1.2076,-1.2076,-1.2076,-1.2076,-1.2076,-1.2076,-1.2076,-1.2076,-1.2076,-1.2076,-1.2076,-1.2076,-1.2026,-1.1977,-1.2076,-1.2026,-1.1977,-1.2076,-1.1918,-1.1868,-1.1977,-1.1868,-1.1868,-1.2076,-1.2026,-1.1977,-1.1977,-1.2026,-1.2076,-1.1977,-1.2076,-1.2076,-1.2076,-1.2076,-1.2076,-1.2076,-1.2076,-1.2175,-1.2283,-1.2283,-1.2323,0.3038,0.297,0.3115,0.2859,0.3031,0.3337,0.3707,0.0,0.0,0.512,0.555,0.5882,0.6154,0.6204,0.6032,0.5433,0.4882,0.4418,0.4219,0.3607,0.3147,0.3201,0.2538,0.1843,0.0,0.0895,0.0,0.0,0.0,0.0,-0.3074,-0.4508,-0.5714,-0.6588,-0.6923,-0.7402,-0.8049,-0.8262,-0.8844,-0.9732,-1.0257,-1.0624,-1.0922,-1.1578,-1.2076,-1.2529,-1.2852,0.0,-1.3621,-1.3621,-1.3621,-1.3621,-1.3621,-1.3621,-1.3563,-1.3362,-1.342,-1.3467,-1.3218,-1.3208,-1.3246,-1.289,-1.2647,-1.2442,-1.2246,-1.2246,-1.2295,-1.2067,-1.2076,-1.2076,-1.2076,-1.2076,-1.2076,-1.2076,-1.2076,-1.2076,-1.2076,-1.2026,-1.1977,-1.1977,-1.1927,-1.1927,-1.1977,-1.1977,-1.1977,-1.1977,-1.2076,-1.2076,-1.1977,-1.2076,-1.2076,-1.2076,-1.2076,-1.2076,-1.2076,-1.2076,-1.2076,-1.2076,-1.2076,-1.2076,-1.2076,-1.2076,-1.2076,-1.2076,-1.2076,-1.2076,-1.2076,-1.2076,-1.2175,-1.2274,-1.2274,-1.2431,0.3565,0.3461,0.3572,0.3122,0.3268,0.3606,0.3951,0.42,0.4654,0.5517,0.6046,0.6426,0.6534,0.6972,0.7085,0.0,0.5991,0.5673,0.5584,0.4692,0.4041,0.0,0.3266,0.0,0.1621,0.0,0.0,0.0,0.0,0.0,-0.307,-0.4505,-0.555,-0.6209,-0.6709,-0.7405,-0.8262,-0.8311,-0.8835,-0.9888,-1.0308,-1.0624,-1.0922,-1.1377,-1.1877,-1.2529,-1.2666,0.0,0.0,-1.3621,-1.3621,-1.3621,-1.3621,-1.3621,-1.361,-1.3716,-1.3858,-1.3962,-1.3742,-1.3779,-1.3873,-1.3742,-1.3563,-1.3314,-1.2812,-1.2716,-1.2725,-1.2215,-1.2076,-1.2076,-1.2076,-1.2076,-1.2076,-1.2076,-1.2076,-1.2026,-1.2026,-1.1927,-1.1877,-1.1877,-1.1769,-1.1719,-1.1828,-1.1877,-1.1877,-1.1877,-1.1977,-1.2026,-1.1977,-1.2026,-1.2076,-1.2076,-1.2076,-1.2076,-1.2076,-1.2076,-1.2076,-1.2076,-1.2076,-1.2076,-1.2076,-1.2076,-1.2076,-1.2076,-1.2076,-1.2076,-1.2076,-1.2076,-1.2175,-1.2274,-1.2274,-1.252,0.3678,0.3792,0.4094,0.3225,0.3432,0.4018,0.4666,0.0,0.5375,0.6651,0.6977,0.7192,0.7628,0.7794,0.7628,0.7085,0.6977,0.6619,0.5698,0.5481,0.5189,0.4687,0.0,0.0,0.2464,0.0,0.0,0.0,0.0,0.0,0.0,-0.4952,-0.555,-0.6209,-0.656,-0.7078,-0.7777,-0.7966,-0.853,-0.9465,-1.0154,-1.0624,-1.0922,-1.1927,-1.2421,-1.2529,0.0,0.0,0.0,-1.3621,-1.3621,-1.3621,-1.3621,-1.3621,-1.3658,-1.414,-1.4197,-1.4057,-1.4444,-1.449,-1.4373,-1.4512,-1.4035,-1.3314,-1.2919,-1.2812,-1.2725,-1.2215,-1.2076,-1.2076,-1.2076,-1.2076,-1.2076,-1.1927,-1.1927,-1.1877,-1.1778,-1.1728,-1.1728,-1.1728,-1.1728,-1.1728,-1.1728,-1.1728,-1.1778,-1.1877,-1.1927,-1.1977,-1.2076,-1.2076,-1.2076,-1.2076,-1.2076,-1.2076,-1.2076,-1.2076,-1.2076,-1.2076,-1.2076,-1.2076,-1.2076,-1.2076,-1.2076,-1.2076,-1.2076,-1.2076,-1.2076,-1.2076,-1.2175,-1.2274,-1.2274,-1.2657,0.4953,0.4771,0.4723,0.4518,0.462,0.4934,0.5462,0.5675,0.5998,0.6902,0.7085,0.7246,0.7788,0.7901,0.7848,0.7628,0.73,0.7002,0.6658,0.6402,0.5948,0.5324,0.5085,0.0,0.0,0.0,0.0,0.0,0.0,0.0,0.0,-0.5336,-0.5937,-0.6209,-0.654,-0.7154,-0.8096,-0.7829,-0.8373,-0.9784,-1.0047,-1.0464,-1.0922,-1.1778,-1.2274,-1.2529,0.0,0.0,0.0,-1.3621,-1.3621,-1.3621,-1.3621,-1.3621,-1.3658,-1.4186,-1.4408,-1.4444,-1.4617,-1.4766,-1.4789,-1.4605,-1.4373,-1.4129,-1.3836,-1.3742,-1.3647,-1.3132,-1.2987,-1.2987,-1.2987,-1.2745,-1.2491,-1.2335,-1.2107,-1.1877,-1.1728,-1.1628,-1.1578,-1.1578,-1.1578,-1.1628,-1.1678,-1.1778,-1.1828,-1.1877,-1.1977,-1.2026,-1.1977,-1.2076,-1.2076,-1.2076,-1.2076,-1.2076,-1.2076,-1.2076,-1.2076,-1.2076,-1.2076,-1.2076,-1.2076,-1.2076,-1.2076,-1.2076,-1.2076,-1.2076,-1.2076,-1.2076,-1.2314,-1.2735,-1.2735,-1.3074,0.5896,0.5646,0.5479,0.5333,0.548,0.5791,0.6167,0.6375,0.6642,0.7192,0.7354,0.7467,0.7848,0.7901,0.7901,0.7901,0.7574,0.7356,0.7431,0.713,0.6692,0.0,0.0,0.0,0.0,0.0,0.0,0.0,0.0,0.0,0.0,-0.566,-0.6209,-0.6209,-0.6644,-0.7275,-0.8032,-0.7896,-0.849,-0.9789,-1.0011,-1.0524,-1.1226,-1.1828,-1.2274,-1.2657,0.0,0.0,0.0,-1.3621,-1.3705,-1.3858,-1.3858,-1.3894,-1.4129,-1.464,-1.4858,-1.4937,-1.5017,-1.504,-1.5062,-1.4697,-1.4651,-1.4708,-1.4605,-1.4512,-1.428,-1.3763,-1.3515,-1.3467,-1.3467,-1.317,-1.2783,-1.2677,-1.2304,-1.1927,-1.1828,-1.1669,-1.1519,-1.1569,-1.1578,-1.1578,-1.1678,-1.1778,-1.1877,-1.1877,-1.1977,-1.2026,-1.1977,-1.2026,-1.2076,-1.2076,-1.2076,-1.2076,-1.2076,-1.2076,-1.2076,-1.2076,-1.2076,-1.2076,-1.2076,-1.2076,-1.2076,-1.2076,-1.2076,-1.2076,-1.2076,-1.2264,-1.255,-1.2967,-1.315,-1.3589,0.6126,0.6282,0.6515,0.5361,0.5709,0.6374,0.6822,0.7018,0.7246,0.7794,0.7901,0.7901,0.7901,0.7901,0.7901,0.7901,0.7901,0.7862,0.772,0.7671,0.7571,0.0,0.0,0.0,0.0,0.0,0.0,0.0,0.0,0.0,0.0,-0.5878,-0.6209,-0.6209,-0.6957,-0.7347,-0.7234,-0.813,-0.8827,-0.9328,-1.0136,-1.0964,-1.1877,-1.2332,-1.2657,0.0,0.0,0.0,0.0,-1.3621,-1.3894,-1.4384,-1.4384,-1.4697,-1.5153,-1.5623,-1.5668,-1.5513,-1.5712,-1.549,-1.5108,-1.5108,-1.4926,-1.4743,-1.5017,-1.4789,-1.428,-1.3763,-1.342,-1.3218,-1.3218,-1.3045,-1.2881,-1.2725,-1.2372,-1.2076,-1.2076,-1.1778,-1.1528,-1.1669,-1.1728,-1.1728,-1.1728,-1.1728,-1.1728,-1.1877,-1.1877,-1.1927,-1.2076,-1.2076,-1.2076,-1.2076,-1.2076,-1.2076,-1.2076,-1.2076,-1.2076,-1.2076,-1.2076,-1.2076,-1.2076,-1.2076,-1.2076,-1.2076,-1.2076,-1.2076,-1.2076,-1.2589,-1.2812,-1.2812,-1.3484,-1.4201,0.6392,0.6428,0.6532,0.6749,0.6707,0.6681,0.697,0.7084,0.7139,0.7306,0.7628,0.7901,0.7901,0.7901,0.7961,0.8135,0.8165,0.0,0.8334,0.0,0.0,0.6997,0.5352,0.0,0.0,0.0,0.0,0.0,0.0,0.0,0.0,-0.5496,-0.5987,-0.681,-0.7223,-0.75,-0.769,-0.8094,-0.8726,-0.9498,-1.0246,-1.0921,-1.1669,-1.2442,0.0,0.0,0.0,0.0,0.0,-1.4501,-1.4731,-1.488,-1.488,-1.4971,-1.5153,-1.5623,-1.5744,-1.5712,-1.5788,-1.57,-1.5534,-1.5187,-1.5198,-1.5322,-1.5412,-1.5322,-1.5142,-1.4858,-1.449,-1.4176,-1.4035,-1.3847,-1.361,-1.3457,-1.2919,-1.2433,-1.2335,-1.195,-1.1628,-1.1669,-1.1769,-1.1828,-1.1828,-1.1927,-1.1977,-1.2026,-1.2026,-1.2076,-1.2076,-1.2076,-1.2076,-1.2076,-1.2076,-1.2076,-1.2076,-1.2076,-1.2076,-1.2076,-1.2076,-1.2076,-1.2076,-1.2076,-1.2076,-1.2076,-1.2403,-1.2589,-1.2589,-1.3198,-1.3721,-1.4086,-1.4709,-1.5142,0.6125,0.6282,0.6304,0.6816,0.6702,0.6639,0.6999,0.7085,0.7139,0.7354,0.7681,0.7901,0.7901,0.7901,0.7955,0.8117,0.8225,0.0,0.0,0.0,0.0,0.7021,0.0,0.0,0.0,0.0,0.0,0.0,0.0,0.0,0.0,0.0,-0.5714,-0.6756,-0.7256,-0.7647,-0.7898,-0.8277,-0.8876,-0.9611,-1.027,-1.0937,-1.1701,-1.2491,0.0,0.0,0.0,0.0,0.0,-1.4926,-1.5187,-1.5355,-1.5355,-1.5457,-1.568,-1.5976,-1.6064,-1.6064,-1.6064,-1.602,-1.5901,-1.5623,-1.568,-1.5869,-1.5988,-1.5944,-1.578,-1.549,-1.5187,-1.4869,-1.4605,-1.4316,-1.4129,-1.4071,-1.3532,-1.3044,-1.2996,-1.2677,-1.2304,-1.2147,-1.2353,-1.2501,-1.2255,-1.2461,-1.2598,-1.2403,-1.2559,-1.251,-1.2175,-1.2264,-1.2314,-1.2126,-1.2076,-1.2076,-1.2076,-1.2076,-1.2076,-1.2076,-1.2076,-1.2076,-1.2076,-1.2076,-1.2166,-1.2353,-1.2628,-1.2909,-1.3112,-1.3732,-1.4387,-1.5085,-1.5424,-1.5614,0.0,0.5823,0.5928,0.5828,0.5991,0.6317,0.6918,0.7025,0.0,0.7735,0.7848,0.7907,0.7925,0.7913,0.7913,0.7949,0.8159,0.0,0.0,0.7944,0.0,0.0,0.0,0.0,0.0,0.0,0.0,0.0,0.0,0.0,0.0,0.0,-0.542,-0.6154,-0.7128,-0.7757,-0.7898,-0.8644,-0.9167,-0.9562,-1.0195,-1.0998,-1.1963,-1.2353,0.0,0.0,0.0,0.0,0.0,-1.5017,-1.5457,-1.5832,-1.5832,-1.6107,-1.6522,-1.6522,-1.6522,-1.6522,-1.6522,-1.6392,-1.6231,-1.6293,-1.6293,-1.6318,-1.6637,-1.6479,-1.61,-1.5768,-1.549,-1.522,-1.4834,-1.4569,-1.443,-1.443,-1.4118,-1.3873,-1.4025,-1.3695,-1.3314,-1.2919,-1.3266,-1.342,-1.2967,-1.3266,-1.3409,-1.2909,-1.3266,-1.3276,-1.2314,-1.2589,-1.2677,-1.2264,-1.2166,-1.2175,-1.2224,-1.2126,-1.2076,-1.2076,-1.2076,-1.2076,-1.2076,-1.2126,-1.2353,-1.2764,-1.2861,-1.3208,-1.3752,-1.4316,-1.4971,-1.5715,-1.5715,-1.576,0.4411,0.0,0.5433,0.5991,0.5828,0.5664,0.0,0.6426,0.6588,0.7192,0.7628,0.7961,0.8159,0.8033,0.8033,0.8429,0.0,0.0,0.8757,0.0,0.0,0.0,0.0,0.0,0.0,0.0,0.0,0.0,0.0,0.0,0.0,0.0,-0.5398,-0.6204,-0.6864,-0.7442,-0.7898,-0.8644,-0.9116,-0.9323,-1.0171,-1.0973,-1.1715,-1.2325,0.0,0.0,0.0,0.0,-1.5017,-1.5812,-1.625,-1.6337,-1.6337,-1.638,-1.6522,-1.6522,-1.6522,-1.6522,-1.6522,-1.6479,-1.6436,-1.6577,-1.6705,-1.6833,-1.6905,-1.6577,-1.6188,-1.6151,-1.5744,-1.522,-1.4915,-1.4743,-1.4616,-1.4616,-1.4419,-1.428,-1.4326,-1.3894,-1.3515,-1.3409,-1.3515,-1.3563,-1.3409,-1.3515,-1.3563,-1.3409,-1.3515,-1.3515,-1.3276,-1.3324,-1.3372,-1.3276,-1.288,-1.2774,-1.3228,-1.2559,-1.2076,-1.2076,-1.2076,-1.2076,-1.2076,-1.2442,-1.2677,-1.2812,-1.3684,-1.4398,-1.5051,-1.5187,-1.5424,-1.5792,-1.5715,-1.576,0.4027,0.4349,0.4783,0.5605,0.5555,0.555,0.6426,0.6593,0.6756,0.7354,0.7681,0.7943,0.8087,0.8093,0.8171,0.0,0.8699,0.0,0.0,0.0,0.0,0.0,0.0,0.0,0.0,0.0,0.0,0.0,0.0,0.0,0.0,0.0,-0.5015,-0.5628,-0.6496,-0.7332,-0.8139,-0.8508,-0.9082,-0.9741,-1.041,-1.1141,-1.1882,-1.2433,0.0,0.0,0.0,0.0,-1.5153,-1.612,-1.6522,-1.6522,-1.6522,-1.6522,-1.6522,-1.6522,-1.6522,-1.6522,-1.6522,-1.6522,-1.662,-1.6761,-1.6876,-1.7002,-1.7086,-1.6876,-1.665,-1.6497,-1.6107,-1.5635,-1.5322,-1.5051,-1.488,-1.488,-1.4789,-1.4743,-1.4743,-1.4501,-1.4222,-1.3999,-1.4129,-1.4176,-1.3847,-1.3941,-1.4035,-1.3847,-1.3988,-1.3999,-1.3658,-1.381,-1.3858,-1.361,-1.3314,-1.3266,-1.3563,-1.3084,-1.2803,-1.2803,-1.255,-1.255,-1.2803,-1.2774,-1.3006,-1.3542,-1.4351,-1.4971,-1.539,-1.539,-1.5525,-1.5647,-1.5715,-1.5715,0.3907,0.3965,0.4187,0.5007,0.5171,0.5445,0.6593,0.681,0.7031,0.7628,0.7794,0.7806,0.7949,0.8141,0.0,0.0,0.0,0.0,0.0,0.0,0.0,0.0,0.0,0.0,0.0,0.0,0.0,0.0,0.0,0.0,0.0,0.0,0.0,-0.4908,-0.614,-0.7246,-0.8305,-0.8402,-0.8995,-1.0198,-1.0608,-1.1259,-1.2098,-1.255,0.0,0.0,0.0,0.0,-1.5153,-1.612,-1.6522,-1.6522,-1.6522,-1.6522,-1.6522,-1.6522,-1.6522,-1.6522,-1.6522,-1.662,-1.6761,-1.6846,-1.696,-1.7157,-1.724,-1.7282,-1.724,-1.6964,-1.6565,-1.6188,-1.5856,-1.5501,-1.5289,-1.5289,-1.5289,-1.5244,-1.5153,-1.5142,-1.5017,-1.4512,-1.4743,-1.4823,-1.4212,-1.4455,-1.4558,-1.4212,-1.4501,-1.4558,-1.3894,-1.4233,-1.4326,-1.3894,-1.3752,-1.3752,-1.38,-1.3752,-1.3752,-1.38,-1.316,-1.3064,-1.3563,-1.3256,-1.3494,-1.4512,-1.4926,-1.521,-1.5312,-1.5312,-1.539,-1.5513,-1.5671,-1.576,0.377,0.391,0.4076,0.4515,0.4625,0.4791,0.5441,0.555,0.5882,0.6972,0.7246,0.7415,0.8134,0.8261,0.8363,0.0,0.0,0.0,0.0,0.0,0.0,0.0,0.0,0.0,0.0,0.0,0.0,0.0,0.0,0.0,0.0,0.0,0.0,-0.463,-0.6157,-0.7314,-0.8076,-0.8306,-0.8685,-0.9211,-1.0095,-1.0838,-1.1516,-1.2169,-1.2812,0.0,0.0,-1.5108,-1.5153,-1.612,-1.6522,-1.6522,-1.6522,-1.6522,-1.6522,-1.6522,-1.6522,-1.6522,-1.6522,-1.665,-1.6846,-1.6761,-1.7157,-1.7679,-1.7639,-1.7679,-1.772,-1.7625,-1.7131,-1.6595,-1.6552,-1.6306,-1.6013,-1.6013,-1.6013,-1.5881,-1.5367,-1.54,-1.5277,-1.4558,-1.4616,-1.4754,-1.4605,-1.4651,-1.4743,-1.4926,-1.5017,-1.5017,-1.4869,-1.4926,-1.4971,-1.488,-1.4512,-1.4419,-1.4834,-1.4512,-1.4466,-1.4823,-1.3579,-1.3064,-1.3563,-1.3941,-1.4408,-1.4971,-1.5165,-1.5267,-1.5312,-1.539,-1.5525,-1.5671,-1.5715,-1.5925,0.3819,0.3965,0.4076,0.4408,0.4736,0.5062,0.566,0.5769,0.5937,0.648,0.6864,0.7117,0.0,0.0,0.7982,0.7984,0.0,0.0,0.0,0.0,0.0,0.0,0.0,0.0,0.0,0.0,0.0,0.0,0.0,0.0,0.0,0.0,0.0,0.0,-0.5515,-0.6595,-0.7449,-0.8072,-0.8844,-0.9784,-1.0498,-1.115,-1.1801,-1.2442,-1.3132,-1.3789,0.0,-1.5187,-1.5534,-1.6207,-1.6522,-1.6522,-1.6522,-1.6522,-1.6522,-1.6522,-1.6522,-1.6522,-1.6577,-1.6675,-1.6846,-1.7157,-1.7475,-1.776,-1.776,-1.7787,-1.776,-1.7557,-1.7089,-1.671,-1.671,-1.6436,-1.62,-1.62,-1.6144,-1.5957,-1.54,-1.5457,-1.5367,-1.4697,-1.4743,-1.488,-1.4697,-1.4708,-1.4754,-1.4891,-1.488,-1.4926,-1.5062,-1.5108,-1.5108,-1.5108,-1.4926,-1.488,-1.5062,-1.488,-1.4743,-1.4743,-1.4305,-1.4014,-1.4046,-1.4512,-1.4926,-1.521,-1.5267,-1.5345,-1.539,-1.5468,-1.5635,-1.5932,-1.5988,-1.6312,0.3822,0.3968,0.4076,0.4298,0.4732,0.5234,0.572,0.5843,0.5894,0.6009,0.6449,0.0,0.0,0.7079,0.0,0.7565,0.0,0.0,0.0,0.0,0.0,0.0,0.0,0.0,0.0,0.0,0.0,0.0,0.0,0.0,0.0,0.0,0.0,0.0,-0.4966,-0.6051,-0.7047,-0.804,-0.9099,-1.0293,-1.0897,-1.151,-1.2126,-1.2774,-1.344,-1.4025,-1.4628,-1.5254,-1.5832,-1.6293,-1.6522,-1.6522,-1.6522,-1.6522,-1.6522,-1.6522,-1.6534,-1.6565,-1.6718,-1.6846,-1.7002,-1.7516,-1.7828,-1.8028,-1.7988,-1.7948,-1.7868,-1.7475,-1.7102,-1.6808,-1.6808,-1.6607,-1.6417,-1.6405,-1.6349,-1.6076,-1.5534,-1.5546,-1.5468,-1.4743,-1.4834,-1.4926,-1.4754,-1.4708,-1.4697,-1.4789,-1.4789,-1.488,-1.5062,-1.5108,-1.5108,-1.5108,-1.5108,-1.5108,-1.5108,-1.5108,-1.4971,-1.4605,-1.4926,-1.4926,-1.443,-1.4926,-1.5255,-1.5312,-1.5357,-1.539,-1.5513,-1.5513,-1.5756,-1.6157,-1.6269,-1.6685,0.3605,0.3805,0.4024,0.4021,0.4298,0.4608,0.4758,0.4789,0.4959,0.5534,0.5706,0.0,0.0,0.7289,0.76,0.0,0.0,0.0,0.0,0.0,0.0,0.0,0.0,0.0,0.0,0.0,0.0,0.0,0.0,0.0,0.0,0.0,0.0,0.0,0.0,-0.6261,-0.726,-0.8402,-0.9263,-0.9865,-1.0795,-1.151,-1.2126,-1.2774,-1.344,-1.4025,-1.4628,-1.5254,-1.5832,-1.6293,-1.6522,-1.6522,-1.6522,-1.6522,-1.6522,-1.6633,-1.6675,-1.6718,-1.6846,-1.7199,-1.7639,-1.7679,-1.8305,-1.8936,-1.8553,-1.8461,-1.8344,-1.7868,-1.7475,-1.7157,-1.7157,-1.7031,-1.696,-1.7115,-1.7031,-1.6735,-1.592,-1.5957,-1.5836,-1.4651,-1.4605,-1.4697,-1.4708,-1.4708,-1.4789,-1.5017,-1.5062,-1.5062,-1.5108,-1.5108,-1.5108,-1.5108,-1.5108,-1.5108,-1.5108,-1.5108,-1.5108,-1.5062,-1.521,-1.5028,-1.4419,-1.5108,-1.5435,-1.5312,-1.5435,-1.5468,-1.5513,-1.5614,-1.5913,-1.6269,-1.6423,-1.6921,0.3747,0.3972,0.4131,0.4265,0.4478,0.4596,0.4558,0.4826,0.505,0.4938,0.5162,0.0,0.0,0.0,0.5951,0.0,0.0,0.0,0.0,0.0,0.0,0.0,0.0,0.0,0.0,0.0,0.0,0.0,0.0,0.0,0.0,0.0,0.0,0.0,0.0,-0.5429,-0.6648,-0.7768,-0.8981,-1.0312,-1.0889,-1.151,-1.2126,-1.2735,-1.3296,-1.392,-1.4525,-1.5107,-1.5732,-1.6281,-1.6522,-1.6522,-1.6522,-1.6522,-1.6522,-1.6565,-1.6778,-1.7089,-1.724,-1.7639,-1.8108,-1.8461,-1.8822,-1.9026,-1.863,-1.85,-1.8344,-1.7639,-1.7323,-1.7199,-1.7115,-1.7115,-1.7115,-1.7073,-1.7044,-1.6778,-1.5964,-1.612,-1.6044,-1.4834,-1.4971,-1.5277,-1.5277,-1.5108,-1.5153,-1.5691,-1.5558,-1.5412,-1.5412,-1.5647,-1.5691,-1.5457,-1.5412,-1.5334,-1.5108,-1.5108,-1.5108,-1.5108,-1.5165,-1.5062,-1.4834,-1.5457,-1.5691,-1.5435,-1.6107,-1.6324,-1.612,-1.6479,-1.685,-1.7242,-1.7297,-1.7679,0.3744,0.3978,0.4197,0.4324,0.4594,0.4816,0.4543,0.4831,0.5035,0.4647,0.4934,0.5483,0.5949,0.0,0.0,0.0,0.0,0.0,0.0,0.0,0.0,0.0,0.0,0.0,0.0,0.0,0.0,0.0,0.0,0.0,0.0,0.0,0.0,0.0,0.0,0.0,-0.6508,-0.7581,-0.893,-1.0525,-1.099,-1.161,-1.2372,-1.291,-1.3467,-1.405,-1.4652,-1.5254,-1.5864,-1.6293,-1.6479,-1.6522,-1.6522,-1.6607,-1.6735,-1.6752,-1.7076,-1.7558,-1.7707,-1.8108,-1.863,-1.8988,-1.9101,-1.9026,-1.863,-1.8383,-1.8108,-1.7393,-1.7199,-1.7157,-1.7044,-1.7086,-1.7115,-1.7086,-1.7044,-1.682,-1.6238,-1.6324,-1.6293,-1.5334,-1.5513,-1.578,-1.578,-1.5603,-1.5603,-1.6113,-1.5969,-1.578,-1.578,-1.6013,-1.61,-1.5824,-1.578,-1.5691,-1.5468,-1.5424,-1.5424,-1.5424,-1.5424,-1.5379,-1.5232,-1.5901,-1.612,-1.5901,-1.6667,-1.6964,-1.6735,-1.7031,-1.7393,-1.7787,-1.7787,-1.8095,0.355,0.3805,0.4024,0.4024,0.468,0.5171,0.4625,0.4635,0.4687,0.4691,0.5012,0.5277,0.5277,0.5277,0.0,0.0,0.0,0.0,0.0,0.0,0.0,0.0,0.0,0.0,0.0,0.0,0.0,0.0,0.0,0.0,0.0,0.0,0.0,0.0,0.0,0.0,-0.699,-0.8006,-0.9105,-1.0403,-1.0956,-1.181,-1.2929,-1.3382,-1.3931,-1.4503,-1.5073,-1.5712,-1.6392,-1.6392,-1.6436,-1.6522,-1.6522,-1.6778,-1.7199,-1.7284,-1.7626,-1.8106,-1.8266,-1.8669,-1.9101,-1.9101,-1.9101,-1.9026,-1.863,-1.8187,-1.772,-1.7323,-1.7199,-1.7199,-1.7044,-1.7002,-1.7044,-1.7157,-1.7115,-1.696,-1.6765,-1.671,-1.6595,-1.6275,-1.62,-1.62,-1.62,-1.62,-1.62,-1.62,-1.62,-1.62,-1.62,-1.62,-1.62,-1.62,-1.62,-1.62,-1.62,-1.62,-1.62,-1.62,-1.62,-1.6013,-1.5635,-1.6367,-1.6752,-1.671,-1.7018,-1.7199,-1.7199,-1.7199,-1.7434,-1.7787,-1.7787,-1.8055,0.3767,0.3922,0.4083,0.4265,0.4541,0.4702,0.4543,0.5156,0.5639,0.0,0.4934,0.4842,0.5226,0.0,0.0,0.0,0.0,0.0,0.0,0.0,0.0,0.0,0.0,0.0,0.0,0.0,0.0,0.0,0.0,0.0,0.0,0.0,0.0,0.0,0.0,0.0,-0.6369,-0.7326,-0.8469,-0.9821,-1.0395,-1.1209,-1.2372,-1.319,-1.3705,-1.3931,-1.4892,-1.5433,-1.5756,-1.625,-1.6693,-1.6989,-1.6989,-1.7269,-1.7625,-1.7625,-1.7974,-1.8447,-1.863,-1.8988,-1.945,-1.9508,-1.9508,-1.9472,-1.9049,-1.8822,-1.863,-1.8226,-1.7868,-1.7679,-1.7988,-1.7787,-1.7475,-1.7157,-1.7115,-1.7073,-1.6765,-1.6892,-1.6892,-1.6318,-1.6392,-1.6552,-1.6552,-1.6362,-1.6362,-1.682,-1.6693,-1.665,-1.6863,-1.6693,-1.6552,-1.6552,-1.6552,-1.6479,-1.6244,-1.62,-1.62,-1.62,-1.6436,-1.6392,-1.6057,-1.6625,-1.6879,-1.671,-1.7365,-1.7666,-1.7639,-1.7988,-1.824,-1.8307,-1.8475,-1.8606,0.3767,0.3857,0.4008,0.4262,0.4363,0.4462,0.4757,0.0,0.0,0.0,0.4736,0.4574,0.4897,0.0,0.0,0.0,0.0,0.0,0.0,0.0,0.0,0.0,0.0,0.0,0.0,0.0,0.0,0.0,0.0,0.0,0.0,0.0,0.0,0.0,0.0,0.0,-0.632,-0.7197,-0.8377,-0.9865,-1.0438,-1.1301,-1.2403,-1.3025,-1.3505,-1.3941,-1.513,-1.568,-1.5768,-1.6293,-1.6778,-1.7199,-1.6989,-1.7393,-1.8068,-1.7868,-1.8266,-1.8898,-1.8988,-1.9302,-1.9611,-1.969,-1.9581,-1.9435,-1.9176,-1.8988,-1.8822,-1.8592,-1.8305,-1.8147,-1.8422,-1.8305,-1.7988,-1.7679,-1.7679,-1.7585,-1.7214,-1.731,-1.7269,-1.6693,-1.6778,-1.6892,-1.6892,-1.6735,-1.6705,-1.7086,-1.6947,-1.6892,-1.7157,-1.7018,-1.6892,-1.6892,-1.6892,-1.6892,-1.685,-1.685,-1.6934,-1.7089,-1.7325,-1.7366,-1.7173,-1.738,-1.7421,-1.7325,-1.8028,-1.8436,-1.8422,-1.8745,-1.895,-1.8988,-1.9124,-1.9199,0.3608,0.3691,0.3799,0.3965,0.4138,0.4411,0.5062,0.4842,0.4519,0.457,0.0,0.4519,0.0,0.0,0.0,0.0,0.0,0.0,0.0,0.0,0.0,0.0,0.0,0.0,0.0,0.0,0.0,0.0,0.0,0.0,0.0,0.0,0.0,0.0,0.0,0.0,-0.6536,-0.7381,-0.8525,0.0,-1.0795,-1.1642,-1.2667,-1.2861,-1.3484,-1.4479,-1.5691,-1.62,-1.6244,-1.6436,-1.6778,-1.7157,-1.6723,-1.7338,-1.8383,-1.7988,-1.8422,-1.9176,-1.9339,-1.9465,-1.9538,-1.9654,-1.9472,-1.9139,-1.9139,-1.8898,-1.8616,-1.8616,-1.8577,-1.8553,-1.8577,-1.8577,-1.8539,-1.8577,-1.8539,-1.8383,-1.7908,-1.7787,-1.7679,-1.7282,-1.7199,-1.7199,-1.7199,-1.7199,-1.7157,-1.7002,-1.7002,-1.7044,-1.7157,-1.7199,-1.7199,-1.7199,-1.724,-1.7393,-1.7747,-1.7828,-1.8028,-1.8461,-1.8592,-1.8577,-1.8616,-1.8372,-1.8293,-1.8383,-1.8869,-1.9236,-1.9413,-1.9413,-1.9508,-1.9675,-1.9747,-1.9839,0.3735,0.3691,0.3749,0.4082,0.4301,0.4463,0.4625,0.457,0.4625,0.5062,0.4791,0.4519,0.0,0.0,0.0,0.0,0.0,0.0,0.0,0.0,0.0,0.0,0.0,0.0,0.0,0.0,0.0,0.0,0.0,0.0,0.0,0.0,0.0,0.0,0.0,-0.4743,-0.5571,-0.6919,-0.7967,0.0,-0.9976,-1.0897,-1.1592,-1.3236,-1.4525,-1.5513,-1.5969,-1.62,-1.6244,-1.6436,-1.6778,-1.7199,-1.7073,-1.7434,-1.7988,-1.8266,-1.8266,-1.8266,-1.9101,-1.9213,-1.9049,-1.953,-1.9654,-1.9581,-1.9581,-1.9493,-1.9457,-1.9457,-1.9199,-1.9049,-1.9347,-1.9199,-1.9049,-1.9384,-1.8959,-1.8383,-1.7908,-1.7787,-1.7679,-1.7282,-1.7199,-1.7157,-1.7086,-1.7044,-1.7002,-1.6918,-1.6918,-1.696,-1.7044,-1.7044,-1.7073,-1.7199,-1.7475,-1.772,-1.7787,-1.8147,-1.8408,-1.8588,-1.8577,-1.8616,-1.8664,-1.8626,-1.8679,-1.8898,-1.8831,-1.8983,-1.9413,-1.9603,-1.9681,-1.9645,-2.005,-2.0224,0.3577,0.3635,0.3694,0.4027,0.0,0.4356,0.4463,0.4519,0.457,0.4846,0.4624,0.0,0.0,0.0,0.0,0.0,0.0,0.0,0.0,0.0,0.0,0.0,0.0,0.0,0.0,0.0,0.0,0.0,0.0,0.0,0.0,0.0,0.0,0.0,-0.3402,-0.4322,-0.5191,-0.6819,-0.8151,-0.9176,-1.0712,-1.1873,-1.2706,-1.3815,-1.472,-1.5468,-1.5913,-1.6144,-1.62,-1.6392,-1.6735,-1.7199,-1.6947,-1.7269,-1.7828,-1.8068,-1.8187,-1.8305,-1.9101,-1.9302,-1.925,-1.9581,-1.969,-1.969,-1.969,-1.969,-1.969,-1.969,-1.9545,-1.9435,-1.9654,-1.953,-1.9435,-1.9654,-1.9384,-1.8959,-1.85,-1.8422,-1.8266,-1.7828,-1.772,-1.7679,-1.757,-1.7529,-1.7352,-1.696,-1.7086,-1.7157,-1.7002,-1.724,-1.7393,-1.7475,-1.7679,-1.7948,-1.8383,-1.85,-1.8731,-1.9132,-1.9244,-1.9317,-1.9376,-1.9413,-1.9391,-1.9273,-1.9354,-1.9515,-1.9848,-1.996,-2.012,-2.0227,-2.0514,-2.078,0.3244,0.3527,0.3694,0.391,0.4079,0.0,0.4408,0.4463,0.4519,0.4519,0.0,0.0,0.0,0.0,0.0,0.0,0.0,0.0,0.0,0.0,0.0,0.0,0.0,0.0,0.0,0.0,0.0,0.0,0.0,0.0,0.0,0.0,-0.0987,-0.1896,-0.2802,-0.3781,-0.489,-0.6695,-0.8265,-0.9636,-1.1599,-1.3165,-1.4305,-1.4398,-1.4674,-1.5153,-1.5724,-1.6088,-1.6244,-1.6436,-1.6778,-1.7157,-1.685,-1.7186,-1.7787,-1.7868,-1.8147,-1.8553,-1.9176,-1.9413,-1.9487,-1.9654,-1.969,-1.969,-1.969,-1.9747,-1.9782,-1.9726,-1.9747,-1.9782,-1.9726,-1.969,-1.969,-1.969,-1.969,-1.9581,-1.9176,-1.9101,-1.8898,-1.8383,-1.8266,-1.824,-1.8189,-1.8042,-1.7747,-1.7199,-1.7352,-1.7516,-1.7282,-1.7598,-1.7908,-1.7908,-1.7988,-1.8305,-1.9026,-1.8936,-1.9124,-1.9797,-2.001,-2.01,-2.015,-2.0235,-2.008,-1.9639,-1.996,-2.0185,-2.0304,-2.0373,-2.0561,-2.0909,-2.1023,-2.1415,0.2625,0.3294,0.3796,0.0,0.4024,0.4193,0.0,0.0,0.4519,0.0,0.0,0.0,0.0,0.0,0.0,0.0,0.0,0.0,0.0,0.0,0.0,0.0,0.0,0.0,0.0,0.0,0.0,0.0,0.0,0.0,0.0,-0.0045,-0.0591,-0.1605,-0.2133,-0.2898,-0.4049,-0.5812,-0.7109,-0.8049,-1.0893,-1.2975,-1.4305,-1.4777,-1.5017,-1.5153,-1.5724,-1.6088,-1.6231,-1.671,-1.7005,-1.724,-1.7516,-1.7707,-1.7828,-1.8266,-1.8187,-1.8028,-1.9064,-1.9176,-1.8974,-1.953,-1.969,-1.969,-1.969,-1.9909,-2.0085,-1.9782,-1.9925,-2.0085,-1.9782,-1.969,-1.969,-1.969,-1.969,-1.9581,-1.9176,-1.8997,-1.8793,-1.8383,-1.8147,-1.8042,-1.8042,-1.7922,-1.7828,-1.7828,-1.7908,-1.7988,-1.8108,-1.8187,-1.8266,-1.8383,-1.8707,-1.8988,-1.9101,-1.9435,-1.9726,-1.9955,-2.0045,-2.015,-2.027,-2.0304,-2.027,-2.0185,-2.0235,-2.027,-2.0304,-2.0595,-2.0761,-2.0827,-2.1462,-2.1853,0.2402,0.2959,0.3294,0.0,0.391,0.4024,0.4193,0.0,0.4356,0.0,0.0,0.0,0.0,0.0,0.0,0.0,0.0,0.0,0.0,0.0,0.0,0.0,0.0,0.0,0.0,0.0,0.0,0.0,0.0,0.0,0.0448,0.0134,-0.0316,-0.1058,-0.1832,-0.2798,-0.4034,-0.5901,-0.7992,-1.0327,-1.1583,-1.2894,-1.4294,-1.453,-1.4977,-1.5513,-1.6032,-1.6392,-1.6552,-1.7047,-1.738,-1.7557,-1.772,-1.7787,-1.7868,-1.8344,-1.8383,-1.8344,-1.9139,-1.9339,-1.9288,-1.9617,-1.969,-1.9762,-1.9909,-2.007,-2.0174,-2.0015,-2.0085,-2.0104,-1.9782,-1.969,-1.969,-1.969,-1.9654,-1.9596,-1.9413,-1.9325,-1.9199,-1.8898,-1.8553,-1.8305,-1.8344,-1.8305,-1.8212,-1.808,-1.8316,-1.8447,-1.8305,-1.8553,-1.8784,-1.8822,-1.8988,-1.9213,-1.9435,-1.953,-1.969,-1.997,-2.0131,-2.0235,-2.0304,-2.0304,-2.0304,-2.0304,-2.0304,-2.0339,-2.0392,-2.0561,-2.0811,-2.1182,-2.1598,-2.2039,0.19,0.0,0.2631,0.3161,0.3314,0.3469,0.0,0.0,0.0,0.0,0.0,0.0,0.0,0.0,0.0,0.0,0.0,0.0,0.0,0.0,0.0,0.0,0.0,0.0,0.0,0.0,0.0,0.0,0.0,0.0,0.0764,0.0359,-0.009,-0.0671,-0.1428,-0.2581,-0.4206,-0.6282,-0.8841,-1.1905,-1.2006,-1.2827,-1.4283,-1.444,-1.4903,-1.5632,-1.5819,-1.6212,-1.6619,-1.7114,-1.7572,-1.7988,-1.8068,-1.8108,-1.8187,-1.85,-1.8669,-1.8784,-1.9228,-1.9465,-1.9574,-1.9762,-1.9782,-1.9782,-2.0224,-2.0345,-2.0326,-2.0208,-2.0277,-2.0258,-1.9818,-1.969,-1.9711,-1.9818,-1.9797,-1.9741,-1.9669,-1.9632,-1.9632,-1.9566,-1.9244,-1.8968,-1.908,-1.908,-1.8968,-1.865,-1.8954,-1.908,-1.8679,-1.9011,-1.925,-1.925,-1.925,-1.9347,-1.969,-1.9566,-1.9675,-2.0061,-2.0166,-2.0304,-2.0527,-2.0426,-2.0426,-2.0595,-2.0595,-2.0595,-2.0579,-2.0697,-2.1071,-2.1628,-2.1878,-2.2358,0.0953,0.14,0.0,0.1919,0.2004,0.2257,0.0,0.0,0.0,0.0,0.0,0.0,0.0,0.0,0.0,0.0,0.0,0.0,0.0,0.0,0.0,0.0,0.0,0.0,0.0,0.0,0.0,0.0,0.0,0.0,0.0764,0.0674,0.0224,-0.0671,-0.0762,-0.1869,-0.4159,-0.6648,-0.8747,-1.0502,-1.1435,-1.2725,-1.4305,-1.4846,-1.5043,-1.5025,-1.459,-1.5042,-1.6083,-1.6533,-1.7415,-1.85,-1.886,-1.9026,-1.9026,-1.9064,-1.9064,-1.9101,-1.9339,-1.9413,-1.9472,-2.0015,-1.9945,-1.9818,-2.0545,-2.0761,-2.0679,-2.0311,-2.0462,-2.0579,-1.9889,-1.969,-1.9782,-2.0104,-2.0174,-2.0104,-1.9823,-1.9788,-1.9894,-2.0177,-2.0212,-2.0246,-2.0364,-2.0398,-2.0311,-2.003,-2.003,-1.9925,-1.9675,-1.9639,-1.969,-1.969,-1.969,-1.969,-1.969,-1.9762,-1.996,-2.0342,-2.0166,-2.0357,-2.1135,-2.0795,-2.0828,-2.1324,-2.1355,-2.1198,-2.0861,-2.1323,-2.1688,-2.1998,-2.251,-2.2883,0.0617,0.0,0.0,0.1704,0.1863,0.2076,0.278,0.0,0.0,0.0,0.0,0.0,0.0,0.0,0.0,0.0,0.0,0.0,0.0,0.0,0.0,0.0,0.0,0.0,0.0,0.0,0.0,0.0,0.0,0.0,0.1166,0.0854,0.0404,-0.0224,-0.0537,-0.1727,-0.3915,-0.5781,-0.7406,-0.8812,-0.9846,-1.1158,-1.2655,-1.301,-1.3361,-1.363,-1.338,-1.4138,-1.5569,-1.6694,-1.7459,-1.7998,-1.8777,-1.9101,-1.9101,-1.9101,-1.9101,-1.9176,-1.9588,-1.9603,-1.9523,-2.0342,-2.0189,-1.9889,-2.0811,-2.0811,-2.0429,-2.0545,-2.0496,-2.0292,-1.9818,-1.969,-1.9782,-2.0065,-2.01,-2.0135,-2.0447,-2.0277,-2.0089,-2.028,-2.0078,-2.0043,-2.0481,-2.0348,-2.028,-2.0512,-2.0545,-2.0512,-2.041,-2.041,-2.041,-2.041,-2.041,-2.041,-2.041,-2.0478,-2.0563,-2.0697,-2.0663,-2.078,-2.1055,-2.1055,-2.1134,-2.1339,-2.1645,-2.1675,-2.1462,-2.1718,-2.2079,-2.2512,-2.289,-2.3259,0.0168,0.0,0.0,0.0,0.0,0.1402,0.2154,0.0,0.0,0.0,0.0,0.0,0.0,0.0,0.0,0.0,0.0,0.0,0.0,0.0,0.0,0.0,0.0,0.0,0.0,0.0,0.0,0.0,0.0,0.0,0.1211,0.0854,0.0494,0.0,-0.0892,-0.2027,-0.3419,-0.5213,-0.6665,-0.7728,-0.9012,-1.0346,-1.1707,-1.2027,-1.2461,-1.2889,-1.2814,-1.357,-1.5014,-1.5989,-1.6849,-1.7658,-1.8321,-1.8786,-1.9101,-1.9101,-1.9101,-1.9161,-1.9687,-1.9681,-1.956,-2.0613,-2.0478,-2.0085,-2.1135,-2.0958,-2.0462,-2.0712,-2.0496,-2.0104,-1.9782,-1.9782,-1.996,-2.0273,-2.0357,-2.0478,-2.1007,-2.0763,-2.0462,-2.0698,-2.0418,-2.0302,-2.0894,-2.0682,-2.0565,-2.0909,-2.0958,-2.0925,-2.0827,-2.0794,-2.0794,-2.0794,-2.0794,-2.0794,-2.0794,-2.0844,-2.0909,-2.1039,-2.0975,-2.1103,-2.1385,-2.1521,-2.1655,-2.182,-2.2258,-2.2422,-2.2341,-2.2341,-2.2565,-2.3045,-2.33,-2.3638,0.0,0.0,0.0,0.0,0.0,0.0,0.0,0.0,0.0,0.0,0.0,0.0,0.0,0.0,0.0,0.0,0.0,0.0,0.0,0.0,0.0,0.0,0.0,0.0,0.0,0.0,0.0,0.0,0.0,0.17,0.0809,0.0719,0.0494,0.0,-0.1689,-0.2617,-0.2662,-0.5086,-0.6648,-0.7337,-0.9009,-1.0463,-1.1634,-1.2054,-1.247,-1.2839,-1.2877,-1.3433,-1.4372,-1.4385,-1.564,-1.7523,-1.7602,-1.8198,-1.9072,-1.9101,-1.9101,-1.9161,-1.9737,-1.9681,-1.9617,-2.0909,-2.0828,-2.0413,-2.1493,-2.1324,-2.0794,-2.0794,-2.0496,-2.0104,-1.9782,-1.9945,-2.0311,-2.0712,-2.0893,-2.1103,-2.1511,-2.1199,-2.0958,-2.1481,-2.1261,-2.1166,-2.1691,-2.1526,-2.1309,-2.1309,-2.1309,-2.1183,-2.086,-2.0827,-2.0827,-2.0827,-2.0827,-2.0827,-2.0827,-2.0827,-2.099,-2.1309,-2.1087,-2.1323,-2.2192,-2.2147,-2.2378,-2.2893,-2.3224,-2.3392,-2.3414,-2.3141,-2.3189,-2.3522,-2.3735,-2.4059,-0.1955,0.0,0.0,0.0,0.0,0.0,0.0,0.0,0.0,0.0,0.0,0.0,0.0,0.0,0.0,0.0,0.0,0.0,0.0,0.0,0.0,0.0,0.0,0.0,0.0,0.0,0.0,0.0,0.2502,0.1966,0.1744,0.1077,0.0494,0.0,-0.0491,-0.107,-0.1741,-0.322,-0.4517,-0.5625,-0.7161,-0.8553,-0.9771,-1.0466,-1.1186,-1.1901,-1.2198,-1.2686,-1.3366,-1.4111,-1.4852,-1.564,-1.7046,-1.7766,-1.809,-1.8838,-1.9139,-1.9362,-2.0089,-2.0154,-2.01,-2.1276,-2.1198,-2.0778,-2.157,-2.1134,-2.0429,-2.0728,-2.0342,-1.9889,-2.0015,-2.0139,-2.0345,-2.1023,-2.1087,-2.1103,-2.1511,-2.1388,-2.1151,-2.115,-2.115,-2.1198,-2.1402,-2.1371,-2.1371,-2.1617,-2.1661,-2.1648,-2.154,-2.1509,-2.1509,-2.1509,-2.1509,-2.1509,-2.1509,-2.1688,-2.1849,-2.1953,-2.2102,-2.2307,-2.2529,-2.273,-2.29,-2.3035,-2.3271,-2.3437,-2.3544,-2.3566,-2.3674,-2.3883,-2.4265,-2.4591,-0.2577,-0.2122,-0.1675,0.0,0.0,0.0,0.0,0.0168,0.0,0.0,0.0,0.0,0.0,0.0,0.0,0.0,0.0,0.0,0.0,0.0,0.0,0.0,0.0,0.0,0.0,0.0,0.0,0.0,0.2768,0.2322,0.2099,0.1389,0.0852,0.0582,0.0224,-0.0268,-0.0805,-0.2216,-0.3309,-0.4144,-0.6102,-0.7556,-0.8529,-0.9521,-1.0427,-1.1255,-1.1664,-1.2174,-1.2745,-1.3476,-1.413,-1.4853,-1.639,-1.7259,-1.7723,-1.8743,-1.9176,-1.9398,-2.0208,-2.0311,-2.0292,-2.1432,-2.1448,-2.1119,-2.1631,-2.1276,-2.0663,-2.0778,-2.0376,-1.9945,-2.0139,-2.0311,-2.0597,-2.1151,-2.115,-2.1103,-2.1511,-2.1511,-2.1388,-2.1261,-2.1055,-2.0974,-2.1246,-2.1183,-2.1214,-2.1556,-2.1691,-2.1797,-2.1797,-2.1797,-2.1797,-2.1797,-2.1797,-2.1797,-2.1797,-2.2039,-2.2192,-2.2192,-2.2573,-2.2807,-2.2824,-2.3122,-2.3283,-2.3301,-2.3606,-2.3844,-2.4062,-2.3943,-2.4022,-2.43,-2.4697,-2.4929,-0.2927,-0.2685,-0.2523,-0.2238,0.0,0.0,-0.1174,-0.1007,0.0,0.0,0.0,0.0,0.0,0.0,0.0,0.0,0.0,0.0,0.0,0.0,0.0,0.0,0.0,0.0,0.0,0.0,0.3497,0.2998,0.2943,0.2677,0.2144,0.17,0.1478,0.1478,0.0671,0.0179,0.0089,-0.1639,-0.2693,-0.3046,-0.554,-0.7079,-0.7706,-0.8867,-0.9884,-1.0715,-1.1207,-1.1763,-1.2365,-1.2756,-1.3566,-1.4629,-1.5721,-1.6656,-1.7565,-1.8639,-1.9139,-1.9435,-2.0174,-2.0311,-2.0342,-2.1401,-2.1556,-2.1371,-2.1708,-2.1509,-2.1119,-2.0778,-2.0429,-2.0208,-2.0258,-2.0563,-2.0958,-2.1277,-2.123,-2.115,-2.1511,-2.1589,-2.1589,-2.1589,-2.1055,-2.0761,-2.1214,-2.1087,-2.1007,-2.1309,-2.1661,-2.1899,-2.184,-2.1869,-2.1899,-2.1899,-2.1899,-2.1899,-2.1899,-2.2153,-2.2303,-2.2303,-2.2747,-2.301,-2.3077,-2.3382,-2.3562,-2.3616,-2.4019,-2.4372,-2.4712,-2.4282,-2.43,-2.4756,-2.5,-2.5107,-0.4166,-0.3753,-0.3345,-0.3088,0.0,0.0,-0.1751,-0.1756,0.0,0.0,0.0,0.0,0.0,0.0,0.0,0.0,0.0,0.0,0.0,0.0,0.0,0.0,0.0,0.0,0.0,0.0,0.3173,0.3452,0.3126,0.2677,0.2144,0.201,0.1966,0.1966,0.1786,0.134,0.0582,-0.04,-0.1594,-0.3005,-0.4496,-0.5791,-0.6842,-0.7769,-0.8626,-0.9524,-1.0502,-1.1265,-1.19,-1.2591,-1.3132,-1.3658,-1.5092,-1.5972,-1.6656,-1.8092,-1.8936,-1.945,-1.9879,-2.0311,-2.0745,-2.1246,-2.134,-2.1371,-2.1708,-2.1166,-2.0345,-2.003,-2.005,-2.0277,-2.0613,-2.0958,-2.1277,-2.1601,-2.1587,-2.1511,-2.1589,-2.1511,-2.1464,-2.1589,-2.1356,-2.1183,-2.1277,-2.1432,-2.1552,-2.1691,-2.2169,-2.2419,-2.2153,-2.2364,-2.2527,-2.2527,-2.2527,-2.2527,-2.2527,-2.2782,-2.296,-2.3,-2.3348,-2.3571,-2.3634,-2.3707,-2.3753,-2.3753,-2.4155,-2.4503,-2.478,-2.4632,-2.4723,-2.5024,-2.508,-2.5196,-0.456,-0.4291,-0.3987,-0.3811,0.0,0.0,0.0,0.0,-0.2437,0.0,0.0,0.0,0.0,0.0,0.0,0.0,0.0,0.0,0.0,0.0,0.0,0.0,0.0,0.0,0.0,0.0,0.3317,0.3762,0.3536,0.3218,0.2944,0.2663,0.2499,0.2499,0.2233,0.1743,0.1074,0.0447,-0.0579,-0.2089,-0.3318,-0.4621,-0.6035,-0.6848,-0.7803,-0.8859,-0.9633,-1.052,-1.1439,-1.2044,-1.2661,-1.3342,-1.4618,-1.5233,-1.5681,-1.7474,-1.835,-1.8797,-1.9667,-2.0224,-2.0563,-2.0909,-2.1055,-2.1119,-2.1464,-2.1055,-2.0429,-2.005,-2.0085,-2.0277,-2.0679,-2.1055,-2.1371,-2.1738,-2.1694,-2.1589,-2.1589,-2.1542,-2.1556,-2.1768,-2.1661,-2.154,-2.1524,-2.1493,-2.1598,-2.189,-2.2248,-2.2456,-2.2456,-2.2607,-2.2703,-2.2703,-2.2703,-2.2703,-2.2703,-2.2985,-2.3157,-2.3206,-2.3549,-2.3789,-2.3896,-2.3939,-2.4039,-2.4192,-2.442,-2.4689,-2.4943,-2.4956,-2.5018,-2.5152,-2.5255,-2.5343,0.0,0.0,0.0,0.0,0.0,-0.4303,0.0,0.0,0.0,-0.2634,0.0,0.0,0.0,0.0,0.0,0.0,0.0,0.0,0.0,0.0,0.0,0.0,0.0,0.0,0.0,0.0,0.3479,0.378,0.3855,0.3836,0.3836,0.337,0.3069,0.3069,0.2645,0.2146,0.17,0.1118,0.0268,-0.0849,-0.2262,-0.3702,-0.5091,-0.5962,-0.6981,-0.8113,-0.869,-0.9692,-1.0935,-1.1391,-1.2235,-1.3283,-1.4201,-1.462,-1.4928,-1.6742,-1.7618,-1.805,-1.9286,-1.9908,-2.0243,-2.0579,-2.0761,-2.0827,-2.1007,-2.0909,-2.0613,-2.0208,-2.0139,-2.0277,-2.0679,-2.1055,-2.1371,-2.1738,-2.1724,-2.162,-2.162,-2.1573,-2.1603,-2.1794,-2.1794,-2.1794,-2.1878,-2.1718,-2.1718,-2.2141,-2.2368,-2.2537,-2.2756,-2.2833,-2.2859,-2.2859,-2.2859,-2.2859,-2.2884,-2.3164,-2.333,-2.3324,-2.3685,-2.3937,-2.402,-2.4098,-2.432,-2.4629,-2.4693,-2.4858,-2.5138,-2.5224,-2.5255,-2.5274,-2.5444,-2.5525,0.0,0.0,0.0,0.0,-0.54,0.0,0.0,0.0,-0.4703,-0.3715,0.0,0.0,0.0,0.0,0.0,0.0,0.0,0.0,0.0,0.0,0.0,0.0,0.0,0.0,0.0,0.0,0.0,0.3218,0.3701,0.3992,0.3992,0.3802,0.3718,0.3718,0.3507,0.3217,0.2721,0.1738,0.0891,0.0223,-0.1777,-0.3108,-0.3851,-0.5082,-0.5916,-0.6556,-0.7911,-0.9125,-1.0165,-1.0897,-1.1972,-1.3248,-1.3894,-1.4385,-1.4805,-1.5625,-1.6766,-1.7935,-1.8216,-1.9131,-2.0208,-2.0243,-2.0496,-2.0761,-2.0429,-2.0311,-2.0189,-1.9854,-1.998,-2.0277,-2.0679,-2.1055,-2.1371,-2.1738,-2.1738,-2.1694,-2.1694,-2.1464,-2.1261,-2.1276,-2.1507,-2.1907,-2.25,-2.2554,-2.2554,-2.2634,-2.306,-2.3271,-2.3077,-2.3247,-2.3407,-2.3407,-2.3407,-2.343,-2.3476,-2.3703,-2.381,-2.3743,-2.4059,-2.4192,-2.4079,-2.4265,-2.4491,-2.4775,-2.4845,-2.501,-2.5274,-2.5406,-2.5472,-2.5478,-2.5546,-2.5585,0.0,0.0,0.0,0.0,0.0,0.0,-0.5167,0.0,-0.5671,0.0,0.0,0.0,0.0,0.0,0.0,0.0,0.0,0.0,0.0,0.0,0.0,0.0,0.0,0.0,0.0,0.0,0.0,0.0,0.0,0.3634,0.3634,0.3807,0.3883,0.3795,0.3734,0.3475,0.2898,0.2097,0.1247,0.0401,-0.1159,-0.2319,-0.3155,-0.4308,-0.5188,-0.5836,-0.6945,-0.8156,-0.9409,-1.0128,-1.1143,-1.233,-1.2998,-1.3476,-1.3972,-1.5165,-1.6208,-1.7206,-1.8139,-1.9086,-1.9925,-1.9925,-2.0292,-2.0712,-2.0311,-2.0208,-2.0174,-2.0015,-2.007,-2.0277,-2.0679,-2.1055,-2.1371,-2.1738,-2.1738,-2.1694,-2.1694,-2.1587,-2.154,-2.1688,-2.1878,-2.2192,-2.2833,-2.2807,-2.2807,-2.3126,-2.3223,-2.3289,-2.3313,-2.3448,-2.3494,-2.3494,-2.3494,-2.3567,-2.3747,-2.3894,-2.3998,-2.4079,-2.4372,-2.451,-2.4442,-2.4689,-2.487,-2.4972,-2.5087,-2.5205,-2.5363,-2.5452,-2.5529,-2.5559,-2.5586,-2.56,-0.4519,0.0,0.0,0.0,0.0,0.0,0.0,0.0,0.0,0.0,0.0,0.0,0.0,0.0,0.0,0.0,0.0,0.0,0.0,0.0,0.0,0.0,0.0,0.0,0.0,0.0,0.0,0.0,0.0,0.0,0.3447,0.3697,0.3863,0.386,0.3812,0.3579,0.3081,0.2366,0.1606,0.0757,-0.0626,-0.1743,-0.2627,-0.3781,-0.4709,-0.5399,-0.6295,-0.7487,-0.8793,-0.9455,-1.0474,-1.1653,-1.2234,-1.272,-1.3235,-1.4587,-1.5571,-1.6459,-1.7807,-1.8917,-1.9726,-1.9818,-2.0204,-2.0579,-2.0292,-2.0208,-2.0174,-2.0085,-2.007,-2.0189,-2.0679,-2.099,-2.1277,-2.1708,-2.1768,-2.1724,-2.1724,-2.1708,-2.1781,-2.1936,-2.2147,-2.2422,-2.2849,-2.2884,-2.2935,-2.3383,-2.3289,-2.3217,-2.336,-2.3383,-2.3407,-2.3448,-2.3494,-2.3634,-2.3896,-2.4037,-2.4229,-2.4474,-2.4607,-2.4738,-2.4798,-2.5004,-2.512,-2.5153,-2.5261,-2.5359,-2.5454,-2.5493,-2.5554,-2.5595,-2.5609,-2.5593,0.0,0.0,0.0,-0.5882,0.0,0.0,0.0,0.0,-0.6918,0.0,0.0,0.0,0.0,0.0,0.0,0.0,0.0,0.0,0.0,0.0,0.0,0.0,0.0,0.0,0.0,0.0,0.0,0.0,0.0,0.0,0.3564,0.3458,0.36,0.3969,0.387,0.3724,0.3581,0.2546,0.1919,0.1739,-0.0313,-0.1607,-0.2178,-0.3646,-0.4578,-0.5096,-0.6209,-0.7363,-0.8472,-0.9093,-1.0234,-1.1653,-1.1993,-1.2401,-1.2908,-1.3749,-1.4719,-1.5792,-1.6853,-1.8342,-1.9747,-2.0085,-2.0208,-2.0208,-2.0208,-2.0208,-2.0139,-1.9818,-1.9726,-1.9889,-2.0613,-2.0794,-2.0974,-2.1631,-2.1797,-2.1797,-2.1797,-2.1764,-2.1685,-2.1715,-2.2135,-2.2496,-2.2522,-2.2832,-2.3144,-2.3289,-2.3289,-2.3241,-2.3144,-2.3102,-2.3168,-2.3289,-2.3412,-2.362,-2.3976,-2.4248,-2.4559,-2.495,-2.4798,-2.4832,-2.5076,-2.5101,-2.5164,-2.5301,-2.5293,-2.5398,-2.5585,-2.5601,-2.56,-2.5604,-2.5605,-2.56,0.0,0.0,-0.5117,-0.55,0.0,0.0,0.0,0.0,0.0,0.0,0.0,0.0,0.0,0.0,0.0,0.0,0.0,0.0,0.0,0.0,0.0,0.0,0.0,0.0,0.0,0.0,0.0,0.0,0.0,0.0,0.0,0.3092,0.3632,0.4324,0.3965,0.3866,0.3924,0.2765,0.201,0.165,-0.0089,-0.1143,-0.1627,-0.3165,-0.403,-0.4466,-0.5452,-0.6568,-0.7747,-0.8629,-0.9581,-1.0659,-1.17,-1.221,-1.2567,-1.3842,-1.4874,-1.5853,-1.7602,-1.8996,-2.0015,-1.9909,-2.0189,-2.0613,-2.0613,-2.0613,-2.0646,-2.0795,-2.0828,-2.0878,-2.1135,-2.1339,-2.1554,-2.1751,-2.1797,-2.1797,-2.1797,-2.1924,-2.2051,-2.2051,-2.2502,-2.29,-2.29,-2.3157,-2.3383,-2.3424,-2.336,-2.3342,-2.3491,-2.3417,-2.3481,-2.3728,-2.3795,-2.3961,-2.4284,-2.461,-2.4861,-2.4996,-2.4977,-2.5004,-2.5101,-2.519,-2.5264,-2.5301,-2.5395,-2.5498,-2.5605,-2.5603,-2.5605,-2.5605,-2.5606,-2.56,-0.4531,-0.4828,0.0,0.0,-0.6248,0.0,-0.7197,0.0,0.0,0.0,0.0,0.0,0.0,0.0,0.0,0.0,0.0,0.0,0.0,0.0,0.0,0.0,0.0,0.0,0.0,0.0,-0.2506,-0.0952,0.0,0.0,0.0,0.0,0.3299,0.4129,0.387,0.3729,0.3788,0.263,0.1919,0.1561,0.0044,-0.0903,-0.1342,-0.2668,-0.3517,-0.4027,-0.5005,-0.6003,-0.7072,-0.8193,-0.9112,-0.9916,-1.1365,-1.2066,-1.2401,-1.3927,-1.5145,-1.6229,-1.7804,-1.8914,-1.9661,-1.9671,-2.0204,-2.0761,-2.0646,-2.0778,-2.1023,-2.1198,-2.1119,-2.1055,-2.1324,-2.1432,-2.157,-2.1751,-2.1797,-2.1797,-2.1797,-2.2027,-2.2248,-2.233,-2.2764,-2.3144,-2.3217,-2.3401,-2.3494,-2.3448,-2.336,-2.3365,-2.354,-2.3473,-2.358,-2.3919,-2.4019,-2.4192,-2.4561,-2.4846,-2.5023,-2.5031,-2.5069,-2.5141,-2.5187,-2.5283,-2.536,-2.541,-2.5485,-2.5574,-2.5645,-2.5619,-2.56,-2.5593,-2.5571,-2.5561]}]]